[[{"header":{"parameterUnit":"m.s-1","parameterCategory":1,"la1":30.6,"la2":29.2853,"lo1":-89.7004,"lo2":-87.6739,"dy":0.0162,"dx":0.0183,"nx":112,"ny":82,"refTime":"2024-06-21T06:00:00:Z","depth":0,"parameterNumber":2,"parameterNumberName":"U-component_of_WINDS"},"data":[0.0,0.0,0.0,0.0,0.0,0.0,0.0,0.0,0.0,0.0,0.0,0.0,0.0,0.0,0.0,0.0,0.0,0.0,0.0,0.0,0.0,0.0,0.0,0.0,0.0,0.0,0.0,0.0,0.0,0.0,0.0,0.0,0.0,0.0,0.0,0.0,0.0,0.0,0.0,0.0,0.0,0.0,0.0,0.0,0.0,0.0,0.0,0.0,0.0,0.0,0.0,0.0,0.0,0.0,0.0,0.0,0.0,0.0,0.0,0.0,0.0,0.0,0.0,0.0,0.0,0.0,0.0,0.0,0.0,0.0,0.0,0.0,0.0,0.0,0.0,0.0,0.0,0.0,0.0,0.0,0.0,0.0,0.0,0.0,0.0,0.0,0.0,0.0,0.0,0.0,-0.6857,-0.7092,-0.6955,-0.6906,-0.72,-0.6769,-0.642,-0.6315,0.0,0.0,0.0,0.0,0.0,0.0,0.0,0.0,0.0,0.0,0.0,0.0,0.0,0.0,0.0,0.0,0.0,0.0,0.0,0.0,0.0,0.0,0.0,0.0,0.0,0.0,0.0,0.0,0.0,0.0,0.0,0.0,0.0,0.0,0.0,0.0,0.0,0.0,0.0,0.0,0.0,0.0,0.0,0.0,0.0,0.0,0.0,0.0,0.0,0.0,0.0,0.0,0.0,0.0,0.0,0.0,0.0,0.0,0.0,0.0,0.0,0.0,0.0,0.0,0.0,0.0,0.0,0.0,0.0,0.0,0.0,0.0,0.0,0.0,0.0,0.0,0.0,0.0,0.0,0.0,0.0,0.0,0.0,0.0,0.0,0.0,0.0,0.0,0.0,0.0,0.0,0.0,0.0,0.0,0.0,0.0,0.0,0.0,0.0,0.0,0.0,0.0,0.0,0.0,-0.6805,-0.6838,-0.681,-0.6791,-0.6851,-0.6541,-0.631,-0.6315,0.0,0.0,0.0,0.0,0.0,0.0,0.0,0.0,0.0,0.0,0.0,0.0,0.0,0.0,0.0,0.0,0.0,0.0,0.0,0.0,0.0,0.0,0.0,0.0,0.0,0.0,0.0,0.0,0.0,0.0,0.0,0.0,0.0,0.0,0.0,0.0,0.0,0.0,0.0,0.0,0.0,0.0,0.0,0.0,0.0,0.0,0.0,0.0,0.0,0.0,0.0,0.0,0.0,0.0,0.0,0.0,0.0,0.0,0.0,0.0,0.0,0.0,0.0,0.0,0.0,0.0,0.0,0.0,0.0,0.0,0.0,0.0,0.0,0.0,0.0,0.0,0.0,0.0,0.0,0.0,0.0,0.0,0.0,0.0,0.0,0.0,0.0,0.0,0.0,0.0,0.0,0.0,0.0,0.0,0.0,0.0,0.0,0.0,0.0,0.0,0.0,0.0,0.0,-0.705,-0.7182,-0.7182,-0.7182,-0.7182,-0.7182,-0.6768,-0.6416,-0.6357,-0.5958,0.0,0.0,0.0,0.0,0.0,0.0,0.0,0.0,0.0,0.0,0.0,0.0,0.0,0.0,0.0,0.0,0.0,0.0,0.0,0.0,0.0,0.0,0.0,0.0,0.0,0.0,0.0,0.0,0.0,0.0,0.0,0.0,0.0,0.0,0.0,0.0,0.0,0.0,0.0,0.0,0.0,0.0,0.0,0.0,0.0,0.0,0.0,0.0,0.0,0.0,0.0,0.0,0.0,0.0,0.0,0.0,0.0,0.0,0.0,0.0,0.0,0.0,0.0,0.0,0.0,0.0,0.0,0.0,0.0,0.0,0.0,0.0,0.0,0.0,0.0,0.0,0.0,0.0,0.0,0.0,0.0,0.0,0.0,0.0,0.0,0.0,0.0,0.0,0.0,0.0,0.0,0.0,0.0,0.0,0.0,0.0,0.0,0.0,0.0,0.0,0.0,0.0,-0.7383,-0.7469,-0.7517,-0.7456,-0.7456,-0.7456,-0.683,-0.6426,-0.631,-0.5831,0.0,0.0,0.0,0.0,0.0,0.0,0.0,0.0,0.0,0.0,0.0,0.0,0.0,0.0,0.0,0.0,0.0,0.0,0.0,0.0,0.0,0.0,0.0,0.0,0.0,0.0,0.0,0.0,0.0,0.0,0.0,0.0,0.0,0.0,0.0,0.0,0.0,0.0,0.0,0.0,0.0,0.0,0.0,0.0,0.0,0.0,0.0,0.0,0.0,0.0,0.0,0.0,0.0,0.0,0.0,0.0,0.0,0.0,0.0,0.0,0.0,0.0,0.0,0.0,0.0,0.0,0.0,0.0,0.0,0.0,0.0,0.0,0.0,0.0,0.0,0.0,0.0,0.0,0.0,0.0,0.0,0.0,0.0,0.0,0.0,0.0,0.0,0.0,0.0,0.0,0.0,0.0,0.0,0.0,0.0,0.0,0.0,0.0,0.0,0.0,0.0,0.0,-0.735,-0.7316,-0.7502,-0.733,-0.7199,-0.7199,-0.6582,-0.6117,-0.6117,-0.5604,0.0,0.0,0.0,0.0,0.0,0.0,0.0,0.0,0.0,0.0,0.0,0.0,0.0,0.0,0.0,0.0,0.0,0.0,0.0,0.0,0.0,0.0,0.0,0.0,0.0,0.0,0.0,0.0,0.0,0.0,0.0,0.0,0.0,0.0,0.0,0.0,0.0,0.0,0.0,0.0,0.0,0.0,0.0,0.0,0.0,0.0,0.0,0.0,0.0,0.0,0.0,0.0,0.0,0.0,0.0,0.0,0.0,0.0,0.0,0.0,0.0,0.0,0.0,0.0,0.0,0.0,0.0,0.0,0.0,0.0,0.0,0.0,0.0,0.0,0.0,0.0,0.0,0.0,0.0,0.0,0.0,0.0,0.0,0.0,0.0,0.0,0.0,0.0,0.0,0.0,0.0,0.0,0.0,0.0,0.0,0.0,0.0,0.0,0.0,0.0,0.0,0.0,-0.7136,-0.7057,-0.7129,-0.7073,-0.7007,-0.7007,-0.6461,-0.6117,-0.6117,0.0,0.0,0.0,0.0,0.0,0.0,0.0,0.0,0.0,0.0,0.0,0.0,0.0,0.0,0.0,0.0,0.0,0.0,0.0,0.0,0.0,0.0,0.0,0.0,0.0,0.0,0.0,0.0,0.0,0.0,0.0,0.0,0.0,0.0,0.0,0.0,0.0,0.0,0.0,0.0,0.0,0.0,0.0,0.0,0.0,0.0,0.0,0.0,0.0,0.0,0.0,0.0,0.0,0.0,0.0,0.0,0.0,0.0,0.0,0.0,0.0,0.0,0.0,0.0,0.0,0.0,0.0,0.0,0.0,0.0,0.0,0.0,0.0,0.0,0.0,0.0,0.0,0.0,0.0,0.0,0.0,0.0,0.0,0.0,0.0,0.0,0.0,0.0,0.0,0.0,0.0,0.0,0.0,0.0,0.0,0.0,0.0,0.0,0.0,0.0,0.0,0.0,-0.7024,-0.7012,-0.6881,-0.6881,-0.6881,-0.6811,-0.6811,-0.6337,-0.6061,-0.6061,0.0,0.0,0.0,0.0,0.0,0.0,0.0,0.0,0.0,0.0,0.0,0.0,0.0,0.0,0.0,0.0,0.0,0.0,0.0,0.0,0.0,0.0,0.0,0.0,0.0,0.0,0.0,0.0,0.0,0.0,0.0,0.0,0.0,0.0,0.0,0.0,0.0,0.0,0.0,0.0,0.0,0.0,0.0,0.0,0.0,0.0,0.0,0.0,0.0,0.0,0.0,0.0,0.0,0.0,0.0,0.0,0.0,0.0,0.0,0.0,0.0,0.0,0.0,0.0,0.0,0.0,0.0,0.0,0.0,0.0,0.0,0.0,0.0,0.0,0.0,0.0,0.0,0.0,0.0,0.0,0.0,0.0,0.0,0.0,0.0,0.0,0.0,0.0,0.0,0.0,0.0,0.0,0.0,0.0,0.0,0.0,0.0,0.0,0.0,0.0,0.0,0.0,-0.6828,-0.6881,-0.6881,-0.6881,-0.6745,-0.6675,-0.6675,-0.6216,-0.5888,0.0,0.0,0.0,0.0,0.0,0.0,0.0,0.0,0.0,0.0,0.0,0.0,0.0,0.0,0.0,0.0,0.0,0.0,0.0,0.0,0.0,0.0,0.0,0.0,0.0,0.0,0.0,0.0,0.0,0.0,0.0,0.0,0.0,0.0,0.0,0.0,0.0,0.0,0.0,0.0,0.0,0.0,0.0,0.0,0.0,0.0,0.0,0.0,0.0,0.0,0.0,0.0,0.0,0.0,0.0,0.0,0.0,0.0,0.0,0.0,0.0,0.0,0.0,0.0,0.0,0.0,0.0,0.0,0.0,0.0,0.0,0.0,0.0,0.0,0.0,0.0,0.0,0.0,0.0,0.0,0.0,0.0,0.0,0.0,0.0,0.0,0.0,0.0,0.0,0.0,0.0,0.0,0.0,0.0,0.0,0.0,0.0,0.0,0.0,0.0,0.0,0.0,0.0,-0.6523,-0.6538,-0.6552,-0.6552,-0.6482,-0.6482,-0.6482,-0.6154,-0.5888,-0.5763,0.0,0.0,0.0,0.0,0.0,0.0,0.0,0.0,0.0,0.0,0.0,0.0,0.0,0.0,0.0,0.0,0.0,0.0,0.0,0.0,0.0,0.0,0.0,0.0,0.0,0.0,0.0,0.0,0.0,0.0,0.0,0.0,0.0,0.0,0.0,0.0,0.0,0.0,0.0,0.0,0.0,0.0,0.0,0.0,0.0,0.0,0.0,0.0,0.0,0.0,0.0,0.0,0.0,0.0,0.0,0.0,0.0,0.0,0.0,0.0,0.0,0.0,0.0,0.0,0.0,0.0,0.0,0.0,0.0,0.0,0.0,0.0,0.0,0.0,0.0,0.0,0.0,0.0,0.0,0.0,0.0,0.0,0.0,0.0,0.0,0.0,0.0,0.0,0.0,0.0,0.0,0.0,0.0,0.0,0.0,0.0,0.0,0.0,0.0,0.0,0.0,0.0,-0.6253,-0.6371,-0.642,-0.642,-0.642,-0.635,-0.635,-0.6025,-0.5763,-0.5582,0.0,0.0,0.0,0.0,0.0,0.0,0.0,0.0,0.0,0.0,0.0,0.0,0.0,0.0,0.0,0.0,0.0,0.0,0.0,0.0,0.0,0.0,0.0,0.0,0.0,0.0,0.0,0.0,0.0,0.0,0.0,0.0,0.0,0.0,0.0,0.0,0.0,0.0,0.0,0.0,0.0,0.0,0.0,0.0,0.0,0.0,0.0,0.0,0.0,0.0,0.0,0.0,0.0,0.0,0.0,0.0,0.0,0.0,0.0,0.0,0.0,0.0,0.0,0.0,0.0,0.0,0.0,0.0,0.0,0.0,0.0,0.0,0.0,0.0,0.0,0.0,0.0,0.0,0.0,0.0,0.0,0.0,0.0,0.0,0.0,0.0,0.0,0.0,0.0,0.0,0.0,0.0,0.0,0.0,0.0,0.0,0.0,0.0,0.0,0.0,0.0,0.0,-0.6186,-0.6306,-0.642,-0.635,-0.635,-0.635,-0.6214,-0.5833,-0.5582,-0.5404,0.0,0.0,0.0,0.0,0.0,0.0,0.0,0.0,0.0,0.0,0.0,0.0,0.0,0.0,0.0,0.0,0.0,0.0,0.0,0.0,0.0,0.0,0.0,0.0,0.0,0.0,0.0,0.0,0.0,0.0,0.0,0.0,0.0,0.0,0.0,0.0,0.0,0.0,0.0,0.0,0.0,0.0,0.0,0.0,0.0,0.0,0.0,0.0,0.0,0.0,0.0,0.0,0.0,0.0,0.0,0.0,0.0,0.0,0.0,0.0,-1.014,-0.9397,0.0,0.0,0.0,0.0,0.0,0.0,0.0,0.0,0.0,0.0,0.0,0.0,0.0,0.0,0.0,0.0,0.0,0.0,0.0,0.0,0.0,0.0,0.0,0.0,0.0,0.0,0.0,0.0,0.0,0.0,0.0,0.0,0.0,0.0,0.0,0.0,0.0,0.0,0.0,0.0,-0.6186,-0.6306,-0.635,-0.628,-0.6214,-0.6148,-0.5954,-0.5653,-0.54,-0.5279,-0.4919,0.0,0.0,0.0,0.0,0.0,0.0,0.0,0.0,0.0,0.0,0.0,0.0,0.0,0.0,0.0,0.0,0.0,0.0,0.0,0.0,0.0,0.0,0.0,0.0,0.0,0.0,0.0,0.0,0.0,0.0,0.0,0.0,0.0,0.0,0.0,0.0,0.0,0.0,0.0,0.0,0.0,0.0,0.0,0.0,0.0,0.0,0.0,0.0,0.0,0.0,0.0,0.0,0.0,0.0,0.0,0.0,0.0,0.0,0.0,-1.0165,-0.9491,0.0,0.0,0.0,0.0,0.0,0.0,0.0,0.0,0.0,0.0,0.0,0.0,0.0,0.0,0.0,0.0,0.0,0.0,0.0,0.0,0.0,0.0,0.0,0.0,0.0,0.0,0.0,0.0,0.0,0.0,0.0,0.0,0.0,0.0,0.0,0.0,0.0,0.0,0.0,0.0,-0.6186,-0.6238,-0.628,-0.6214,-0.6083,-0.5951,-0.5752,-0.5534,-0.5301,-0.5039,-0.4817,0.0,0.0,0.0,0.0,0.0,0.0,0.0,0.0,0.0,0.0,0.0,0.0,0.0,0.0,0.0,0.0,0.0,0.0,0.0,0.0,0.0,0.0,0.0,0.0,0.0,0.0,0.0,0.0,0.0,0.0,0.0,0.0,0.0,0.0,0.0,0.0,0.0,0.0,0.0,0.0,0.0,0.0,0.0,0.0,0.0,0.0,0.0,0.0,0.0,0.0,0.0,0.0,0.0,-1.1297,-1.1436,-1.1633,-1.1363,-1.1392,-1.1534,-1.0265,-0.969,-0.9564,-0.881,0.0,0.0,0.0,0.0,0.0,0.0,0.0,0.0,0.0,0.0,0.0,0.0,0.0,0.0,0.0,0.0,0.0,0.0,0.0,0.0,0.0,0.0,-0.5447,-0.5378,-0.5404,-0.5389,-0.5341,0.0,0.0,0.0,0.0,0.0,0.0,0.0,0.0,0.0,0.0,0.0,-0.6109,-0.6124,-0.6148,-0.6079,-0.5951,-0.5752,-0.555,-0.5413,-0.5213,-0.4962,-0.4789,-0.4582,0.0,0.0,0.0,0.0,0.0,0.0,0.0,0.0,0.0,0.0,0.0,0.0,0.0,0.0,0.0,0.0,0.0,0.0,0.0,0.0,0.0,0.0,0.0,0.0,0.0,0.0,0.0,0.0,0.0,0.0,0.0,0.0,-0.7592,-0.8286,0.0,0.0,0.0,0.0,0.0,0.0,0.0,0.0,0.0,0.0,0.0,0.0,0.0,-1.126,-1.1709,-1.1867,-1.1904,-1.1911,-1.2197,-1.2204,-1.197,-1.1926,-1.1869,-1.1776,-1.1582,0.0,-1.0125,-0.9279,0.0,0.0,0.0,0.0,0.0,0.0,0.0,0.0,0.0,0.0,0.0,0.0,0.0,0.0,0.0,0.0,0.0,0.0,0.0,0.0,0.0,0.0,-0.5545,-0.543,-0.5404,-0.5393,-0.5408,-0.5415,-0.5472,-0.5736,-0.5464,-0.5306,0.0,0.0,0.0,0.0,0.0,0.0,-0.5967,-0.5943,-0.5888,-0.5683,-0.5683,-0.555,-0.5425,-0.522,-0.5121,-0.5104,-0.4843,-0.4674,-0.4633,-0.4402,0.0,0.0,0.0,0.0,0.0,0.0,0.0,0.0,0.0,0.0,0.0,0.0,0.0,0.0,0.0,0.0,0.0,0.0,0.0,0.0,0.0,0.0,0.0,0.0,0.0,0.0,0.0,0.0,0.0,-0.7621,-0.8087,-0.8648,-0.8692,-0.8758,0.0,0.0,0.0,0.0,0.0,0.0,0.0,0.0,0.0,-1.1394,-1.1524,-1.175,-1.2028,-1.2219,-1.2306,-1.2306,-1.2453,-1.2445,-1.2306,-1.2173,-1.2107,-1.204,-1.184,-1.1496,-1.1068,-1.0454,-0.9556,-0.8432,0.0,0.0,0.0,0.0,-0.6002,-0.5925,-0.5887,-0.5736,-0.5498,-0.557,0.0,0.0,0.0,0.0,0.0,0.0,0.0,-0.5516,-0.551,-0.5602,-0.5722,-0.561,-0.5614,-0.5684,-0.5755,-0.5684,-0.5624,-0.568,-0.5598,-0.5612,-0.5822,-0.5649,0.0,0.0,0.0,-0.5939,-0.6127,-0.6026,-0.596,-0.5887,-0.574,-0.5555,-0.5491,-0.5348,-0.5223,-0.5135,-0.5009,-0.4901,-0.4823,-0.4613,-0.4497,0.0,0.0,0.0,0.0,0.0,0.0,0.0,0.0,0.0,0.0,0.0,0.0,0.0,0.0,0.0,0.0,0.0,0.0,0.0,0.0,0.0,0.0,0.0,0.0,0.0,0.0,0.0,0.0,-0.8399,-0.8568,-0.8882,-0.8999,-0.9146,0.0,0.0,0.0,0.0,0.0,0.0,-1.1225,-1.1275,-1.1465,-1.1794,-1.2036,-1.2204,-1.2284,-1.2526,-1.2687,-1.2767,-1.2767,-1.2698,-1.2698,-1.2491,-1.2372,-1.2164,-1.2033,-1.1749,-1.1447,-1.1283,-1.0522,-0.9314,-0.8981,-0.8174,-0.7138,-0.6668,-0.64,-0.6226,-0.6147,-0.5868,-0.5639,-0.5683,-0.5473,-0.5226,-0.5241,0.0,0.0,0.0,0.0,-0.5636,-0.5645,-0.571,-0.5804,-0.5776,-0.58,-0.5875,-0.6022,-0.5875,-0.5785,-0.5747,-0.5792,-0.5847,-0.5995,-0.5837,0.0,-0.6087,-0.596,-0.5964,-0.6129,-0.6093,-0.6022,-0.6022,-0.5779,-0.563,-0.5593,-0.5488,-0.5355,-0.5199,-0.5152,-0.5084,-0.4975,-0.483,-0.4731,-0.4691,0.0,0.0,0.0,0.0,0.0,0.0,0.0,0.0,0.0,0.0,0.0,0.0,0.0,0.0,0.0,0.0,0.0,0.0,0.0,0.0,0.0,0.0,0.0,0.0,0.0,0.0,0.0,0.0,0.0,-0.9533,-0.9841,0.0,0.0,0.0,0.0,-1.0558,-1.085,-1.1172,-1.1578,-1.1823,-1.2138,-1.246,-1.2489,-1.265,-1.2958,-1.298,-1.314,-1.3448,-1.3448,-1.3368,-1.315,-1.315,-1.2769,-1.2219,-1.2428,-1.188,-1.0748,-1.1177,-1.0405,-0.8952,-0.8902,-0.7903,-0.6506,-0.6619,-0.6535,-0.6405,-0.6502,-0.6242,-0.579,-0.6012,-0.5821,-0.5566,-0.5559,-0.5454,0.0,0.0,-0.5569,-0.5599,-0.5752,-0.5789,-0.5793,-0.58,-0.58,-0.58,-0.5803,-0.5803,-0.5909,-0.6173,-0.5901,-0.5734,-0.6236,0.0,-0.5891,-0.6061,-0.6079,-0.6004,-0.5871,-0.5803,-0.5803,-0.5803,-0.5793,-0.5735,-0.5599,-0.5583,-0.5511,-0.5425,-0.5213,-0.5128,-0.5121,-0.4982,-0.484,-0.4694,-0.4564,0.0,0.0,0.0,0.0,0.0,0.0,0.0,0.0,0.0,0.0,0.0,0.0,0.0,0.0,0.0,0.0,0.0,0.0,0.0,0.0,0.0,0.0,0.0,0.0,0.0,0.0,0.0,0.0,-0.9349,-0.9993,0.0,-1.0704,-1.0828,-1.107,-1.1487,-1.1626,-1.1926,-1.2467,-1.2599,-1.2811,-1.314,-1.3148,-1.3206,-1.3323,-1.3323,-1.3382,-1.3492,-1.3346,-1.3273,-1.3193,-1.29,-1.2691,-1.2449,-1.1883,-1.1354,-1.096,-1.0566,-1.0013,-0.9221,-0.8735,-0.8042,-0.7398,-0.696,-0.667,-0.6514,-0.6362,-0.6133,-0.5948,-0.5933,-0.584,-0.5725,-0.5725,-0.5688,-0.5677,-0.583,-0.5874,-0.5908,-0.6057,-0.6098,-0.6098,-0.6098,-0.6098,-0.6098,-0.6098,-0.6098,-0.6187,-0.6242,-0.6005,-0.5759,-0.5933,-0.5864,-0.5844,-0.6002,-0.6026,-0.606,-0.6084,-0.6098,-0.6098,-0.6098,-0.6006,-0.5928,-0.5878,-0.5698,-0.5566,-0.5511,-0.5229,-0.5078,-0.5078,-0.4814,-0.4615,-0.4531,-0.4265,-0.4035,0.0,0.0,0.0,0.0,0.0,0.0,0.0,0.0,0.0,0.0,0.0,0.0,0.0,0.0,0.0,0.0,0.0,0.0,0.0,0.0,0.0,0.0,0.0,0.0,0.0,-0.8423,-0.8821,-0.9339,-1.0068,-1.0759,-1.1216,-1.1436,-1.1743,-1.2167,-1.2299,-1.2555,-1.2987,-1.3111,-1.3323,-1.3653,-1.366,-1.3711,-1.3821,-1.3746,-1.3746,-1.3821,-1.3515,-1.3433,-1.3358,-1.2743,-1.2365,-1.2296,-1.1294,-1.0682,-1.0451,-0.9906,-0.9356,-0.8832,-0.8548,-0.812,-0.7651,-0.7186,-0.6864,-0.6548,-0.6257,-0.6184,-0.611,-0.6033,-0.5989,-0.6027,-0.6027,-0.6064,-0.6125,-0.6227,-0.622,-0.6203,-0.6305,-0.6295,-0.6338,-0.6338,-0.6338,-0.6338,-0.6338,-0.6338,-0.6274,-0.6322,-0.6129,-0.5969,-0.602,-0.6027,-0.6061,-0.6162,-0.6179,-0.6196,-0.6254,-0.6338,-0.6338,-0.6338,-0.6169,-0.6064,-0.5962,-0.5772,-0.5616,-0.545,-0.5209,-0.5087,-0.5024,-0.4761,-0.4559,-0.4421,-0.4112,-0.3872,-0.3694,0.0,0.0,0.0,0.0,0.0,0.0,0.0,0.0,0.0,0.0,0.0,0.0,0.0,0.0,0.0,0.0,0.0,0.0,0.0,0.0,0.0,0.0,0.0,-0.7687,-0.8025,-0.8519,-0.9427,-1.0091,-1.0758,-1.1541,-1.2167,-1.2473,-1.2548,-1.2848,-1.3031,-1.3038,-1.3338,-1.366,-1.3989,-1.3996,-1.415,-1.4465,-1.4223,-1.4223,-1.4465,-1.3981,-1.3817,-1.3738,-1.2606,-1.1976,-1.1668,-1.0756,-0.9948,-0.9236,-0.9141,-0.8569,-0.773,-0.8411,-0.8034,-0.72,-0.72,-0.6964,-0.6578,-0.6352,-0.6274,-0.6274,-0.6274,-0.6369,-0.6478,-0.6478,-0.6583,-0.6702,-0.6702,-0.6593,-0.6478,-0.6478,-0.6376,-0.6274,-0.6274,-0.6274,-0.6274,-0.6274,-0.6274,-0.6315,-0.6454,-0.6369,-0.6318,-0.6458,-0.6478,-0.6478,-0.6478,-0.6478,0.0,-0.6285,-0.6268,-0.6264,-0.6261,-0.6261,-0.6139,-0.584,-0.5806,-0.5607,-0.5119,-0.5093,-0.5024,-0.4837,-0.4643,-0.4508,-0.4372,-0.4124,-0.394,-0.3872,0.0,0.0,0.0,0.0,0.0,0.0,0.0,0.0,0.0,0.0,0.0,0.0,0.0,0.0,0.0,0.0,0.0,0.0,0.0,0.0,0.0,-0.7128,-0.7327,-0.75,-0.7921,-0.8343,-0.8771,-0.9526,-1.0419,-1.1662,-1.1922,-1.2325,-1.3135,-1.3309,-1.3462,-1.3704,-1.3799,-1.3996,-1.4326,-1.4171,-1.4214,-1.4472,-1.4059,-1.3981,-1.4216,-1.3817,-1.3252,-1.2527,-1.2062,-1.1496,-1.0756,-0.9782,-0.9332,-0.9131,-0.8132,-0.7624,-0.7504,-0.7858,-0.7712,-0.723,-0.7145,-0.6901,-0.6661,-0.658,-0.658,-0.658,-0.658,-0.6607,-0.6637,-0.6637,-0.6668,-0.6702,-0.6702,-0.6671,-0.6637,-0.6637,-0.661,-0.658,-0.658,-0.658,-0.658,-0.658,-0.658,-0.659,-0.663,-0.6443,-0.6352,-0.663,-0.6637,-0.6637,-0.6637,-0.6476,-0.6345,-0.6198,-0.6096,-0.5975,-0.6032,-0.6018,-0.5989,-0.5907,-0.5708,-0.5487,-0.5188,-0.4931,-0.4733,-0.4697,-0.4594,-0.4451,-0.433,-0.4143,-0.399,0.0,0.0,0.0,0.0,0.0,0.0,0.0,0.0,0.0,0.0,0.0,0.0,0.0,0.0,0.0,0.0,0.0,0.0,0.0,0.0,0.0,0.0,-0.6991,-0.7354,-0.7451,-0.7695,-0.8068,-0.8548,-0.927,-1.0154,-1.1184,-1.1389,-1.1747,-1.2439,-1.2526,-1.2655,-1.2878,-1.2891,-1.3088,-1.352,-1.328,-1.3326,-1.3622,-1.3127,-1.3039,-1.3202,-1.2801,-1.2386,-1.1881,-1.1321,-1.0741,-1.0143,-0.911,-0.8768,-0.877,-0.7825,-0.7373,-0.7373,0.0,0.0,0.0,0.0,-0.663,-0.6607,-0.6607,-0.6647,-0.6702,-0.6702,-0.6746,-0.6797,-0.6797,-0.6837,-0.6885,-0.6885,-0.6841,-0.6797,-0.6797,-0.6749,-0.6702,-0.6536,-0.6536,-0.6536,-0.645,-0.6367,-0.6386,-0.6447,-0.6376,0.0,-0.6534,-0.6496,-0.646,-0.646,-0.6376,-0.6241,-0.61,-0.5997,-0.5863,-0.5887,-0.5868,-0.5824,-0.5711,-0.5554,0.0,0.0,0.0,-0.466,-0.461,-0.4541,0.0,0.0,0.0,0.0,0.0,-0.4306,0.0,0.0,-0.4322,-0.4365,0.0,0.0,0.0,0.0,0.0,0.0,0.0,0.0,0.0,0.0,0.0,0.0,0.0,0.0,0.0,0.0,-0.6799,-0.7307,-0.748,-0.7532,-0.7888,-0.8638,-0.9135,-0.9752,-1.046,-1.0825,-1.1037,-1.1111,-1.1135,-1.1193,-1.1367,-1.1486,0.0,0.0,0.0,-1.2015,-1.2237,-1.1901,-1.1735,-1.1986,-1.1488,-1.1402,-1.1477,-1.0371,-0.9859,-0.9671,-0.8683,-0.8272,-0.8272,-0.7804,-0.7472,-0.7286,-0.6942,-0.6765,-0.6617,-0.6386,-0.639,-0.6498,-0.6498,0.0,0.0,-0.6702,-0.6793,-0.6902,-0.6902,-0.7004,-0.7115,-0.7115,-0.7037,-0.6953,-0.6867,-0.6766,-0.6669,-0.6334,-0.6334,-0.6251,-0.608,-0.6077,-0.6114,-0.6239,-0.6174,-0.621,-0.6322,-0.625,-0.626,-0.626,-0.6174,-0.6126,-0.599,-0.5972,-0.5921,-0.5785,-0.577,0.0,-0.5424,-0.5388,-0.5247,-0.4901,-0.4896,-0.477,-0.4515,-0.4523,-0.4526,-0.4512,-0.451,-0.4558,-0.4726,-0.474,-0.4745,-0.4742,-0.4548,-0.4564,0.0,0.0,0.0,0.0,0.0,0.0,0.0,0.0,0.0,0.0,0.0,0.0,0.0,0.0,0.0,-0.6689,-0.7021,-0.7354,-0.7669,-0.7862,-0.8112,-0.8471,-0.8408,-0.8846,-0.9958,-1.0115,-1.0363,-1.1037,-1.1229,-1.1379,-1.1476,-1.1861,-1.204,-1.2082,-1.2014,-1.2037,-1.2072,-1.1574,-1.1488,-1.1729,-1.1488,0.0,-1.0202,-1.0028,-0.9515,-0.8807,-0.8295,-0.807,-0.8005,-0.7301,-0.6809,-0.6523,-0.6704,-0.6695,-0.6695,-0.6614,-0.663,-0.6658,-0.6658,-0.6675,-0.6702,-0.6702,-0.6719,-0.6746,-0.6746,-0.6851,0.0,-0.697,-0.7034,-0.7011,-0.6841,-0.6819,-0.6711,-0.6443,-0.6355,-0.6355,-0.6355,-0.6352,-0.6361,-0.6389,-0.6219,-0.6142,-0.6166,-0.6236,-0.6392,-0.6392,-0.6219,-0.6087,-0.5955,-0.5769,-0.5639,-0.5681,-0.5753,-0.5688,-0.5533,-0.5344,-0.5155,-0.4806,-0.48,-0.479,-0.4765,-0.4857,-0.4866,-0.4765,-0.4765,-0.4727,-0.4726,-0.4751,-0.48,-0.4798,-0.4673,-0.4735,0.0,0.0,0.0,0.0,0.0,0.0,0.0,0.0,0.0,0.0,0.0,-0.5516,-0.5865,0.0,-0.6614,-0.688,-0.718,-0.7521,-0.7872,-0.7834,-0.7924,-0.8354,-0.8396,-0.862,-0.9216,-0.9311,-0.9458,-0.983,-1.0126,-1.0206,-1.0272,-1.06,-1.0747,-1.0621,-1.0549,-1.0458,-1.0453,-1.0115,-1.0033,-1.0111,-1.0033,-0.9689,-0.9253,-0.9152,-0.8767,-0.8237,-0.7875,-0.7605,-0.7503,-0.7003,-0.6563,-0.6274,-0.6424,-0.6481,-0.6481,-0.6481,-0.6525,-0.6586,-0.6586,-0.6637,-0.6702,-0.6702,-0.6615,-0.6529,-0.6529,-0.6502,-0.6476,-0.6476,-0.6525,-0.6595,-0.6583,-0.6514,-0.653,-0.6331,-0.6257,-0.6257,-0.608,-0.6083,-0.6083,-0.6083,-0.5997,-0.5908,-0.5908,-0.5994,-0.6083,-0.6083,-0.5997,-0.5885,-0.5824,-0.564,-0.5597,-0.5559,-0.5633,-0.5583,-0.5454,-0.5328,-0.5151,-0.5015,-0.4955,-0.4925,-0.4925,-0.4985,-0.5015,-0.501,-0.501,-0.501,-0.509,-0.5072,-0.5102,-0.5099,-0.504,-0.5045,0.0,0.0,0.0,0.0,0.0,0.0,0.0,0.0,-0.5015,-0.5306,-0.551,-0.5776,-0.6078,-0.6423,-0.6665,-0.6899,-0.7228,-0.7593,-0.7966,-0.773,-0.7725,-0.8274,-0.8481,-0.8595,-0.8637,-0.868,-0.8703,-0.8703,-0.8824,-0.8936,-0.8855,-0.9059,-0.9177,-0.9109,-0.8943,-0.889,-0.8874,-0.8705,-0.8633,-0.867,-0.867,-0.867,-0.8666,-0.8511,-0.8237,-0.7982,-0.7516,-0.7172,-0.6979,-0.6691,-0.6412,-0.6338,-0.6338,-0.6338,-0.6338,-0.6338,-0.6332,-0.643,-0.643,-0.6512,-0.6532,-0.6532,-0.6447,-0.628,-0.628,-0.6138,-0.608,-0.608,-0.6099,-0.6145,-0.6175,-0.6202,-0.615,-0.6016,-0.596,-0.5965,-0.5727,-0.5733,-0.5733,-0.5733,-0.5733,-0.5733,-0.5733,-0.5733,-0.5733,-0.5733,-0.5733,-0.5733,-0.5733,-0.5733,-0.5695,-0.551,-0.5499,-0.5537,-0.5415,-0.5292,-0.5222,-0.5222,-0.5135,-0.5086,-0.5086,-0.5086,-0.5129,-0.5219,-0.5222,-0.5271,-0.5368,-0.5368,-0.5368,-0.5368,-0.5393,-0.5352,-0.2766,-0.3415,-0.3846,-0.3975,-0.4115,-0.4294,0.0,0.0,-0.5258,-0.5482,-0.5719,-0.5908,-0.6145,-0.6325,-0.6523,-0.6824,-0.706,-0.7348,-0.7782,-0.7773,-0.7839,-0.8085,-0.8136,-0.8222,-0.8415,-0.8595,-0.8703,-0.8703,-0.8751,-0.8638,-0.8493,-0.8688,-0.8634,-0.8398,-0.8572,-0.8727,-0.8787,-0.8792,-0.8873,-0.9039,-0.9039,-0.9039,-0.9039,-0.8729,-0.8458,-0.8146,-0.7241,-0.6799,-0.6666,-0.6419,-0.6338,-0.6338,-0.6338,-0.6338,-0.6338,-0.6338,-0.6271,-0.6285,-0.6285,-0.6213,-0.5986,-0.5986,-0.5833,-0.568,-0.568,-0.5762,-0.5935,-0.5935,-0.6021,-0.604,-0.5808,-0.573,-0.5759,-0.5628,-0.557,-0.56,-0.5708,-0.5733,-0.5733,-0.5733,-0.5733,-0.5733,-0.5733,-0.5733,-0.5733,-0.5733,-0.5733,-0.5733,-0.5733,-0.5733,-0.5727,-0.5714,-0.5711,-0.5662,-0.554,-0.542,-0.5349,-0.5349,-0.5336,-0.533,-0.533,-0.533,-0.5336,-0.5349,-0.5349,-0.5355,-0.5368,-0.5368,-0.5368,-0.5371,-0.548,-0.5523,-0.2985,-0.3478,-0.3756,-0.4034,-0.4267,-0.4484,-0.4819,-0.4984,-0.517,-0.567,-0.5856,-0.597,-0.6274,-0.65,-0.6724,-0.6868,-0.7138,-0.747,-0.7749,-0.7669,-0.7673,-0.7881,-0.8009,-0.8165,-0.8382,-0.8407,-0.843,-0.8542,-0.8512,-0.8467,-0.8229,-0.8414,-0.8442,-0.8284,-0.848,-0.8656,-0.882,-0.8926,-0.8966,-0.8938,-0.9047,-0.8946,-0.8658,-0.8461,-0.8047,-0.7466,-0.6936,-0.6735,-0.6676,-0.6596,-0.6515,-0.6515,-0.6515,-0.6515,-0.6495,-0.6325,-0.6338,-0.6261,-0.6099,-0.6018,-0.5864,-0.5789,-0.5556,-0.5401,-0.5401,-0.5439,-0.5404,-0.5404,-0.5442,-0.5422,-0.5409,-0.5485,-0.5485,-0.5521,-0.5518,-0.567,-0.5722,-0.5733,-0.5733,-0.5733,-0.5733,-0.5733,-0.5733,-0.5733,-0.5733,-0.5733,-0.5733,-0.5733,-0.5733,-0.5733,-0.5733,-0.5733,-0.5733,-0.5711,-0.5662,-0.5545,-0.5474,-0.5474,-0.5409,-0.5368,-0.5368,-0.5368,-0.5404,-0.5474,-0.5219,-0.5079,-0.514,-0.4882,-0.4795,-0.4795,-0.4752,-0.477,-0.3003,-0.3355,-0.363,-0.4024,-0.4301,-0.4504,-0.4775,-0.4868,-0.506,-0.5647,-0.5805,-0.6002,-0.6319,-0.6645,-0.6881,-0.6881,-0.7204,-0.7513,-0.7669,-0.7621,-0.7602,-0.7754,-0.791,-0.8103,-0.8373,-0.8305,-0.8323,-0.8389,-0.838,-0.823,-0.7998,-0.8129,-0.8122,-0.8138,-0.8369,-0.8597,-0.882,-0.9051,-0.91,-0.897,-0.9011,-0.8885,-0.8432,-0.8124,-0.7631,-0.6979,-0.6819,-0.6702,-0.6702,-0.6702,-0.6702,-0.6702,-0.6702,-0.6702,-0.6675,-0.6381,-0.6356,-0.6318,-0.6081,-0.5895,-0.5789,-0.5556,-0.5401,-0.5246,-0.5246,-0.509,-0.5018,-0.5018,-0.5018,-0.5034,-0.5118,-0.5205,-0.5303,-0.5423,-0.5518,-0.5602,-0.5667,-0.5684,-0.5692,-0.5727,-0.5733,-0.5733,-0.5733,-0.5733,-0.5733,-0.5733,-0.5733,-0.5733,-0.5733,-0.5733,-0.5733,-0.5733,-0.5733,-0.5733,-0.5733,-0.5651,-0.5515,-0.5515,-0.5518,-0.5384,-0.5297,-0.5297,-0.5251,-0.516,-0.4814,-0.4676,-0.4832,-0.4478,-0.43,-0.43,-0.43,-0.4312,-0.2577,-0.3079,-0.3524,-0.3913,-0.4079,-0.4287,-0.4657,-0.4861,-0.5082,-0.5374,-0.5662,-0.5962,-0.6156,-0.6488,-0.6741,-0.6881,-0.7073,-0.7269,-0.7466,-0.7526,-0.7602,-0.7754,-0.7787,-0.7952,-0.8363,-0.8581,-0.8618,-0.8403,-0.8183,-0.8038,-0.7812,-0.7654,-0.7586,-0.7772,-0.8117,-0.8467,-0.8816,-0.9169,-0.9344,-0.934,-0.9156,-0.8874,-0.8687,-0.7911,-0.7408,-0.7109,-0.6824,-0.6702,-0.6702,-0.6702,-0.6702,-0.6702,-0.6702,-0.6702,-0.6698,-0.6363,-0.6352,-0.6464,-0.6231,-0.5905,-0.5559,-0.5398,-0.5168,-0.5018,-0.5018,-0.5018,-0.5018,-0.5018,-0.5018,-0.5018,-0.5021,-0.5026,-0.5056,-0.517,-0.52,-0.5268,-0.5504,-0.547,-0.5505,-0.5711,-0.5733,-0.5733,-0.5733,-0.5733,-0.5733,-0.5733,-0.5733,-0.5733,-0.5733,-0.5733,-0.5733,-0.5733,-0.5733,-0.5733,-0.5733,-0.573,-0.5727,-0.5727,-0.5725,-0.5453,-0.5001,-0.5001,-0.4823,-0.4385,-0.4295,-0.4295,-0.43,-0.43,-0.43,-0.43,-0.43,-0.4346,-0.1454,-0.2124,-0.2792,-0.3411,-0.3913,-0.4284,-0.4538,-0.4687,-0.4907,-0.531,-0.5593,-0.5895,-0.6278,-0.6621,-0.6876,-0.7073,-0.7265,-0.7396,-0.7521,-0.765,-0.7697,-0.7773,-0.8023,-0.825,-0.8392,-0.8319,-0.8266,-0.8246,-0.803,-0.7799,-0.7642,-0.7561,-0.7569,-0.7832,-0.8105,-0.8406,-0.8649,-0.9007,-0.912,-0.8999,-0.8637,-0.8328,-0.8077,-0.7615,-0.7331,-0.7136,-0.7034,-0.6993,-0.6993,-0.6993,-0.6993,-0.6993,-0.6993,-0.6907,-0.6737,-0.6653,-0.6474,-0.6257,-0.6004,-0.5779,-0.5647,-0.5314,-0.5209,-0.5116,-0.504,-0.5018,-0.5018,-0.5018,-0.5018,-0.5018,-0.5018,-0.5135,-0.5241,-0.5197,-0.5309,-0.5428,-0.5431,-0.5494,-0.5478,-0.5518,-0.5678,-0.5733,-0.5733,-0.5733,-0.5733,-0.5733,-0.5733,-0.5733,-0.5733,-0.5733,-0.5733,-0.5733,-0.5733,-0.5552,-0.528,-0.528,-0.5102,-0.4835,-0.4748,-0.4656,-0.4565,-0.4565,-0.4476,-0.43,-0.4032,-0.3855,-0.3855,-0.3497,-0.3409,-0.3411,-0.3455,-0.3489,-0.067,-0.1284,-0.1953,-0.2798,-0.3355,-0.3819,-0.4362,-0.4592,-0.4718,-0.5114,-0.5445,-0.5759,-0.6199,-0.6566,-0.6954,-0.7224,-0.7447,-0.7574,-0.7726,-0.774,-0.7834,-0.7985,-0.8236,-0.8429,-0.85,-0.8291,-0.8196,-0.8093,-0.7953,-0.7795,-0.7484,-0.7484,-0.7569,-0.7832,-0.8105,-0.8381,-0.8564,-0.8917,-0.8914,-0.8552,-0.8133,-0.7743,-0.7555,-0.7379,-0.7234,-0.7139,-0.7139,-0.7139,-0.7139,-0.7139,-0.7051,-0.6966,-0.6966,-0.6877,-0.6612,-0.6615,-0.6386,-0.6118,-0.5902,-0.5745,-0.5613,-0.5361,-0.5252,-0.5238,-0.5165,-0.5143,-0.5135,-0.5091,-0.5108,-0.5132,-0.5089,-0.5254,-0.5404,-0.5281,-0.5404,-0.5529,-0.5453,-0.5494,-0.5464,-0.5464,-0.5648,-0.5733,-0.5733,-0.5589,-0.5538,-0.558,-0.537,-0.533,-0.5649,-0.5733,-0.5644,-0.5463,-0.5463,-0.5282,-0.4832,-0.4743,-0.4654,-0.43,-0.43,-0.421,-0.4032,-0.4032,-0.3942,-0.3765,-0.3497,-0.332,-0.332,-0.3074,-0.2905,-0.2906,-0.2963,-0.3003,-0.0167,-0.0614,-0.1115,-0.2127,-0.2516,-0.2961,-0.415,-0.4415,-0.4503,-0.4752,-0.5043,-0.5434,-0.5958,-0.6392,-0.6852,-0.7432,-0.7545,-0.7693,-0.8023,-0.7924,-0.7962,0.0,0.0,0.0,0.0,-0.8551,-0.8327,-0.8102,-0.8102,-0.7953,-0.7573,-0.7496,-0.7581,-0.7768,-0.8109,-0.8377,-0.8552,-0.8897,-0.8706,-0.8091,-0.7667,-0.7326,-0.7139,-0.7139,-0.7139,-0.7139,-0.7139,-0.7051,-0.7054,-0.7054,-0.6966,-0.6795,-0.6795,-0.6612,-0.6343,-0.6171,-0.6083,-0.6065,-0.5941,-0.5823,-0.5644,-0.5466,-0.5379,-0.5377,-0.5371,-0.5368,-0.5347,-0.5235,-0.529,-0.5355,-0.5243,-0.539,-0.5537,-0.5417,-0.548,-0.548,-0.5475,-0.5478,-0.548,-0.5475,-0.5569,-0.5654,-0.566,-0.5388,-0.5213,-0.5218,-0.4778,-0.4684,-0.5489,-0.5652,-0.5471,-0.5018,-0.4928,-0.475,-0.4306,-0.4306,-0.4214,-0.421,-0.421,-0.4032,-0.3587,-0.3588,-0.332,-0.2875,-0.2875,-0.2876,-0.2879,-0.2932,-0.2959,-0.2965,-0.3025,-0.3085,0.0887,-0.0,-0.0922,-0.1557,-0.1902,-0.225,-0.2998,-0.338,-0.3589,-0.3614,-0.3773,-0.4216,-0.5255,-0.5876,-0.6498,-0.7391,-0.7754,0.0,-0.8066,-0.8174,0.0,-0.8392,0.0,-0.8642,-0.8699,-0.8627,-0.8475,-0.8102,-0.7953,-0.7863,-0.7762,-0.7691,-0.7768,-0.7943,-0.817,-0.8312,-0.8361,-0.8404,-0.8135,-0.7652,-0.7524,-0.7326,-0.7139,-0.7139,-0.7139,-0.7139,-0.7139,-0.7054,-0.6881,-0.6881,-0.67,-0.652,-0.652,-0.6346,-0.6171,-0.6083,-0.5997,-0.5816,-0.5786,-0.5755,-0.5714,-0.5534,-0.5504,-0.5488,-0.5398,-0.5368,-0.5382,-0.5442,-0.548,-0.5518,-0.5578,-0.5703,-0.5784,-0.5667,-0.5727,-0.579,-0.5706,-0.5394,-0.5158,-0.5164,-0.4878,-0.4791,-0.4771,-0.471,-0.4639,-0.4662,-0.4551,-0.4504,-0.4689,-0.4767,-0.4676,-0.4582,-0.4582,-0.44,-0.3855,-0.3853,-0.3648,-0.3325,-0.323,-0.3232,-0.3053,-0.3053,-0.3053,-0.2875,-0.2875,-0.2895,-0.2936,-0.2951,-0.2981,-0.3122,-0.3089,-0.3125,0.1443,0.0711,-0.0107,-0.0722,-0.0961,-0.1316,-0.2239,-0.2723,-0.3096,-0.3336,-0.3457,-0.3882,-0.4938,-0.5413,-0.6057,0.0,0.0,0.0,-0.8316,-0.8382,-0.8434,0.0,-0.8633,0.0,-0.8703,-0.8551,-0.8327,-0.8102,-0.803,-0.788,-0.7832,-0.784,-0.7874,-0.8126,-0.8235,-0.8325,-0.8233,-0.7979,-0.7768,-0.7507,-0.7415,-0.7234,-0.7139,-0.7139,-0.7139,-0.7139,-0.7139,-0.7054,-0.6969,-0.6792,-0.6612,-0.6428,-0.6343,-0.6169,-0.5908,-0.5908,-0.5822,-0.5733,-0.5733,-0.5733,-0.5722,-0.5654,-0.5629,-0.5619,-0.5551,-0.5529,-0.5542,-0.561,-0.5629,-0.5657,-0.5776,-0.5896,-0.5966,-0.5901,-0.5977,-0.6032,-0.5915,-0.566,-0.5498,-0.516,-0.4702,-0.4475,-0.4606,-0.4403,-0.4214,-0.4287,-0.4075,-0.3844,-0.3801,-0.4145,-0.44,-0.4118,-0.4118,-0.3933,-0.3468,-0.3468,-0.3266,-0.3046,-0.2951,-0.2951,-0.2951,-0.2925,-0.2912,-0.2912,-0.2912,-0.2926,-0.2958,-0.3012,-0.3055,-0.309,-0.3151,-0.318,0.1538,0.1137,0.064,0.011,-0.0114,-0.0522,-0.17,-0.2229,-0.2656,-0.3299,-0.3505,-0.3818,-0.4703,-0.5001,-0.5545,-0.6823,0.0,-0.7394,-0.8468,-0.8477,-0.8505,-0.8604,-0.8623,-0.8703,-0.8703,-0.8403,-0.8178,-0.8102,-0.8102,-0.8043,-0.786,-0.7793,-0.7959,-0.8316,-0.8325,-0.8311,-0.8201,-0.7768,-0.7507,-0.7415,-0.7231,-0.7139,-0.7139,-0.7139,-0.7139,-0.7139,-0.7051,-0.7051,-0.6962,-0.6792,-0.6526,-0.6254,-0.6083,-0.5908,-0.5733,-0.5733,-0.5733,-0.5733,-0.5733,-0.5733,-0.5733,-0.5733,-0.5733,-0.5733,-0.5733,-0.5733,-0.5735,-0.5752,-0.5757,-0.5782,-0.5896,-0.6018,-0.6016,-0.6111,-0.6203,-0.6166,-0.6059,-0.5918,-0.5611,-0.5138,-0.4589,-0.4305,-0.4475,-0.4057,-0.3774,-0.3912,-0.3482,-0.3151,-0.3151,-0.3776,-0.4111,-0.3726,-0.3726,-0.3536,-0.3157,-0.3061,-0.3057,-0.3144,-0.3144,-0.3144,-0.3144,-0.2997,-0.297,-0.297,-0.297,-0.2974,-0.2982,-0.3087,-0.3143,-0.3153,-0.3206,-0.323,0.0718,0.0409,0.0051,-0.0,-0.0386,-0.0853,-0.1337,-0.1443,0.0,0.0,-0.2357,-0.2655,-0.3801,-0.4327,-0.5075,-0.6593,-0.7121,-0.747,-0.788,-0.8367,-0.8509,0.0,-0.8394,-0.8703,-0.8703,-0.8627,-0.8479,-0.8102,-0.8102,-0.8099,-0.7951,-0.7967,-0.8138,-0.8507,-0.8519,-0.8356,-0.794,-0.7856,-0.7588,-0.7143,-0.7139,-0.7139,-0.7139,-0.7139,-0.7139,-0.7051,-0.6969,-0.67,-0.652,-0.6349,-0.6086,-0.5822,-0.5822,-0.5733,-0.5733,-0.5733,-0.5733,-0.5733,-0.5733,-0.5733,-0.5733,-0.5733,-0.5733,-0.5733,-0.5733,-0.5733,-0.5754,-0.5847,-0.5874,-0.5901,-0.6024,-0.5857,-0.5751,-0.6141,-0.6028,-0.5705,-0.5686,-0.496,-0.4093,-0.3618,-0.3374,-0.3276,-0.3409,-0.3325,-0.3245,-0.332,-0.3221,-0.3214,-0.3214,-0.3259,-0.3319,-0.3222,-0.3222,-0.322,-0.3124,-0.3124,-0.3102,-0.3053,-0.3144,-0.3144,-0.3144,-0.3133,-0.3127,-0.3127,-0.3127,-0.3059,-0.3108,-0.3129,-0.3165,-0.3215,-0.3226,-0.323,-0.0258,-0.0409,-0.0509,-0.0686,-0.0831,-0.1036,-0.1493,0.0,0.0,0.0,-0.2488,-0.2738,-0.363,-0.401,0.0,-0.6404,-0.6764,-0.7172,-0.8236,-0.8463,-0.8506,-0.8309,-0.8546,-0.8703,-0.8703,-0.8627,-0.8403,-0.8102,-0.803,-0.7918,-0.787,-0.7963,-0.8182,-0.8556,-0.8297,-0.8028,-0.7944,-0.7584,-0.7319,-0.7139,-0.7139,-0.7139,-0.7139,-0.7139,-0.7139,-0.7051,-0.6881,-0.6704,-0.6612,-0.626,-0.5997,-0.5908,-0.5733,-0.5733,-0.5733,-0.5733,-0.5733,-0.5733,-0.5733,-0.5733,-0.5733,-0.5733,-0.5733,-0.5733,-0.5733,-0.5733,-0.5757,-0.5871,-0.586,-0.5764,-0.5758,-0.5516,-0.5337,-0.5489,-0.525,-0.5074,-0.5117,-0.4466,-0.3752,-0.3473,-0.3112,-0.2916,-0.3067,-0.3067,-0.3087,-0.3211,-0.323,-0.323,-0.323,-0.3206,-0.3187,-0.3187,-0.3187,-0.3187,-0.3187,-0.3187,-0.3174,-0.3146,-0.3143,-0.3143,-0.3143,-0.3113,-0.3097,-0.3097,-0.3097,-0.311,-0.3139,-0.3172,-0.3202,-0.323,-0.323,-0.323,-0.1099,-0.109,-0.1079,-0.1322,-0.1228,-0.1216,-0.1745,-0.177,0.0,-0.2753,-0.2961,-0.3186,-0.3685,-0.3937,-0.4569,0.0,-0.6454,-0.6819,-0.8365,-0.8612,-0.8551,0.0,-0.8627,0.0,-0.8703,-0.8551,-0.8327,-0.8025,-0.7718,-0.7647,-0.7827,-0.7792,-0.795,-0.8412,-0.7759,-0.7404,-0.7534,-0.7061,-0.6708,-0.6471,-0.6471,-0.6577,-0.6786,-0.6786,-0.6874,-0.7054,-0.6792,-0.6704,-0.6618,-0.6171,-0.5994,-0.5997,-0.5822,-0.5733,-0.5733,-0.5733,-0.5733,-0.5733,-0.5733,-0.5733,-0.5733,-0.5733,-0.5735,-0.5735,-0.5733,-0.5625,-0.5539,-0.5652,-0.551,-0.5384,-0.5213,-0.5032,-0.4827,-0.4549,-0.4542,-0.4496,-0.4424,-0.3937,-0.3557,-0.3542,-0.3192,-0.2835,-0.3001,-0.3001,-0.3035,-0.3204,-0.323,-0.323,-0.323,-0.323,-0.323,-0.323,-0.323,-0.323,-0.323,-0.323,-0.323,-0.323,-0.323,-0.323,-0.323,-0.3184,-0.3159,-0.3159,-0.3159,-0.3159,-0.3159,-0.3207,-0.323,-0.323,-0.323,-0.323,-0.1687,-0.1608,-0.1593,-0.1384,-0.1317,-0.1408,-0.1849,0.0,-0.2191,-0.291,-0.3244,-0.3466,-0.3741,-0.3919,-0.4569,-0.6307,-0.6598,-0.6806,-0.7479,-0.8612,-0.8916,-0.7468,0.0,0.0,-0.8703,-0.8703,-0.8399,-0.7638,-0.7173,-0.725,-0.7752,-0.7326,-0.7336,-0.7975,-0.71,-0.6494,-0.6153,-0.6039,-0.5445,-0.451,-0.451,-0.4908,-0.5808,-0.5808,-0.6166,-0.6792,-0.6523,-0.6343,-0.6171,-0.5819,-0.5733,-0.5733,-0.5733,-0.5733,-0.5733,-0.5733,-0.5733,-0.5733,-0.5733,-0.5733,-0.5733,-0.5733,-0.5738,-0.5744,-0.5735,-0.5303,-0.4809,-0.4996,-0.4685,-0.4374,-0.4387,-0.4106,-0.3903,-0.398,-0.3891,-0.3787,-0.378,-0.328,-0.287,-0.2813,-0.2838,-0.2823,-0.2946,-0.3102,-0.3085,-0.3211,-0.323,-0.323,-0.323,-0.323,-0.323,-0.323,-0.323,-0.323,-0.323,-0.323,-0.323,-0.323,-0.323,-0.323,-0.323,-0.3225,-0.3222,-0.3222,-0.3222,-0.3222,-0.3222,-0.3228,-0.323,-0.323,-0.323,-0.323,-0.2303,-0.2107,-0.2022,-0.2076,-0.1968,-0.2017,-0.2687,0.0,-0.2738,-0.3463,-0.3633,-0.3744,-0.3965,-0.4405,-0.5193,-0.6755,-0.6976,0.0,-0.859,-0.8997,-0.9117,-0.8878,-0.9316,-0.9596,-0.9344,-0.9163,-0.8708,-0.7944,-0.7092,-0.6732,-0.6802,-0.652,-0.626,-0.6263,-0.6025,-0.569,-0.517,-0.5466,-0.5131,-0.4162,-0.4162,-0.4725,-0.57,-0.57,-0.6092,-0.6795,-0.652,-0.6257,-0.6083,-0.5822,-0.5733,-0.5733,-0.5733,-0.5733,-0.5733,-0.5733,-0.5733,-0.5733,-0.5733,-0.5733,-0.563,-0.5292,-0.5185,-0.5102,-0.5182,-0.4932,-0.4688,-0.4468,-0.4278,-0.4089,-0.3783,-0.3473,-0.3057,-0.3129,-0.3117,-0.3097,-0.3056,-0.2859,-0.2677,-0.2689,-0.2653,-0.268,-0.2875,-0.2898,-0.2941,-0.3098,-0.3153,-0.3176,-0.3176,-0.3176,-0.3189,-0.3226,-0.323,-0.323,-0.323,-0.323,-0.323,-0.323,-0.323,-0.323,-0.323,-0.323,-0.323,-0.323,-0.323,-0.323,-0.323,-0.323,-0.323,-0.323,-0.323,-0.323,-0.2915,-0.2752,-0.2591,-0.2645,-0.253,-0.2573,-0.3246,-0.335,-0.3514,-0.4128,-0.4346,-0.4508,-0.468,-0.5167,-0.5925,-0.7206,-0.7486,-0.7969,-0.9328,-0.9451,-0.9539,-0.9761,0.0,-0.9986,-0.9617,-0.9182,-0.8632,-0.8102,-0.7246,-0.6472,-0.5854,-0.5616,-0.5404,-0.5046,-0.4897,-0.4568,-0.4064,-0.4449,-0.4205,-0.3325,-0.3325,-0.3867,-0.4886,-0.5057,-0.5553,-0.6289,-0.6286,-0.6133,-0.5997,-0.5822,-0.5733,-0.5733,-0.5733,-0.5733,-0.573,-0.5692,-0.5681,-0.5676,-0.5638,-0.5627,-0.5523,-0.5178,-0.4874,-0.4681,-0.4594,-0.4376,-0.3997,-0.3936,-0.3777,-0.361,-0.3276,-0.2928,-0.2659,-0.2634,-0.2634,-0.2631,-0.2606,-0.2587,-0.2587,-0.2629,-0.2583,-0.2604,-0.2811,-0.2827,-0.2864,-0.3119,-0.3086,-0.3113,-0.3113,-0.3113,-0.3129,-0.3173,-0.3177,-0.3184,-0.3202,-0.3219,-0.3222,-0.3204,-0.3221,-0.323,-0.323,-0.323,-0.323,-0.323,-0.323,-0.323,-0.323,-0.323,-0.323,-0.323,-0.323,-0.323,-0.3683,-0.3519,-0.3299,-0.2961,-0.2903,-0.2961,-0.3302,-0.3901,-0.4498,-0.4842,-0.5492,-0.5982,-0.5982,-0.6195,-0.6648,-0.7555,-0.8034,-0.8514,-0.9136,-1.0009,-1.0373,0.0,-1.0132,-1.0143,-0.9402,-0.8399,-0.7863,-0.8102,-0.7565,-0.656,-0.5082,-0.4844,-0.4661,-0.461,-0.3728,-0.3083,-0.2757,-0.2619,-0.2146,-0.1303,-0.1303,-0.1894,-0.2854,-0.3439,-0.416,-0.5026,-0.5631,-0.5793,-0.5733,-0.5733,-0.5733,-0.5733,-0.5733,-0.5733,-0.5719,-0.551,-0.5464,-0.5534,-0.5415,-0.5374,-0.5374,-0.5371,-0.5043,-0.4546,-0.4063,-0.3251,-0.2614,-0.3255,-0.311,-0.2692,-0.2692,-0.2647,-0.2617,-0.2677,-0.26,-0.2529,-0.2589,-0.2553,-0.2512,-0.2512,-0.256,-0.264,-0.2763,-0.2834,-0.2913,-0.3126,-0.3144,-0.3144,-0.3144,-0.3144,-0.3146,-0.3146,-0.3146,-0.3075,-0.3135,-0.3195,-0.3204,-0.3144,-0.3196,-0.323,-0.323,-0.323,-0.323,-0.323,-0.323,-0.323,-0.323,-0.323,-0.323,-0.323,-0.323,-0.323,-0.4294,-0.4184,-0.4076,-0.3855,-0.3799,-0.391,-0.4453,-0.4673,-0.4948,-0.566,-0.5873,-0.6036,-0.6249,-0.6686,-0.7307,-0.8184,-0.8737,-0.9386,0.0,0.0,0.0,-1.0574,-1.0261,-0.9932,-0.9479,-0.8844,-0.8399,-0.8327,-0.7484,-0.6707,-0.6079,-0.5309,-0.4238,-0.2776,-0.2852,-0.2535,-0.1746,-0.2283,-0.2127,-0.1271,-0.1271,-0.1767,-0.2706,-0.3197,-0.3898,-0.4912,-0.5681,-0.5791,-0.5491,-0.5575,-0.5559,-0.5494,-0.5575,-0.5559,-0.548,-0.5439,-0.5426,-0.542,-0.5382,-0.5368,-0.5355,-0.4946,-0.4735,-0.4449,-0.3588,-0.3175,-0.2863,-0.2801,-0.2648,-0.2568,-0.2568,-0.2553,-0.2544,-0.2564,-0.2538,-0.2516,-0.2535,-0.2523,-0.2523,-0.2564,-0.2555,-0.2578,-0.27,-0.2737,-0.2777,-0.2856,-0.2936,-0.2986,-0.2986,-0.2986,-0.3003,-0.314,-0.3106,-0.3011,-0.3072,-0.3134,-0.3159,-0.314,-0.3196,-0.323,-0.323,-0.323,-0.323,-0.323,-0.323,-0.323,-0.323,-0.323,-0.323,-0.323,-0.323,-0.323,-0.4758,-0.4629,-0.4522,-0.4415,-0.4415,-0.4467,-0.4842,-0.5277,-0.5714,-0.6263,-0.6637,-0.6956,-0.7117,-0.7498,-0.8021,-0.863,-0.9202,-0.9813,0.0,0.0,0.0,-1.0756,-1.0214,-0.9739,-0.9448,-0.898,-0.866,-0.8294,-0.7672,-0.7092,-0.6542,-0.5851,-0.4688,-0.2978,-0.2898,-0.2429,-0.1335,-0.1805,-0.1805,-0.1335,-0.1335,-0.1582,-0.2163,-0.2724,-0.3,-0.3309,-0.4889,-0.5501,0.0,-0.5453,-0.5436,-0.5377,-0.5453,-0.5436,-0.5363,-0.5317,-0.5301,-0.5295,-0.5252,-0.5238,-0.5224,-0.4828,-0.4566,-0.4154,-0.3312,-0.2982,-0.2826,-0.2589,-0.2511,-0.2511,-0.2511,-0.2511,-0.2511,-0.2511,-0.2511,-0.2511,-0.2511,-0.2511,-0.2522,-0.2559,-0.2555,-0.257,-0.2644,-0.2677,-0.2713,-0.2774,-0.2846,-0.2901,-0.2924,-0.2926,-0.2941,-0.298,-0.295,-0.2941,-0.298,-0.3057,-0.3105,-0.3105,-0.3162,-0.3207,-0.323,-0.323,-0.323,-0.323,-0.323,-0.323,-0.323,-0.323,-0.323,-0.323,-0.323,-0.323,0.0,-0.4933,-0.4835,-0.4835,-0.4842,-0.4853,-0.4908,-0.5828,0.0,-0.6696,-0.7616,-0.8421,-0.8421,-0.8521,-0.8671,-0.8978,-0.9398,-0.9947,0.0,-1.0514,0.0,-1.0272,-0.9887,-0.9533,-0.9249,-0.8965,-0.8661,-0.8167,-0.8036,-0.76,-0.6678,-0.6377,-0.5841,-0.4766,-0.3832,-0.2665,-0.1414,-0.1335,-0.1335,-0.1335,-0.1335,-0.1335,-0.1335,-0.2041,-0.1746,-0.089,-0.348,-0.492,-0.5272,-0.5355,-0.5352,-0.5344,-0.5355,-0.5352,-0.533,-0.5216,-0.5173,-0.5159,-0.5053,-0.5018,-0.5018,-0.4937,-0.4389,-0.3686,-0.3217,-0.2826,-0.2511,-0.2511,-0.2511,-0.2511,-0.2511,-0.2511,-0.2511,-0.2511,-0.2511,-0.2511,-0.2511,-0.2511,-0.2511,-0.2511,-0.2556,-0.2595,-0.2595,-0.2646,-0.2704,-0.2762,-0.2774,-0.2797,-0.2854,-0.2865,-0.2868,-0.2868,-0.2871,-0.2875,-0.2875,-0.2978,-0.3137,-0.3137,-0.3104,-0.3165,-0.3221,-0.3229,-0.323,-0.323,-0.323,-0.323,-0.323,-0.323,-0.323,-0.323,-0.323,-0.323,-0.6096,0.0,-0.6129,-0.602,-0.6192,-0.6475,0.0,-0.7063,-0.7444,0.0,0.0,-0.8421,-0.8521,-0.8573,-0.8725,-0.9081,-0.9615,-1.0106,-1.0347,-1.0333,0.0,-1.0227,-0.9485,-0.9073,-0.914,-0.8589,-0.8227,-0.8084,-0.7848,-0.7574,-0.7488,-0.7127,-0.6507,-0.5386,-0.5154,-0.4219,-0.2429,-0.1649,-0.1335,-0.1335,-0.1335,-0.1335,-0.1257,-0.1099,-0.1417,-0.2055,-0.1421,-0.2691,-0.511,-0.5119,-0.5103,-0.5108,-0.5197,-0.5175,-0.5097,-0.5067,-0.5056,-0.5053,-0.5026,-0.5018,-0.4937,-0.4621,-0.3997,-0.3219,-0.3141,-0.2826,-0.2511,-0.2511,-0.2511,-0.2511,-0.2511,-0.2511,-0.2511,-0.2511,-0.2511,-0.2511,-0.2511,-0.2511,-0.2511,-0.2511,-0.2522,-0.2531,-0.2531,-0.2582,-0.2628,-0.2642,-0.2684,-0.2719,-0.2733,-0.2775,-0.2805,-0.2805,-0.2846,-0.2875,-0.2875,-0.2939,-0.298,-0.298,-0.308,-0.3146,-0.3161,-0.3206,-0.323,-0.323,-0.323,-0.323,-0.323,-0.323,-0.323,-0.323,-0.323,-0.323,-0.6726,-0.6616,-0.6576,-0.6519,-0.6739,-0.7074,-0.7289,0.0,0.0,0.0,0.0,0.0,-0.8692,-0.8633,-0.8764,-0.9316,-0.959,0.0,0.0,0.0,-1.0224,-1.0033,-0.9557,-0.9162,-0.8832,-0.8565,-0.8285,-0.8012,-0.7685,-0.757,-0.7671,-0.7317,-0.6884,-0.6366,-0.5835,-0.4788,-0.3285,-0.2741,-0.2429,-0.2429,-0.204,-0.1649,-0.1256,-0.1021,-0.1099,-0.1333,-0.1411,-0.188,-0.282,-0.4372,-0.5001,-0.5023,-0.5086,-0.5069,-0.5018,-0.5018,-0.5018,-0.5018,-0.5018,-0.5018,-0.4937,-0.4543,-0.3919,-0.3374,-0.3141,-0.2826,-0.2511,-0.2511,-0.2511,-0.2511,-0.2511,-0.2511,-0.2511,-0.2511,-0.2511,-0.2511,-0.2511,-0.2511,-0.2511,-0.2511,-0.2533,-0.2544,-0.2515,-0.2561,-0.2601,-0.2601,-0.2629,-0.2661,-0.2688,-0.2745,-0.2783,-0.2783,-0.2838,-0.2875,-0.2875,-0.2902,-0.2931,-0.2956,-0.3021,-0.3082,-0.3138,-0.317,-0.3202,-0.323,-0.323,-0.323,-0.323,-0.323,-0.323,-0.323,-0.323,-0.323,-0.7271,-0.708,-0.6828,-0.6828,-0.7089,-0.7408,-0.7354,0.0,0.0,0.0,0.0,0.0,0.0,-0.8725,0.0,0.0,0.0,0.0,-0.985,-1.0095,-1.0099,-0.9767,-0.9709,-0.9414,-0.8705,-0.8689,-0.8467,-0.7865,-0.7619,-0.7447,-0.7478,-0.7124,-0.6997,-0.7106,-0.6134,-0.515,-0.4196,-0.3902,-0.3752,-0.3599,-0.2976,-0.2195,-0.1333,-0.1334,-0.0864,-0.0314,-0.1884,-0.1803,-0.0705,-0.3214,-0.447,-0.4779,-0.4937,-0.5018,-0.5018,-0.5018,-0.5018,-0.5018,-0.5018,-0.4937,-0.4859,-0.4462,-0.3995,-0.3608,-0.3139,-0.2747,-0.2511,-0.2511,-0.2511,-0.2511,-0.2511,-0.2511,-0.2511,-0.2511,-0.2511,-0.2511,-0.2511,-0.2511,-0.2511,-0.2511,-0.2552,-0.2571,-0.2519,-0.2553,-0.2587,-0.2587,-0.2587,-0.2606,-0.2658,-0.2718,-0.2759,-0.2768,-0.2824,-0.2864,-0.2873,-0.2875,-0.2894,-0.2941,-0.2954,-0.3008,-0.3121,-0.3135,-0.3164,-0.3215,-0.3226,-0.323,-0.323,-0.323,-0.323,-0.323,-0.323,-0.323,-0.7699,-0.7834,-0.7887,-0.7887,-0.829,-0.8692,-0.8586,0.0,0.0,0.0,0.0,0.0,0.0,-0.8951,-0.9143,0.0,0.0,-0.9535,-0.9488,-0.9554,-0.957,-0.947,-0.9265,-0.9145,-0.9145,-0.8533,-0.8103,-0.7972,-0.7541,-0.7234,-0.7263,-0.7069,-0.688,-0.6705,-0.6489,-0.6273,-0.5901,-0.4486,-0.3443,-0.2744,-0.3288,-0.282,-0.1335,-0.1333,-0.1256,-0.11,-0.0628,-0.1256,-0.2511,-0.1254,-0.1877,-0.3673,-0.4621,-0.5018,-0.5018,-0.5018,-0.5018,-0.5018,-0.5018,-0.4779,-0.4462,-0.3997,-0.3608,-0.3141,-0.2746,-0.2511,-0.2511,-0.2511,-0.2511,-0.2511,-0.2511,-0.2511,-0.2511,-0.2511,-0.2511,-0.2511,-0.2511,-0.2511,-0.2511,-0.2511,-0.2518,-0.2522,-0.2512,-0.2518,-0.2525,-0.2525,-0.2525,-0.2527,-0.2537,-0.2591,-0.2649,-0.27,-0.276,-0.2818,-0.2869,-0.2875,-0.2877,-0.2887,-0.2932,-0.2989,-0.306,-0.3112,-0.3143,-0.3154,-0.3204,-0.323,-0.323,-0.323,-0.323,-0.323,-0.323,-0.323,-0.7624,-0.8065,-0.8396,-0.8341,-0.8614,-0.8857,-0.8804,0.0,0.0,0.0,0.0,0.0,0.0,0.0,-0.9184,-0.944,-0.9708,-0.981,-0.9688,-0.9553,-0.943,-0.9285,-0.9273,-0.9125,-0.8943,-0.8495,-0.8182,-0.7987,-0.7526,-0.7175,-0.7203,-0.694,-0.6755,-0.6732,-0.646,-0.6328,-0.6339,-0.5448,-0.4862,-0.454,-0.4457,-0.4066,-0.3288,-0.2817,-0.2427,-0.1959,-0.1488,-0.188,-0.2663,-0.0783,-0.1642,-0.4304,-0.4784,-0.5021,-0.5018,-0.5018,-0.5018,-0.5018,-0.5018,-0.4859,-0.4623,-0.4231,-0.3997,-0.3684,-0.3061,-0.2826,-0.2747,-0.2589,-0.2511,-0.2511,-0.2511,-0.2511,-0.2511,-0.2511,-0.2511,-0.2511,-0.2511,-0.2511,-0.2511,-0.2511,-0.2511,-0.2511,-0.2511,-0.2511,-0.2511,-0.2511,-0.2511,-0.2511,-0.2511,-0.2564,-0.2612,-0.264,-0.2728,-0.2794,-0.2823,-0.2856,-0.2875,-0.2875,-0.2928,-0.297,-0.2999,-0.3059,-0.3106,-0.3139,-0.3166,-0.3198,-0.323,-0.323,-0.323,-0.323,-0.323,-0.323,-0.7616,-0.8149,-0.8652,-0.8616,-0.8755,-0.891,-0.8857,-0.8857,0.0,0.0,0.0,0.0,0.0,-0.8996,0.0,-0.9594,-0.9899,-0.9953,-0.9695,-0.9486,-0.9305,-0.9106,-0.9169,-0.9126,-0.8763,-0.8507,-0.8318,-0.8117,-0.7591,-0.7265,-0.7204,-0.6937,-0.6809,-0.6819,-0.6419,-0.6229,-0.6321,-0.6158,-0.602,-0.5973,-0.5535,-0.5082,-0.4691,-0.43,-0.3597,-0.2738,-0.2738,-0.2818,-0.2738,-0.1644,-0.2662,-0.5018,-0.5026,-0.5023,-0.5018,-0.5018,-0.5018,-0.5018,-0.5018,-0.5018,-0.4937,-0.4543,-0.4384,-0.4229,-0.353,-0.3219,-0.3062,-0.2746,-0.2589,-0.2511,-0.2511,-0.2511,-0.2511,-0.2511,-0.2511,-0.2511,-0.2511,-0.2522,-0.2527,-0.2514,-0.2522,-0.2527,-0.2514,-0.2511,-0.2511,-0.2511,-0.2511,-0.2511,-0.2511,-0.255,-0.2585,-0.26,-0.2698,-0.2774,-0.2803,-0.2847,-0.2875,-0.2875,-0.2914,-0.2939,-0.2939,-0.2996,-0.3049,-0.3097,-0.311,-0.3149,-0.321,-0.3195,-0.3203,-0.323,-0.3215,-0.3217,-0.8034,-0.8316,-0.8594,-0.8833,-0.9112,0.0,-0.9061,-0.9008,0.0,-0.8804,0.0,0.0,0.0,-0.9272,-0.9608,-0.9473,-0.9708,-0.9688,-0.8978,-0.8997,-0.8939,-0.8683,-0.8722,-0.886,-0.904,-0.8528,-0.8201,-0.8431,-0.7852,-0.7396,-0.7204,-0.7007,-0.6819,-0.6696,-0.6502,-0.6325,-0.6157,-0.6098,-0.5684,-0.4911,-0.5803,-0.5395,-0.3908,-0.4611,-0.4302,-0.3368,-0.3604,-0.3684,-0.3763,-0.4396,-0.4787,-0.5018,-0.5018,-0.5018,-0.5018,-0.5018,-0.5018,-0.5018,-0.5018,-0.5018,-0.4937,-0.4543,-0.4384,-0.4307,-0.3919,-0.3452,-0.3062,-0.3062,-0.2826,-0.2511,-0.2511,-0.2511,-0.2511,-0.2511,-0.2511,-0.2511,-0.2511,-0.2555,-0.2578,-0.2522,-0.2556,-0.2576,-0.252,-0.2511,-0.2511,-0.2511,-0.2511,-0.2511,-0.2511,-0.2514,-0.2538,-0.2595,-0.2659,-0.2745,-0.2858,-0.2871,-0.2875,-0.2875,-0.2877,-0.288,-0.288,-0.2935,-0.2966,-0.2971,-0.3026,-0.3086,-0.3146,-0.309,-0.312,-0.3229,-0.3172,-0.3177,-0.7815,-0.8238,-0.866,-0.8736,-0.9141,0.0,0.0,-0.9061,-0.9008,-0.9061,-0.891,0.0,0.0,0.0,-0.9416,-0.9537,-0.9504,-0.9378,-0.9098,-0.8786,-0.8593,-0.8492,-0.8441,-0.8477,-0.8573,-0.827,-0.8121,-0.8212,-0.7772,-0.7456,-0.7396,-0.7204,-0.7007,-0.6811,-0.6552,-0.6254,-0.5985,-0.5949,-0.5706,-0.5325,-0.5755,-0.5673,-0.5078,-0.5463,-0.5351,-0.482,-0.49,-0.4857,-0.4776,-0.494,-0.5021,-0.501,-0.4934,-0.495,-0.5007,-0.4931,-0.495,-0.5018,-0.5018,-0.5018,-0.494,-0.4857,-0.4779,-0.4701,-0.4309,-0.4075,-0.3841,-0.3608,-0.3217,-0.2826,-0.2589,-0.2511,-0.2511,-0.2511,-0.2511,-0.2511,-0.2511,-0.2529,-0.2549,-0.2564,-0.2555,-0.2561,-0.2614,-0.2593,-0.2579,-0.2619,-0.2591,-0.2567,-0.2567,-0.2534,-0.2533,-0.2595,-0.2689,-0.2782,-0.2867,-0.2875,-0.2875,-0.2875,-0.2838,-0.2818,-0.2818,-0.2801,-0.2828,-0.2905,-0.2929,-0.2988,-0.3083,-0.306,-0.3072,-0.3119,-0.3132,-0.3153,-0.7688,-0.8171,-0.866,-0.8761,0.0,0.0,-0.934,-0.9211,-0.9159,-0.9211,-0.9061,-0.8971,-0.9065,0.0,-0.9272,-0.9385,-0.9312,-0.915,-0.9064,-0.871,-0.8421,-0.8421,-0.8269,-0.8201,-0.8285,-0.8142,-0.8039,-0.8067,-0.7726,-0.7519,-0.7521,-0.733,-0.7138,-0.6881,-0.6613,-0.635,-0.602,-0.5929,-0.5848,-0.5583,-0.5682,-0.5779,-0.5803,-0.5911,-0.5808,-0.5667,-0.5661,-0.549,-0.5263,-0.5154,-0.5071,-0.4947,-0.4825,-0.4828,-0.4896,-0.4852,-0.4887,-0.4966,-0.5004,-0.5018,-0.5018,-0.5018,-0.5018,-0.4937,-0.4698,-0.4384,-0.4151,-0.3841,-0.3374,-0.2826,-0.2589,-0.2511,-0.2511,-0.2511,-0.2511,-0.2511,-0.2511,-0.2526,-0.2552,-0.2593,-0.2583,-0.2594,-0.2677,-0.2658,-0.2644,-0.2685,-0.2657,-0.2629,-0.2629,-0.2576,-0.2563,-0.2624,-0.2704,-0.2786,-0.2867,-0.2875,-0.2865,-0.2847,-0.2788,-0.2763,-0.2782,-0.2725,-0.2732,-0.2815,-0.2835,-0.2894,-0.2993,-0.2974,-0.2984,-0.3021,-0.3063,-0.3093,-0.7781,-0.8141,-0.8547,0.0,0.0,0.0,-0.9548,-0.951,-0.9361,-0.9211,-0.9211,-0.9106,-0.8857,-0.9146,-0.9241,-0.8851,-0.9051,-0.9084,-0.8844,-0.8586,-0.8421,-0.8421,-0.8109,-0.8003,-0.8261,-0.7998,-0.786,-0.8097,-0.7773,-0.756,-0.7507,-0.7326,-0.7138,-0.6881,-0.6745,-0.6544,-0.6214,-0.621,-0.6013,-0.5617,-0.5617,-0.5644,-0.5796,-0.5796,-0.5656,-0.5525,-0.5664,-0.5498,-0.5133,-0.5263,-0.5089,-0.4819,-0.47,-0.4723,-0.474,-0.4787,-0.483,-0.4849,-0.4972,-0.5015,-0.5015,-0.5015,-0.5015,-0.5015,-0.5015,-0.4465,-0.3839,-0.3761,-0.3212,-0.251,-0.251,-0.251,-0.251,-0.2511,-0.2511,-0.2511,-0.2511,-0.2557,-0.2601,-0.2602,-0.265,-0.2692,-0.2694,-0.2694,-0.2694,-0.2694,-0.2694,-0.2694,-0.2692,-0.264,-0.2627,-0.2687,-0.2694,-0.2743,-0.2862,-0.2873,-0.2847,-0.2786,-0.2725,-0.2718,-0.2779,-0.2723,-0.2691,-0.2692,-0.2751,-0.2811,-0.2872,-0.2812,-0.2842,-0.2955,-0.2956,-0.2989,-0.751,-0.7933,0.0,-0.859,0.0,0.0,0.0,-0.951,0.0,0.0,-0.9211,-0.9159,-0.8956,-0.8977,-0.8958,-0.8824,-0.8878,-0.8905,-0.8818,-0.8639,-0.8527,-0.8421,-0.8215,-0.8092,-0.8009,-0.7894,-0.7716,-0.7645,-0.7449,-0.7264,-0.7026,-0.711,-0.7126,-0.6935,-0.6876,-0.6679,-0.635,-0.6214,-0.6083,-0.5822,-0.5683,-0.56,-0.5494,-0.5603,-0.5654,-0.5594,-0.5594,-0.551,-0.5365,-0.5114,-0.4888,-0.4694,-0.4572,-0.4649,-0.472,-0.4597,-0.4632,-0.4711,-0.4749,-0.476,-0.476,-0.476,-0.476,-0.4762,-0.4466,-0.417,-0.3946,-0.3721,-0.3276,-0.2843,-0.2817,-0.2677,-0.2458,-0.25,-0.2511,-0.2511,-0.2511,-0.2525,-0.2563,-0.2649,-0.2646,-0.2669,-0.2798,-0.2785,-0.2771,-0.2813,-0.2783,-0.274,-0.2698,-0.2714,-0.2736,-0.2755,-0.2756,-0.2771,-0.2807,-0.2771,-0.2756,-0.2782,-0.2685,-0.2636,-0.2654,-0.2597,-0.2585,-0.2627,-0.2646,-0.2685,-0.2747,-0.2728,-0.2737,-0.2773,-0.2815,-0.2868,-0.7547,-0.7923,0.0,-0.8644,-0.8941,-0.9256,-0.9533,0.0,0.0,0.0,-0.9309,-0.9263,-0.9061,-0.8956,-0.891,-0.8804,-0.8804,-0.8804,-0.8804,-0.8685,-0.8573,-0.8474,-0.8321,-0.8168,-0.8008,-0.793,-0.7783,-0.7548,-0.7402,-0.7229,-0.7021,-0.703,-0.7016,-0.6912,-0.6903,-0.6802,-0.6548,-0.6412,-0.628,-0.602,-0.5881,-0.5686,-0.5495,-0.5525,-0.5498,-0.5508,-0.5447,-0.5467,-0.5447,-0.5033,-0.4796,-0.4711,-0.4519,-0.4447,-0.451,-0.4482,-0.4515,-0.4657,-0.4709,-0.4726,-0.4726,-0.4726,-0.4726,-0.4654,-0.4437,-0.4147,-0.3855,-0.3636,-0.313,-0.2707,-0.275,-0.2553,-0.2435,-0.2496,-0.2511,-0.2511,-0.2511,-0.2511,-0.2546,-0.2669,-0.2662,-0.2688,-0.2847,-0.2843,-0.2831,-0.2868,-0.2842,-0.2797,-0.2736,-0.276,-0.2783,-0.2783,-0.2783,-0.2783,-0.2783,-0.2749,-0.2723,-0.2711,-0.2642,-0.259,-0.2567,-0.253,-0.2527,-0.2564,-0.2589,-0.262,-0.2655,-0.2655,-0.2655,-0.2657,-0.2719,-0.2779,-0.7815,-0.8004,0.0,-0.8824,-0.898,0.0,-0.9496,-0.9614,-0.9562,-0.9465,-0.9517,-0.9458,-0.9113,-0.9106,-0.9113,-0.8857,-0.8811,-0.8804,-0.8804,-0.8692,-0.8626,-0.8626,-0.8368,-0.8221,-0.8221,-0.8008,-0.7889,-0.7773,-0.752,-0.7333,-0.7244,-0.6987,-0.6852,-0.6853,-0.6876,-0.6849,-0.6715,-0.6715,-0.6527,-0.621,-0.6214,-0.6013,-0.5683,-0.5491,-0.5425,-0.5369,-0.5368,-0.5361,-0.5402,-0.492,-0.4735,-0.4654,-0.4408,-0.43,-0.4314,-0.4417,-0.4455,-0.4469,-0.4654,-0.4693,-0.4693,-0.4693,-0.4693,-0.4693,-0.4621,-0.4113,-0.3536,-0.3465,-0.2892,-0.2319,-0.2326,-0.2365,-0.2418,-0.248,-0.2503,-0.2511,-0.2511,-0.2511,-0.2546,-0.2669,-0.2692,-0.273,-0.2853,-0.2875,-0.2875,-0.2875,-0.2875,-0.2854,-0.2798,-0.2792,-0.2792,-0.2792,-0.2786,-0.2783,-0.2783,-0.2773,-0.2722,-0.2616,-0.2604,-0.2579,-0.2529,-0.2516,-0.2511,-0.2511,-0.2565,-0.2593,-0.2593,-0.2593,-0.2593,-0.2513,-0.2567,-0.2624,-0.7894,-0.7981,0.0,0.0,-0.898,-0.9327,-0.9547,-0.9614,-0.9614,-0.9562,-0.951,-0.9413,-0.9316,-0.9159,-0.9008,-0.8962,-0.8857,-0.8804,-0.8804,-0.8752,-0.8692,-0.8626,-0.8474,-0.8321,-0.8221,-0.8008,-0.7812,-0.7595,-0.7492,-0.7296,-0.6844,-0.6909,-0.6856,-0.6609,-0.6644,-0.6705,-0.6845,-0.6591,-0.6535,-0.6609,-0.6342,-0.6148,-0.6079,-0.5683,-0.5488,-0.5428,-0.5396,-0.5292,-0.518,-0.5081,-0.4867,-0.4599,-0.457,-0.4431,-0.4303,-0.4327,-0.4338,-0.4341,-0.4365,-0.4376,-0.4376,-0.4376,-0.4376,-0.4308,-0.4099,-0.3893,-0.3621,-0.3006,-0.2736,-0.2545,-0.2321,-0.2202,-0.2225,-0.2358,-0.2443,-0.2511,-0.2511,-0.2511,-0.2546,-0.2669,-0.2692,-0.273,-0.2853,-0.2875,-0.2875,-0.2875,-0.2875,-0.2869,-0.2856,-0.2854,-0.2854,-0.2854,-0.2812,-0.2783,-0.2783,-0.2696,-0.265,-0.2672,-0.2628,-0.2617,-0.2651,-0.2561,-0.2511,-0.2511,-0.2523,-0.2451,-0.2292,-0.2292,-0.2214,-0.2058,-0.207,-0.2099,-0.796,0.0,0.0,-0.8717,0.0,-0.9361,-0.9458,-0.9562,-0.9614,-0.9614,-0.9453,-0.9249,-0.9191,-0.9038,-0.8885,-0.8789,-0.8815,-0.8857,-0.8811,-0.8804,-0.8698,-0.8442,-0.839,-0.8324,-0.804,-0.7935,-0.7848,-0.7681,-0.7574,-0.7354,-0.7085,-0.6929,-0.6819,-0.6758,-0.6634,-0.6616,-0.6762,-0.6577,-0.6487,-0.6548,-0.6351,-0.6201,-0.6017,-0.5749,-0.5554,-0.5428,-0.5428,-0.5359,-0.5223,-0.5156,-0.502,-0.4824,-0.4691,-0.4561,-0.4431,-0.4367,-0.43,-0.43,-0.43,-0.43,-0.43,-0.43,-0.43,-0.43,-0.4097,-0.3961,-0.3692,-0.3355,-0.309,-0.2831,-0.2532,-0.2429,-0.2461,-0.2283,-0.2382,-0.2467,-0.2467,-0.2491,-0.2538,-0.2631,-0.2672,-0.2722,-0.2815,-0.2854,-0.2875,-0.2875,-0.2875,-0.2875,-0.2875,-0.2875,-0.2875,-0.2875,-0.2846,-0.2815,-0.2786,-0.2725,-0.2689,-0.2692,-0.2662,-0.2659,-0.2691,-0.2631,-0.2503,-0.2394,-0.2313,-0.2154,-0.2074,-0.2074,-0.1995,-0.1917,-0.1896,-0.1909,-0.818,0.0,-0.8704,-0.8923,-0.9061,0.0,-0.9309,-0.9458,-0.9562,-0.9562,-0.938,-0.9168,-0.8997,-0.8898,-0.8757,-0.8524,-0.8735,-0.8881,-0.8731,-0.8778,-0.8659,-0.8305,-0.8287,-0.8215,-0.7841,-0.7808,-0.7829,-0.7829,-0.7658,-0.7574,-0.7521,-0.7085,-0.6903,-0.6987,-0.6704,-0.6577,-0.6666,-0.6611,-0.6531,-0.642,-0.6358,-0.6185,-0.5868,-0.5669,-0.5501,-0.5428,-0.5428,-0.5428,-0.5362,-0.5223,-0.5153,-0.5087,-0.4824,-0.4625,-0.4561,-0.4431,-0.43,-0.43,-0.43,-0.43,-0.43,-0.43,-0.43,-0.43,-0.43,-0.4097,-0.3892,-0.3825,-0.3493,-0.3092,-0.2753,-0.2664,-0.2573,-0.2158,-0.2166,-0.2242,-0.2252,-0.2215,-0.2188,-0.225,-0.2396,-0.2542,-0.2598,-0.2736,-0.2862,-0.2873,-0.2875,-0.2875,-0.2875,-0.2875,-0.2875,-0.2875,-0.2875,-0.2854,-0.2804,-0.2789,-0.2762,-0.2711,-0.2707,-0.2707,-0.2707,-0.2707,-0.2516,-0.2304,-0.2047,-0.1961,-0.1879,-0.1879,-0.1876,-0.1787,-0.1835,-0.1833,0.0,0.0,-0.8976,0.0,-0.9008,-0.9061,0.0,0.0,-0.9263,-0.9413,-0.9329,-0.9175,-0.9168,-0.883,-0.8492,-0.835,-0.8469,-0.8518,-0.8481,-0.8651,-0.8732,-0.8574,-0.8236,-0.7999,-0.7816,-0.7688,-0.765,-0.765,-0.7763,-0.7741,-0.7521,-0.7413,-0.7317,-0.7079,-0.6802,-0.6749,-0.6922,-0.6524,-0.6388,-0.6583,-0.628,-0.5985,-0.5643,-0.5643,-0.5553,-0.5428,-0.5428,-0.5428,-0.5428,-0.5362,-0.5226,-0.5087,-0.502,-0.4824,-0.4625,-0.4561,-0.4431,-0.43,-0.43,-0.43,-0.43,-0.43,-0.43,-0.43,-0.43,-0.43,-0.4164,-0.3892,-0.3493,-0.3092,-0.2753,-0.2495,-0.2165,-0.1556,-0.1454,-0.1568,-0.1604,-0.1249,-0.097,-0.1017,-0.1471,-0.1863,-0.1904,-0.2441,-0.2813,-0.2867,-0.2875,-0.2875,-0.2875,-0.2875,-0.2875,-0.2875,-0.2875,-0.2871,-0.2862,-0.2813,-0.2779,-0.2771,-0.2771,-0.2771,-0.2771,-0.2597,-0.242,-0.2154,-0.2198,-0.2092,-0.1757,-0.1757,-0.1575,-0.1383,-0.138,-0.1364,-0.9191,-0.9295,-0.9241,0.0,-0.8962,-0.9008,-0.9061,-0.9159,-0.9211,-0.9256,-0.8984,-0.8745,-0.8897,-0.858,-0.8172,-0.7701,-0.7855,-0.7957,-0.7775,-0.7623,-0.7585,-0.7736,-0.7499,-0.7315,-0.7224,-0.734,-0.7437,-0.7583,-0.7659,-0.7739,-0.7729,-0.7574,-0.7461,-0.7354,-0.7085,-0.6916,-0.6854,-0.6638,-0.6464,-0.6316,-0.619,-0.5936,-0.5574,-0.5574,-0.5471,-0.5234,-0.5234,-0.5171,-0.5118,-0.5199,-0.5165,-0.5107,-0.5124,-0.4957,-0.4694,-0.4625,-0.4495,-0.43,-0.43,-0.43,-0.43,-0.43,-0.43,-0.43,-0.43,-0.43,-0.43,-0.4097,-0.3828,-0.3424,-0.309,-0.2755,-0.2285,-0.1479,-0.1086,-0.0824,-0.0556,-0.0577,-0.068,-0.0714,-0.0976,-0.1245,-0.17,-0.1983,-0.2355,-0.2819,-0.2853,-0.2875,-0.2875,-0.2875,-0.2875,-0.2875,-0.2875,-0.2875,-0.2875,-0.285,-0.2834,-0.2834,-0.2834,-0.2834,-0.2834,-0.2656,-0.239,-0.2124,-0.2079,-0.1884,-0.1541,-0.1541,-0.144,-0.1328,-0.1311,-0.1286,0.0,0.0,-0.9385,-0.8961,-0.8944,-0.8964,0.0,-0.9008,-0.9113,-0.9159,-0.8679,-0.8341,-0.8544,-0.8213,-0.7676,-0.7039,-0.7132,-0.722,-0.6949,-0.6656,-0.6574,-0.6834,-0.6684,-0.6543,-0.6596,-0.6795,-0.7038,-0.7382,-0.7455,-0.7583,-0.7686,-0.7535,-0.746,-0.7524,-0.7264,-0.7026,-0.6923,-0.6756,-0.6514,-0.6058,-0.6084,-0.5919,-0.5624,-0.5624,-0.5388,-0.5096,-0.5118,-0.5032,-0.4928,-0.5033,-0.5077,-0.5028,-0.511,-0.4973,-0.4785,-0.4683,-0.4561,-0.4367,-0.43,-0.4278,-0.4259,-0.4289,-0.4278,-0.4259,-0.4289,-0.43,-0.43,-0.4164,-0.3894,-0.3558,-0.3023,-0.2619,-0.2083,-0.1142,-0.0605,-0.0134,0.0403,0.0142,-0.0226,-0.0235,-0.0318,-0.0644,-0.1161,-0.1358,-0.1726,-0.2171,-0.248,-0.2604,-0.2604,-0.2784,-0.2875,-0.2875,-0.2875,-0.2875,-0.2875,-0.2875,-0.2784,-0.2423,-0.2423,-0.2422,-0.2332,-0.2153,-0.2063,-0.2064,-0.1943,-0.1664,-0.1401,-0.1401,-0.1386,-0.1358,-0.1328,-0.1298,0.0,-0.9139,0.0,-0.9014,-0.8976,-0.8955,0.0,-0.8804,-0.8857,-0.8956,-0.8529,-0.8153,-0.8294,-0.7582,-0.6891,-0.6587,-0.6496,-0.6384,-0.6202,-0.6354,-0.6401,-0.6159,-0.5971,-0.5932,-0.6116,-0.6132,-0.6327,-0.6802,-0.7079,-0.7224,-0.7243,-0.7243,-0.7358,-0.7607,-0.7269,-0.7229,-0.7461,-0.6977,-0.6495,-0.6018,-0.6028,-0.5868,-0.5597,-0.5597,-0.5428,-0.5116,-0.5081,-0.5032,-0.4918,-0.4928,-0.4928,-0.4945,-0.5024,-0.5018,-0.4913,-0.4785,-0.4694,-0.4558,-0.4367,-0.4224,-0.4145,-0.4262,-0.4221,-0.4148,-0.4265,-0.43,-0.4233,-0.3892,-0.356,-0.3025,-0.2214,-0.1679,-0.1076,-0.0067,0.0269,0.0403,0.0941,0.1033,0.0993,0.1094,0.0673,0.0232,0.0081,-0.0415,-0.0763,-0.0866,-0.1416,-0.1884,-0.1884,-0.2424,-0.2875,-0.2875,-0.2875,-0.2875,-0.2875,-0.2875,-0.2422,-0.1253,-0.1164,-0.1074,-0.0805,-0.0805,-0.1075,-0.1794,-0.1792,-0.1701,-0.1433,-0.1433,-0.1417,-0.1387,-0.1358,-0.1329,0.0,0.0,0.0,-0.9009,-0.8985,-0.8976,-0.8947,-0.8871,-0.8804,-0.8857,-0.8535,-0.8203,-0.7845,-0.7231,-0.6605,-0.613,-0.5772,-0.5517,-0.5424,-0.5226,-0.5233,-0.5646,-0.5301,-0.5163,-0.5439,-0.5704,-0.5991,-0.6339,-0.6712,-0.7024,-0.7194,-0.72,-0.7243,-0.734,-0.7248,-0.7124,-0.6963,-0.665,-0.6299,-0.6,-0.6,-0.5841,-0.5622,-0.5622,-0.5403,-0.5077,-0.5027,-0.4908,-0.4751,-0.479,-0.4772,-0.4789,-0.4938,-0.4932,-0.488,-0.4709,-0.4562,-0.4431,-0.4287,-0.4102,-0.402,-0.4143,-0.4153,-0.414,-0.4265,-0.43,-0.4233,-0.3892,-0.3288,-0.2619,-0.2484,-0.1612,-0.0605,0.0134,0.0538,0.0874,0.1076,0.1099,0.113,0.116,0.1042,0.0761,0.031,0.0081,-0.0253,-0.0679,-0.0965,-0.1076,-0.1076,-0.1345,-0.1525,-0.1525,-0.1525,-0.1525,-0.1525,-0.1254,-0.0895,-0.0447,-0.0089,0.0089,0.0179,0.0358,0.0358,0.009,0.0179,-0.0269,-0.1436,-0.1436,-0.142,-0.1389,-0.1361,-0.1331,-0.8792,0.0,0.0,0.0,-0.9112,-0.9041,-0.9176,-0.9038,-0.884,-0.8784,-0.8577,-0.827,-0.7854,-0.7273,-0.6615,-0.585,-0.536,-0.5043,-0.4947,-0.4623,-0.4544,-0.5075,-0.4706,-0.4578,-0.4879,-0.514,-0.5417,-0.58,-0.6214,-0.6513,-0.6736,-0.684,-0.6975,-0.7066,-0.7158,-0.7042,-0.6712,-0.6539,-0.6343,-0.6114,-0.6081,-0.595,-0.5677,-0.5677,-0.5458,-0.5183,-0.5014,-0.4849,-0.4698,-0.4628,-0.4613,-0.4629,-0.4782,-0.4844,-0.4797,-0.4687,-0.4544,-0.4361,-0.4276,-0.4033,-0.3901,-0.4064,-0.4088,-0.4085,-0.4251,-0.43,-0.4233,-0.3892,-0.3222,-0.2619,-0.2284,-0.1074,0.0134,0.047,0.0874,0.1076,0.1076,0.1091,0.1114,0.1145,0.1168,0.1039,0.068,0.0639,0.05,-0.0,-0.0175,-0.0359,-0.0359,-0.0538,-0.0718,-0.0718,-0.0538,-0.0448,-0.0448,-0.0,0.0447,0.0805,0.1163,0.1342,0.1431,0.1611,0.1522,0.1163,0.1342,0.0806,-0.0448,-0.0448,-0.0623,-0.0965,-0.0859,-0.1005,0.0,0.0,0.0,0.0,-0.9387,-0.9172,-0.9502,-0.9293,-0.8926,-0.8835,-0.8571,-0.8427,-0.8383,-0.7751,-0.6832,-0.5746,-0.5256,-0.4956,-0.4845,-0.4658,-0.4455,-0.4396,-0.4213,-0.4244,-0.453,-0.4447,-0.4622,-0.5216,-0.5524,-0.5696,-0.5787,-0.619,-0.6532,-0.6787,-0.7042,-0.7032,-0.669,-0.6695,-0.6565,-0.6324,-0.6231,-0.6064,-0.5795,-0.5795,-0.5631,-0.5297,-0.5183,-0.4963,-0.4691,-0.4574,-0.4519,-0.4532,-0.4626,-0.4687,-0.4707,-0.4606,-0.4533,-0.4351,-0.4232,-0.4028,-0.3845,-0.4028,-0.4028,-0.3979,-0.4221,-0.4298,-0.4233,-0.3892,-0.3491,-0.2824,-0.1412,-0.0,0.1076,0.1076,0.1076,0.1076,0.1076,0.1076,0.1084,0.1114,0.112,0.114,0.1199,0.1261,0.1313,0.1258,0.0786,0.0448,0.0448,-0.0179,-0.0628,-0.0628,-0.0269,-0.0,-0.0,0.0447,0.1253,0.2418,0.2508,0.2688,0.2957,0.2957,0.2508,0.1522,0.1522,0.1522,0.1522,0.1431,0.0895,-0.0,-0.0,-0.0424,-0.8819,0.0,0.0,0.0,0.0,0.0,-0.902,-0.884,-0.8704,-0.8712,-0.8662,-0.8518,-0.8105,-0.7866,-0.7454,-0.6775,-0.5991,-0.5441,-0.5236,-0.4874,-0.4455,-0.4209,-0.4108,-0.4013,-0.3972,-0.4184,-0.4403,-0.4574,-0.4966,-0.5351,-0.5701,-0.6221,-0.652,-0.6594,-0.6668,-0.6669,-0.6545,-0.6327,-0.6244,-0.6324,-0.6072,-0.597,-0.595,-0.5845,-0.5681,-0.5513,-0.5238,-0.5069,-0.4963,-0.4743,-0.4574,-0.4522,-0.4567,-0.4592,-0.468,-0.4555,-0.448,-0.4438,-0.4285,-0.3996,-0.3818,-0.3983,-0.3953,-0.3902,-0.4121,-0.423,-0.4233,-0.3892,-0.3288,-0.2216,-0.0067,0.0538,0.0605,0.1008,0.1076,0.1076,0.1076,0.1076,0.1078,0.1087,0.1106,0.1126,0.1143,0.1233,0.1305,0.1313,0.121,0.1166,0.1166,0.0987,0.0807,0.0807,0.0896,0.0986,0.0986,0.1524,0.2061,0.2777,0.3136,0.3496,0.3851,0.3941,0.3762,0.3491,0.3491,0.3491,0.3491,0.2058,0.1253,0.0984,0.0351,-0.0086,-0.8949,-0.8622,-0.8395,-0.902,0.0,0.0,-0.8988,-0.8874,-0.869,-0.8609,-0.86,-0.8538,-0.8146,-0.8096,-0.799,-0.767,-0.6952,-0.6364,-0.6076,-0.5698,-0.5242,-0.4737,-0.478,-0.4751,-0.4361,-0.4604,-0.483,-0.4879,-0.5145,-0.5486,-0.5964,-0.6136,-0.6307,-0.6477,-0.6477,-0.6514,-0.6502,-0.6152,-0.6065,-0.6193,-0.5891,-0.5789,-0.5882,-0.5779,-0.5716,-0.5567,-0.5399,-0.5234,-0.5069,-0.4849,-0.4684,-0.4574,-0.4519,-0.4573,-0.4585,-0.4553,-0.4462,-0.4355,-0.4163,-0.3965,-0.3816,-0.3889,-0.3862,-0.3882,-0.4004,-0.4126,-0.4159,-0.3962,-0.2928,-0.1545,0.0202,0.0605,0.0739,0.1008,0.1076,0.1076,0.1076,0.1076,0.1076,0.1076,0.109,0.1106,0.1119,0.1201,0.1269,0.1281,0.1359,0.1416,0.1416,0.1427,0.1436,0.1436,0.1615,0.1705,0.1705,0.2422,0.2869,0.3136,0.3674,0.4032,0.43,0.43,0.43,0.43,0.43,0.43,0.43,0.3132,0.2416,0.1969,0.1061,0.0608,-0.9124,-0.8769,-0.8613,-0.9606,-0.9314,0.0,-0.9278,-0.908,-0.8752,-0.8532,-0.8504,-0.8493,-0.8436,-0.8462,-0.8482,-0.8429,-0.7978,-0.7503,-0.6983,-0.6723,-0.6334,-0.562,-0.5877,-0.5864,-0.5296,-0.542,-0.5579,-0.5657,-0.5704,-0.5873,-0.6325,-0.6056,-0.6093,-0.652,-0.6526,-0.6526,-0.6526,-0.6186,-0.6037,-0.6024,-0.572,-0.5634,-0.5728,-0.5677,-0.5628,-0.5592,-0.5588,-0.5386,-0.5128,-0.4956,-0.4849,-0.4688,-0.4574,-0.4519,-0.4519,-0.4519,-0.4411,-0.4193,-0.4079,-0.3965,-0.3816,-0.3814,-0.3801,-0.3831,-0.3882,-0.4009,-0.4124,-0.4148,-0.2704,-0.1008,-0.0134,0.0605,0.1076,0.1076,0.1076,0.1076,0.1076,0.1076,0.1076,0.1076,0.1076,0.1084,0.1111,0.1166,0.1216,0.1243,0.1323,0.1382,0.1384,0.1412,0.1431,0.1435,0.1794,0.2154,0.2154,0.296,0.3494,0.3575,0.4018,0.419,0.4271,0.4269,0.4269,0.4269,0.4269,0.4269,0.4269,0.4289,0.3851,0.3045,0.2059,0.1594,-0.9944,-0.9507,-0.9058,-0.954,-0.9512,0.0,-0.9098,-0.8995,-0.8805,-0.8566,-0.8498,-0.8511,-0.8556,-0.8778,-0.8847,-0.8545,-0.8586,-0.8338,-0.7281,-0.676,-0.6293,-0.5883,-0.5956,-0.5921,-0.5707,-0.5702,-0.5653,-0.5472,-0.5611,-0.5782,-0.5922,-0.6319,-0.6617,-0.6829,-0.6829,-0.6787,-0.6666,-0.6324,-0.6184,-0.6247,-0.579,-0.5696,-0.5863,-0.5561,-0.547,-0.5501,-0.54,-0.5329,-0.5242,-0.5128,-0.4908,-0.4688,-0.4574,-0.4519,-0.4519,-0.4519,-0.4463,-0.4463,-0.4408,-0.4187,-0.3971,-0.394,-0.3906,-0.3815,-0.384,-0.3947,-0.4151,-0.4259,-0.3155,-0.148,0.0404,0.1011,0.1078,0.1076,0.1076,0.1076,0.1076,0.1076,0.1076,0.1076,0.1076,0.1078,0.1083,0.1135,0.1177,0.1183,0.1261,0.1328,0.1353,0.1381,0.1408,0.1433,0.1525,0.1705,0.2154,0.2333,0.2761,0.35,0.3582,0.3815,0.4004,0.4087,0.4087,0.4087,0.4087,0.4087,0.4087,0.423,0.421,0.403,0.3044,0.2592,-1.021,-0.9795,-0.9432,-0.9824,-0.9571,0.0,0.0,-0.8922,-0.8688,-0.8886,-0.8646,-0.8416,-0.8537,-0.8622,-0.8574,-0.843,-0.8324,-0.8107,-0.7628,-0.7264,-0.6828,-0.6334,-0.6561,-0.6592,-0.6221,-0.6516,-0.6597,-0.6302,-0.6061,-0.6013,-0.6322,-0.6335,-0.6526,-0.6872,-0.6914,-0.6836,-0.6715,-0.6361,-0.6162,-0.6157,-0.5668,-0.556,-0.5729,-0.5491,-0.5411,-0.5457,-0.5405,-0.5348,-0.5284,-0.5148,-0.4959,-0.4794,-0.4632,-0.4574,-0.4519,-0.4519,-0.4519,-0.4463,-0.4411,-0.4245,-0.4079,-0.3965,-0.3842,-0.3778,-0.3724,-0.3361,-0.2983,-0.3138,-0.2196,-0.0741,0.0472,0.0944,0.1078,0.1076,0.1076,0.1076,0.1076,0.1076,0.1076,0.1076,0.1076,0.1076,0.1076,0.1114,0.1144,0.1144,0.1209,0.1262,0.1278,0.1319,0.1358,0.1388,0.1391,0.1573,0.203,0.2274,0.2682,0.3333,0.3589,0.3808,0.3971,0.4012,0.4036,0.4036,0.4036,0.4036,0.4036,0.4124,0.4191,0.4236,0.3833,0.3565,-1.0561,-1.0386,-1.0185,-1.0394,-0.9985,-0.9479,0.0,0.0,0.0,-0.9096,-0.8712,-0.8298,-0.8392,-0.8322,-0.828,-0.8247,-0.8028,-0.7866,-0.7979,-0.79,-0.7563,-0.6804,-0.7139,-0.7246,-0.675,-0.7177,-0.746,-0.7291,-0.6654,-0.651,-0.6963,-0.6478,-0.6489,-0.7035,-0.6973,-0.6855,-0.6791,-0.6471,-0.6227,-0.6062,-0.5631,-0.5507,-0.5636,-0.5409,-0.5293,-0.5357,-0.5366,-0.5328,-0.531,-0.5131,-0.5039,-0.4901,-0.4743,-0.4632,-0.4519,-0.4519,-0.4519,-0.4463,-0.4301,-0.4249,-0.4138,-0.391,-0.3796,-0.3749,-0.3613,-0.2947,-0.2107,-0.1786,-0.0789,0.027,0.0472,0.0809,0.1078,0.1076,0.1076,0.1076,0.1076,0.1076,0.1076,0.1076,0.1076,0.1076,0.1076,0.1096,0.1112,0.1112,0.1159,0.1196,0.1202,0.1251,0.1296,0.1327,0.1331,0.1591,0.2043,0.2527,0.2996,0.3296,0.3723,0.3934,0.3826,0.391,0.3965,0.3983,0.3983,0.3983,0.3983,0.4001,0.4065,0.4173,0.4224,0.4222,-1.1965,-1.2027,-1.1912,-1.1522,-1.134,-1.0932,-0.9848,0.0,-0.9173,-0.8498,0.0,-0.8162,-0.8055,0.0,0.0,-0.8027,-0.8392,-0.8657,-0.8303,-0.832,-0.7996,-0.7139,-0.7085,-0.7139,-0.7031,-0.7136,-0.7285,-0.7552,-0.7255,-0.711,-0.7259,-0.7092,-0.7185,-0.7615,-0.7214,-0.7026,-0.7032,-0.6786,-0.6544,-0.6367,-0.6067,-0.582,-0.5674,-0.5412,-0.5221,-0.5148,-0.5021,-0.5086,-0.5301,-0.5157,-0.5095,-0.5069,-0.4798,-0.4632,-0.4519,-0.4519,-0.4519,-0.4519,-0.4463,-0.4356,-0.4193,-0.4024,-0.3802,-0.3604,-0.3606,-0.3488,-0.2983,-0.0832,0.033,0.0877,0.0607,0.0809,0.1078,0.1076,0.1076,0.1076,0.1076,0.1076,0.1076,0.1076,0.1076,0.1076,0.1076,0.1078,0.1081,0.1081,0.111,0.1141,0.1168,0.1201,0.1234,0.1264,0.1585,0.1903,0.2382,0.2905,0.3282,0.3528,0.3748,0.372,0.3552,0.3628,0.3712,0.3793,0.3795,0.3795,0.3795,0.3875,0.4004,0.4171,0.4099,0.4104,-1.2183,-1.2307,-1.217,-1.1689,-1.1377,-1.1019,-1.0356,-0.9808,-0.9494,-0.9514,0.0,0.0,0.0,0.0,0.0,0.0,-0.8095,-0.8085,-0.8014,-0.7746,-0.7542,-0.7374,-0.7354,-0.7246,-0.7139,-0.7264,-0.7413,-0.7518,-0.7476,-0.748,-0.7542,-0.7331,-0.7298,-0.7472,-0.7199,-0.7012,-0.6887,-0.668,-0.6532,-0.6416,-0.611,-0.5895,-0.568,-0.542,-0.5208,-0.5032,-0.4965,-0.4966,-0.5082,-0.5097,-0.5072,-0.4984,-0.4863,-0.4739,-0.4632,-0.4519,-0.4519,-0.4519,-0.4519,-0.4463,-0.4356,-0.4079,-0.3805,-0.3593,-0.3591,-0.3103,-0.2477,-0.2183,-0.0578,0.1057,0.0873,0.0944,0.1078,0.1076,0.1076,0.1076,0.1076,0.1076,0.1076,0.1076,0.1076,0.1076,0.1076,0.1076,0.1076,0.1076,0.1087,0.1099,0.1112,0.114,0.1244,0.1502,0.1657,0.2044,0.2686,0.2908,0.3178,0.3483,0.354,0.3522,0.3501,0.3483,0.354,0.3681,0.3683,0.371,0.3763,0.3801,0.3887,0.4014,0.4028,0.4028,-1.2557,-1.2681,-1.2531,-1.1894,-1.1509,-1.117,-1.0596,-1.0102,-0.9885,-1.0261,-0.9721,0.0,0.0,0.0,-0.8356,-0.8217,0.0,-0.7864,-0.7902,-0.7661,-0.7456,-0.746,-0.7422,-0.73,-0.7031,-0.7192,-0.73,-0.7413,-0.7501,-0.7602,-0.7659,-0.7511,-0.7454,-0.756,-0.7313,-0.7096,-0.6893,-0.6718,-0.6557,-0.6416,-0.611,-0.5895,-0.568,-0.542,-0.5203,-0.4994,-0.4866,-0.4864,-0.4896,-0.4977,-0.498,-0.4935,-0.4888,-0.4846,-0.4739,-0.4574,-0.4519,-0.4519,-0.4519,-0.4463,-0.4298,-0.4076,-0.3805,-0.3585,-0.3585,-0.2862,-0.2069,-0.2507,-0.1008,0.0715,0.1004,0.1079,0.1078,0.1076,0.1076,0.1076,0.1076,0.1076,0.1076,0.1076,0.1076,0.1076,0.1076,0.1076,0.1076,0.1076,0.1076,0.1076,0.1076,0.1095,0.1257,0.1638,0.1784,0.2086,0.2782,0.2975,0.3171,0.3462,0.3377,0.3367,0.3458,0.3399,0.3436,0.3587,0.3591,0.3624,0.3691,0.3691,0.3736,0.3826,0.3918,0.3938,-1.3585,-1.3569,-1.3362,-1.2482,-1.2158,-1.1701,-1.0409,-1.0333,-1.0401,-0.9904,-1.0162,-1.0238,-0.9619,-0.9474,-0.918,-0.8335,-0.8465,0.0,0.0,-0.8441,-0.8318,-0.7508,-0.725,-0.7031,-0.6756,-0.6701,-0.6815,-0.7085,-0.7348,-0.7509,-0.7509,-0.7632,-0.7858,-0.8171,-0.771,-0.7468,-0.7354,-0.7046,-0.6742,-0.6416,-0.611,-0.5895,-0.568,-0.542,-0.5203,-0.4985,-0.4718,-0.4736,-0.4883,-0.4836,-0.4918,-0.51,-0.4946,-0.4897,-0.4846,-0.4574,-0.4519,-0.4519,-0.4519,-0.4298,-0.4024,-0.4024,-0.3805,-0.3585,-0.3585,-0.3033,-0.2065,-0.0549,-0.0252,-0.0195,0.0803,0.1078,0.1076,0.1076,0.1076,0.1076,0.1076,0.1076,0.1076,0.1076,0.1076,0.1076,0.1076,0.1076,0.1076,0.1076,0.1076,0.1076,0.1076,0.1076,0.1212,0.1551,0.1956,0.2294,0.2696,0.3109,0.3369,0.3369,0.3281,0.3273,0.3365,0.3434,0.3407,0.3501,0.3503,0.3505,0.3507,0.3507,0.3552,0.3636,0.373,0.3818,-1.4057,-1.3858,-1.3418,-1.2775,-1.2351,-1.1877,-1.0953,-1.0851,-1.0835,-1.0577,-1.065,-1.0678,-1.0454,-1.0228,-0.9823,-0.9164,-0.8964,-0.8722,0.0,-0.8238,-0.8014,-0.741,-0.7288,-0.7189,-0.6923,-0.7106,-0.718,-0.7021,-0.7153,-0.73,-0.7467,-0.7547,-0.7592,-0.7591,-0.7567,-0.7388,-0.7065,-0.7111,-0.6933,-0.6671,-0.6582,-0.6228,-0.568,-0.5593,-0.5376,-0.4985,-0.4709,-0.4657,-0.4687,-0.4654,-0.4808,-0.5088,-0.493,-0.498,-0.5053,-0.4668,-0.4519,-0.4519,-0.4519,-0.4298,-0.4024,-0.4024,-0.3805,-0.3585,-0.3585,-0.3388,-0.3099,-0.2549,-0.1284,-0.0,0.0911,0.113,0.1078,0.1078,0.1077,0.1076,0.1076,0.1076,0.1076,0.1076,0.1076,0.1076,0.1076,0.1076,0.1076,0.1076,0.1076,0.1076,0.1076,0.1076,0.1344,0.1951,0.2087,0.2421,0.2958,0.3187,0.3273,0.3273,0.3244,0.324,0.3273,0.3273,0.3316,0.3407,0.3409,0.344,0.3499,0.3499,0.3542,0.3628,0.3658,0.3722,-1.398,-1.3744,-1.3253,-1.2919,-1.2532,-1.2118,-1.1536,-1.1439,-1.1473,-1.1377,-1.1506,-1.1574,-1.1334,-1.1102,-1.0687,-0.986,-0.9403,-0.8897,0.0,-0.7925,-0.7744,-0.7382,-0.744,-0.7321,-0.6809,-0.7097,-0.7115,-0.6632,-0.6869,-0.71,-0.7187,-0.7413,-0.7477,-0.7354,-0.7605,-0.7528,-0.7173,-0.7255,-0.7164,-0.6805,-0.6714,-0.6309,-0.568,-0.5593,-0.5333,-0.4985,-0.4757,-0.4661,-0.4587,-0.4558,-0.4715,-0.4995,-0.4963,-0.5039,-0.505,-0.4723,-0.4519,-0.4519,-0.4519,-0.4298,-0.4024,-0.4024,-0.3805,-0.3585,-0.3585,-0.3588,-0.3506,-0.3096,-0.1852,-0.0429,0.0447,0.0786,0.0932,0.1076,0.1078,0.1077,0.1076,0.1076,0.1076,0.1076,0.1076,0.1076,0.1076,0.1076,0.1076,0.1076,0.1076,0.1076,0.1076,0.1076,0.1412,0.2154,0.2221,0.2488,0.3161,0.3226,0.3226,0.3226,0.3226,0.3226,0.3226,0.3226,0.3254,0.3313,0.3316,0.3344,0.3403,0.3403,0.3448,0.3532,0.3532,0.3597]},{"header":{"parameterUnit":"m.s-1","parameterCategory":1,"la1":30.6,"la2":29.2853,"lo1":-89.7004,"lo2":-87.6739,"dy":0.0162,"dx":0.0183,"nx":112,"ny":82,"refTime":"2024-06-21T06:00:00:Z","depth":0,"parameterNumber":3,"parameterNumberName":"V-component_of_WINDS"},"data":[0.0,0.0,0.0,0.0,0.0,0.0,0.0,0.0,0.0,0.0,0.0,0.0,0.0,0.0,0.0,0.0,0.0,0.0,0.0,0.0,0.0,0.0,0.0,0.0,0.0,0.0,0.0,0.0,0.0,0.0,0.0,0.0,0.0,0.0,0.0,0.0,0.0,0.0,0.0,0.0,0.0,0.0,0.0,0.0,0.0,0.0,0.0,0.0,0.0,0.0,0.0,0.0,0.0,0.0,0.0,0.0,0.0,0.0,0.0,0.0,0.0,0.0,0.0,0.0,0.0,0.0,0.0,0.0,0.0,0.0,0.0,0.0,0.0,0.0,0.0,0.0,0.0,0.0,0.0,0.0,0.0,0.0,0.0,0.0,0.0,0.0,0.0,0.0,0.0,0.0,-2.7759,-2.8446,-2.7896,-2.7445,-2.7349,-2.6654,-2.6238,-2.6303,0.0,0.0,0.0,0.0,0.0,0.0,0.0,0.0,0.0,0.0,0.0,0.0,0.0,0.0,0.0,0.0,0.0,0.0,0.0,0.0,0.0,0.0,0.0,0.0,0.0,0.0,0.0,0.0,0.0,0.0,0.0,0.0,0.0,0.0,0.0,0.0,0.0,0.0,0.0,0.0,0.0,0.0,0.0,0.0,0.0,0.0,0.0,0.0,0.0,0.0,0.0,0.0,0.0,0.0,0.0,0.0,0.0,0.0,0.0,0.0,0.0,0.0,0.0,0.0,0.0,0.0,0.0,0.0,0.0,0.0,0.0,0.0,0.0,0.0,0.0,0.0,0.0,0.0,0.0,0.0,0.0,0.0,0.0,0.0,0.0,0.0,0.0,0.0,0.0,0.0,0.0,0.0,0.0,0.0,0.0,0.0,0.0,0.0,0.0,0.0,0.0,0.0,0.0,0.0,-2.7551,-2.7684,-2.757,-2.7494,-2.7479,-2.6731,-2.6284,-2.6303,0.0,0.0,0.0,0.0,0.0,0.0,0.0,0.0,0.0,0.0,0.0,0.0,0.0,0.0,0.0,0.0,0.0,0.0,0.0,0.0,0.0,0.0,0.0,0.0,0.0,0.0,0.0,0.0,0.0,0.0,0.0,0.0,0.0,0.0,0.0,0.0,0.0,0.0,0.0,0.0,0.0,0.0,0.0,0.0,0.0,0.0,0.0,0.0,0.0,0.0,0.0,0.0,0.0,0.0,0.0,0.0,0.0,0.0,0.0,0.0,0.0,0.0,0.0,0.0,0.0,0.0,0.0,0.0,0.0,0.0,0.0,0.0,0.0,0.0,0.0,0.0,0.0,0.0,0.0,0.0,0.0,0.0,0.0,0.0,0.0,0.0,0.0,0.0,0.0,0.0,0.0,0.0,0.0,0.0,0.0,0.0,0.0,0.0,0.0,0.0,0.0,0.0,0.0,-2.8275,-2.8806,-2.8806,-2.8806,-2.8806,-2.8806,-2.766,-2.6982,-2.6996,-2.5806,0.0,0.0,0.0,0.0,0.0,0.0,0.0,0.0,0.0,0.0,0.0,0.0,0.0,0.0,0.0,0.0,0.0,0.0,0.0,0.0,0.0,0.0,0.0,0.0,0.0,0.0,0.0,0.0,0.0,0.0,0.0,0.0,0.0,0.0,0.0,0.0,0.0,0.0,0.0,0.0,0.0,0.0,0.0,0.0,0.0,0.0,0.0,0.0,0.0,0.0,0.0,0.0,0.0,0.0,0.0,0.0,0.0,0.0,0.0,0.0,0.0,0.0,0.0,0.0,0.0,0.0,0.0,0.0,0.0,0.0,0.0,0.0,0.0,0.0,0.0,0.0,0.0,0.0,0.0,0.0,0.0,0.0,0.0,0.0,0.0,0.0,0.0,0.0,0.0,0.0,0.0,0.0,0.0,0.0,0.0,0.0,0.0,0.0,0.0,0.0,0.0,0.0,-2.9339,-2.968,-2.9869,-2.9905,-2.9905,-2.9905,-2.8449,-2.7561,-2.7608,-2.6035,0.0,0.0,0.0,0.0,0.0,0.0,0.0,0.0,0.0,0.0,0.0,0.0,0.0,0.0,0.0,0.0,0.0,0.0,0.0,0.0,0.0,0.0,0.0,0.0,0.0,0.0,0.0,0.0,0.0,0.0,0.0,0.0,0.0,0.0,0.0,0.0,0.0,0.0,0.0,0.0,0.0,0.0,0.0,0.0,0.0,0.0,0.0,0.0,0.0,0.0,0.0,0.0,0.0,0.0,0.0,0.0,0.0,0.0,0.0,0.0,0.0,0.0,0.0,0.0,0.0,0.0,0.0,0.0,0.0,0.0,0.0,0.0,0.0,0.0,0.0,0.0,0.0,0.0,0.0,0.0,0.0,0.0,0.0,0.0,0.0,0.0,0.0,0.0,0.0,0.0,0.0,0.0,0.0,0.0,0.0,0.0,0.0,0.0,0.0,0.0,0.0,0.0,-2.9207,-2.9074,-2.9813,-2.9956,-2.9988,-2.9988,-2.8508,-2.7592,-2.7592,-2.6084,0.0,0.0,0.0,0.0,0.0,0.0,0.0,0.0,0.0,0.0,0.0,0.0,0.0,0.0,0.0,0.0,0.0,0.0,0.0,0.0,0.0,0.0,0.0,0.0,0.0,0.0,0.0,0.0,0.0,0.0,0.0,0.0,0.0,0.0,0.0,0.0,0.0,0.0,0.0,0.0,0.0,0.0,0.0,0.0,0.0,0.0,0.0,0.0,0.0,0.0,0.0,0.0,0.0,0.0,0.0,0.0,0.0,0.0,0.0,0.0,0.0,0.0,0.0,0.0,0.0,0.0,0.0,0.0,0.0,0.0,0.0,0.0,0.0,0.0,0.0,0.0,0.0,0.0,0.0,0.0,0.0,0.0,0.0,0.0,0.0,0.0,0.0,0.0,0.0,0.0,0.0,0.0,0.0,0.0,0.0,0.0,0.0,0.0,0.0,0.0,0.0,0.0,-2.9722,-2.968,-2.9984,-3.0038,-3.0053,-3.0053,-2.8555,-2.7592,-2.7592,0.0,0.0,0.0,0.0,0.0,0.0,0.0,0.0,0.0,0.0,0.0,0.0,0.0,0.0,0.0,0.0,0.0,0.0,0.0,0.0,0.0,0.0,0.0,0.0,0.0,0.0,0.0,0.0,0.0,0.0,0.0,0.0,0.0,0.0,0.0,0.0,0.0,0.0,0.0,0.0,0.0,0.0,0.0,0.0,0.0,0.0,0.0,0.0,0.0,0.0,0.0,0.0,0.0,0.0,0.0,0.0,0.0,0.0,0.0,0.0,0.0,0.0,0.0,0.0,0.0,0.0,0.0,0.0,0.0,0.0,0.0,0.0,0.0,0.0,0.0,0.0,0.0,0.0,0.0,0.0,0.0,0.0,0.0,0.0,0.0,0.0,0.0,0.0,0.0,0.0,0.0,0.0,0.0,0.0,0.0,0.0,0.0,0.0,0.0,0.0,0.0,0.0,-2.9829,-3.0072,-3.0102,-3.0102,-3.0102,-3.0098,-3.0098,-2.8583,-2.7624,-2.7624,0.0,0.0,0.0,0.0,0.0,0.0,0.0,0.0,0.0,0.0,0.0,0.0,0.0,0.0,0.0,0.0,0.0,0.0,0.0,0.0,0.0,0.0,0.0,0.0,0.0,0.0,0.0,0.0,0.0,0.0,0.0,0.0,0.0,0.0,0.0,0.0,0.0,0.0,0.0,0.0,0.0,0.0,0.0,0.0,0.0,0.0,0.0,0.0,0.0,0.0,0.0,0.0,0.0,0.0,0.0,0.0,0.0,0.0,0.0,0.0,0.0,0.0,0.0,0.0,0.0,0.0,0.0,0.0,0.0,0.0,0.0,0.0,0.0,0.0,0.0,0.0,0.0,0.0,0.0,0.0,0.0,0.0,0.0,0.0,0.0,0.0,0.0,0.0,0.0,0.0,0.0,0.0,0.0,0.0,0.0,0.0,0.0,0.0,0.0,0.0,0.0,0.0,-2.9874,-3.0102,-3.0102,-3.0102,-3.0113,-3.0109,-3.0109,-2.863,-2.7701,0.0,0.0,0.0,0.0,0.0,0.0,0.0,0.0,0.0,0.0,0.0,0.0,0.0,0.0,0.0,0.0,0.0,0.0,0.0,0.0,0.0,0.0,0.0,0.0,0.0,0.0,0.0,0.0,0.0,0.0,0.0,0.0,0.0,0.0,0.0,0.0,0.0,0.0,0.0,0.0,0.0,0.0,0.0,0.0,0.0,0.0,0.0,0.0,0.0,0.0,0.0,0.0,0.0,0.0,0.0,0.0,0.0,0.0,0.0,0.0,0.0,0.0,0.0,0.0,0.0,0.0,0.0,0.0,0.0,0.0,0.0,0.0,0.0,0.0,0.0,0.0,0.0,0.0,0.0,0.0,0.0,0.0,0.0,0.0,0.0,0.0,0.0,0.0,0.0,0.0,0.0,0.0,0.0,0.0,0.0,0.0,0.0,0.0,0.0,0.0,0.0,0.0,0.0,-2.9122,-2.9799,-3.0176,-3.0176,-3.0171,-3.0171,-3.0171,-2.8643,-2.7701,-2.7708,0.0,0.0,0.0,0.0,0.0,0.0,0.0,0.0,0.0,0.0,0.0,0.0,0.0,0.0,0.0,0.0,0.0,0.0,0.0,0.0,0.0,0.0,0.0,0.0,0.0,0.0,0.0,0.0,0.0,0.0,0.0,0.0,0.0,0.0,0.0,0.0,0.0,0.0,0.0,0.0,0.0,0.0,0.0,0.0,0.0,0.0,0.0,0.0,0.0,0.0,0.0,0.0,0.0,0.0,0.0,0.0,0.0,0.0,0.0,0.0,0.0,0.0,0.0,0.0,0.0,0.0,0.0,0.0,0.0,0.0,0.0,0.0,0.0,0.0,0.0,0.0,0.0,0.0,0.0,0.0,0.0,0.0,0.0,0.0,0.0,0.0,0.0,0.0,0.0,0.0,0.0,0.0,0.0,0.0,0.0,0.0,0.0,0.0,0.0,0.0,0.0,0.0,-2.8802,-2.9655,-3.0204,-3.0204,-3.0204,-3.0199,-3.0199,-2.8651,-2.7708,-2.7745,0.0,0.0,0.0,0.0,0.0,0.0,0.0,0.0,0.0,0.0,0.0,0.0,0.0,0.0,0.0,0.0,0.0,0.0,0.0,0.0,0.0,0.0,0.0,0.0,0.0,0.0,0.0,0.0,0.0,0.0,0.0,0.0,0.0,0.0,0.0,0.0,0.0,0.0,0.0,0.0,0.0,0.0,0.0,0.0,0.0,0.0,0.0,0.0,0.0,0.0,0.0,0.0,0.0,0.0,0.0,0.0,0.0,0.0,0.0,0.0,0.0,0.0,0.0,0.0,0.0,0.0,0.0,0.0,0.0,0.0,0.0,0.0,0.0,0.0,0.0,0.0,0.0,0.0,0.0,0.0,0.0,0.0,0.0,0.0,0.0,0.0,0.0,0.0,0.0,0.0,0.0,0.0,0.0,0.0,0.0,0.0,0.0,0.0,0.0,0.0,0.0,0.0,-2.8796,-2.9669,-3.0204,-3.0199,-3.0199,-3.0199,-3.0207,-2.867,-2.7745,-2.78,0.0,0.0,0.0,0.0,0.0,0.0,0.0,0.0,0.0,0.0,0.0,0.0,0.0,0.0,0.0,0.0,0.0,0.0,0.0,0.0,0.0,0.0,0.0,0.0,0.0,0.0,0.0,0.0,0.0,0.0,0.0,0.0,0.0,0.0,0.0,0.0,0.0,0.0,0.0,0.0,0.0,0.0,0.0,0.0,0.0,0.0,0.0,0.0,0.0,0.0,0.0,0.0,0.0,0.0,0.0,0.0,0.0,0.0,0.0,0.0,-2.5415,-2.547,0.0,0.0,0.0,0.0,0.0,0.0,0.0,0.0,0.0,0.0,0.0,0.0,0.0,0.0,0.0,0.0,0.0,0.0,0.0,0.0,0.0,0.0,0.0,0.0,0.0,0.0,0.0,0.0,0.0,0.0,0.0,0.0,0.0,0.0,0.0,0.0,0.0,0.0,0.0,0.0,-2.8796,-2.9669,-3.0199,-3.0194,-3.0207,-3.0221,-3.0279,-2.8746,-2.7781,-2.7804,-2.6222,0.0,0.0,0.0,0.0,0.0,0.0,0.0,0.0,0.0,0.0,0.0,0.0,0.0,0.0,0.0,0.0,0.0,0.0,0.0,0.0,0.0,0.0,0.0,0.0,0.0,0.0,0.0,0.0,0.0,0.0,0.0,0.0,0.0,0.0,0.0,0.0,0.0,0.0,0.0,0.0,0.0,0.0,0.0,0.0,0.0,0.0,0.0,0.0,0.0,0.0,0.0,0.0,0.0,0.0,0.0,0.0,0.0,0.0,0.0,-2.5972,-2.5727,0.0,0.0,0.0,0.0,0.0,0.0,0.0,0.0,0.0,0.0,0.0,0.0,0.0,0.0,0.0,0.0,0.0,0.0,0.0,0.0,0.0,0.0,0.0,0.0,0.0,0.0,0.0,0.0,0.0,0.0,0.0,0.0,0.0,0.0,0.0,0.0,0.0,0.0,0.0,0.0,-2.8796,-2.9664,-3.0194,-3.0207,-3.0234,-3.026,-3.0299,-2.9147,-2.8257,-2.7868,-2.6638,0.0,0.0,0.0,0.0,0.0,0.0,0.0,0.0,0.0,0.0,0.0,0.0,0.0,0.0,0.0,0.0,0.0,0.0,0.0,0.0,0.0,0.0,0.0,0.0,0.0,0.0,0.0,0.0,0.0,0.0,0.0,0.0,0.0,0.0,0.0,0.0,0.0,0.0,0.0,0.0,0.0,0.0,0.0,0.0,0.0,0.0,0.0,0.0,0.0,0.0,0.0,0.0,0.0,-2.796,-2.8304,-2.8793,-2.8123,-2.8196,-2.8728,-2.6918,-2.6444,-2.7009,-2.6915,0.0,0.0,0.0,0.0,0.0,0.0,0.0,0.0,0.0,0.0,0.0,0.0,0.0,0.0,0.0,0.0,0.0,0.0,0.0,0.0,0.0,0.0,-2.7075,-2.7666,-2.78,-2.7405,-2.596,0.0,0.0,0.0,0.0,0.0,0.0,0.0,0.0,0.0,0.0,0.0,-2.9052,-2.9767,-3.0221,-3.0215,-3.026,-3.0299,-3.0316,-2.9567,-2.8829,-2.814,-2.7159,-2.5986,0.0,0.0,0.0,0.0,0.0,0.0,0.0,0.0,0.0,0.0,0.0,0.0,0.0,0.0,0.0,0.0,0.0,0.0,0.0,0.0,0.0,0.0,0.0,0.0,0.0,0.0,0.0,0.0,0.0,0.0,0.0,0.0,-2.0578,-2.1171,0.0,0.0,0.0,0.0,0.0,0.0,0.0,0.0,0.0,0.0,0.0,0.0,0.0,-2.787,-2.9163,-2.9373,-2.9463,-2.9481,-3.0188,-3.0206,-2.9626,-2.9518,-2.9562,-2.9704,-2.9403,0.0,-2.8592,-2.7335,0.0,0.0,0.0,0.0,0.0,0.0,0.0,0.0,0.0,0.0,0.0,0.0,0.0,0.0,0.0,0.0,0.0,0.0,0.0,0.0,0.0,0.0,-2.8528,-2.7934,-2.78,-2.7742,-2.7501,-2.7539,-2.7826,-2.8511,-2.747,-2.6983,0.0,0.0,0.0,0.0,0.0,0.0,-2.9998,-3.0222,-3.0292,-3.0292,-3.0292,-3.0316,-3.0379,-2.9602,-2.9044,-2.8948,-2.7467,-2.6505,-2.6274,-2.4966,0.0,0.0,0.0,0.0,0.0,0.0,0.0,0.0,0.0,0.0,0.0,0.0,0.0,0.0,0.0,0.0,0.0,0.0,0.0,0.0,0.0,0.0,0.0,0.0,0.0,0.0,0.0,0.0,0.0,-1.9983,-2.0661,-2.1405,-2.1514,-2.1676,0.0,0.0,0.0,0.0,0.0,0.0,0.0,0.0,0.0,-2.8026,-2.8522,-2.9083,-2.9771,-3.0242,-3.0459,-3.0459,-3.0822,-3.0803,-3.0459,-3.0513,-3.0539,-3.0566,-3.0644,-3.0545,-3.0204,-2.9118,-2.8561,-2.8465,0.0,0.0,0.0,0.0,-2.8236,-2.7873,-2.83,-2.8192,-2.7961,-2.8325,0.0,0.0,0.0,0.0,0.0,0.0,0.0,-2.8713,-2.9728,-3.0227,-3.0503,-3.0643,-3.0662,-3.0669,-3.0676,-3.0669,-3.0343,-2.9219,-2.8797,-2.8874,-2.9609,-2.8727,0.0,0.0,0.0,-3.0203,-3.1519,-3.1738,-3.177,-3.1764,-3.1354,-3.1109,-3.1141,-3.0333,-2.9621,-2.9121,-2.8409,-2.7794,-2.7351,-2.6159,-2.5505,0.0,0.0,0.0,0.0,0.0,0.0,0.0,0.0,0.0,0.0,0.0,0.0,0.0,0.0,0.0,0.0,0.0,0.0,0.0,0.0,0.0,0.0,0.0,0.0,0.0,0.0,0.0,0.0,-2.0789,-2.1206,-2.1984,-2.2274,-2.2636,0.0,0.0,0.0,0.0,0.0,0.0,-2.761,-2.7906,-2.8377,-2.9192,-2.9789,-3.0206,-3.0405,-3.1003,-3.1401,-3.16,-3.16,-3.1628,-3.1628,-3.171,-3.161,-3.1482,-3.1762,-3.1847,-3.1666,-3.0791,-3.013,-2.9768,-3.0563,-3.0506,-3.0022,-3.039,-3.0109,-2.9606,-2.9882,-2.9839,-2.9704,-2.9934,-2.9894,-2.964,-2.8983,0.0,0.0,0.0,0.0,-3.0042,-3.1609,-3.1975,-3.2097,-3.2756,-3.2891,-3.2897,-3.2891,-3.2897,-3.2398,-3.0637,-3.051,-3.0797,-3.1207,-3.0382,0.0,-3.1686,-3.1392,-3.1411,-3.2672,-3.2878,-3.2891,-3.2891,-3.2359,-3.1929,-3.1718,-3.1121,-3.0371,-2.9486,-2.9217,-2.8832,-2.8217,-2.739,-2.6832,-2.6601,0.0,0.0,0.0,0.0,0.0,0.0,0.0,0.0,0.0,0.0,0.0,0.0,0.0,0.0,0.0,0.0,0.0,0.0,0.0,0.0,0.0,0.0,0.0,0.0,0.0,0.0,0.0,0.0,0.0,-2.3596,-2.4357,0.0,0.0,0.0,0.0,-2.6131,-2.6856,-2.7652,-2.8478,-2.9264,-3.0043,-3.084,-3.0912,-3.131,-3.2071,-3.2125,-3.2524,-3.3284,-3.3284,-3.3296,-3.3382,-3.3382,-3.3049,-3.2464,-3.3241,-3.3316,-3.2836,-3.1783,-3.1098,-3.0714,-3.079,-3.0557,-3.0285,-3.114,-3.1417,-3.1484,-3.2321,-3.2114,-3.1623,-3.2436,-3.2193,-3.1564,-3.1525,-3.0929,0.0,0.0,-3.1583,-3.1756,-3.2622,-3.2833,-3.2852,-3.2891,-3.2891,-3.2891,-3.291,-3.291,-3.309,-3.3717,-3.2635,-3.2109,-3.3646,0.0,-3.1783,-3.2705,-3.2801,-3.2795,-3.2878,-3.291,-3.291,-3.291,-3.2852,-3.2526,-3.1756,-3.166,-3.1256,-3.0379,-2.9563,-2.9083,-2.9044,-2.8255,-2.7448,-2.6621,-2.6564,0.0,0.0,0.0,0.0,0.0,0.0,0.0,0.0,0.0,0.0,0.0,0.0,0.0,0.0,0.0,0.0,0.0,0.0,0.0,0.0,0.0,0.0,0.0,0.0,0.0,0.0,0.0,0.0,-2.4675,-2.5368,0.0,-2.6493,-2.6801,-2.7399,-2.8431,-2.8775,-2.9518,-3.0858,-3.1184,-3.1709,-3.2524,-3.2542,-3.2687,-3.2977,-3.2977,-3.3121,-3.3393,-3.3452,-3.3481,-3.3491,-3.3605,-3.3497,-3.3296,-3.3792,-3.3932,-3.3733,-3.351,-3.3007,-3.2425,-3.26,-3.2255,-3.1727,-3.2745,-3.2785,-3.2379,-3.2727,-3.2691,-3.2487,-3.2808,-3.2705,-3.2468,-3.2468,-3.2256,-3.2199,-3.3064,-3.3314,-3.3506,-3.4353,-3.4584,-3.4584,-3.4584,-3.4584,-3.4584,-3.4584,-3.4584,-3.4647,-3.4955,-3.3628,-3.266,-3.3224,-3.284,-3.2724,-3.3609,-3.3743,-3.3936,-3.4507,-3.4584,-3.4584,-3.4584,-3.4064,-3.3622,-3.3333,-3.2314,-3.1564,-3.1256,-3.0433,-2.9943,-2.9943,-2.9156,-2.8338,-2.7441,-2.693,-2.5839,0.0,0.0,0.0,0.0,0.0,0.0,0.0,0.0,0.0,0.0,0.0,0.0,0.0,0.0,0.0,0.0,0.0,0.0,0.0,0.0,0.0,0.0,0.0,0.0,0.0,-2.4118,-2.491,-2.5658,-2.6575,-2.7313,-2.7761,-2.8304,-2.9065,-3.0115,-3.0441,-3.1075,-3.2144,-3.2451,-3.2977,-3.3791,-3.381,-3.3936,-3.4208,-3.4238,-3.4238,-3.4208,-3.4309,-3.432,-3.435,-3.4541,-3.4678,-3.4723,-3.5021,-3.5212,-3.5281,-3.5418,-3.5224,-3.4775,-3.4282,-3.3824,-3.3473,-3.4174,-3.4121,-3.3686,-3.3761,-3.3774,-3.3788,-3.3782,-3.3968,-3.418,-3.418,-3.4391,-3.4737,-3.5315,-3.5276,-3.518,-3.5757,-3.5699,-3.5493,-3.5493,-3.5493,-3.5493,-3.5493,-3.5493,-3.5584,-3.5853,-3.4757,-3.3853,-3.4141,-3.418,-3.4372,-3.4949,-3.5045,-3.5141,-3.5468,-3.5493,-3.5493,-3.5493,-3.4988,-3.4391,-3.3814,-3.2737,-3.1852,-3.1306,-3.0714,-3.0398,-3.0428,-2.964,-2.8782,-2.7914,-2.7112,-2.6298,-2.5476,0.0,0.0,0.0,0.0,0.0,0.0,0.0,0.0,0.0,0.0,0.0,0.0,0.0,0.0,0.0,0.0,0.0,0.0,0.0,0.0,0.0,0.0,0.0,-2.4568,-2.526,-2.6024,-2.6622,-2.8107,-2.8965,-2.8746,-3.0115,-3.1066,-3.1057,-3.1799,-3.2252,-3.227,-3.3013,-3.381,-3.4624,-3.4643,-3.5023,-3.5802,-3.5877,-3.5877,-3.5802,-3.5951,-3.5994,-3.6024,-3.6353,-3.6586,-3.6726,-3.6902,-3.7128,-3.7392,-3.7355,-3.749,-3.7572,-3.5722,-3.5148,-3.5388,-3.5388,-3.5415,-3.5489,-3.557,-3.5584,-3.5584,-3.5584,-3.6122,-3.6738,-3.6738,-3.7334,-3.8007,-3.8007,-3.7392,-3.6738,-3.6738,-3.6161,-3.5584,-3.5584,-3.5584,-3.5584,-3.5584,-3.5584,-3.5815,-3.6603,-3.6122,-3.5834,-3.6622,-3.6738,-3.6738,-3.6738,-3.6738,0.0,-3.5641,-3.5545,-3.5526,-3.5507,-3.5507,-3.4814,-3.3122,-3.2929,-3.2211,-3.059,-3.0436,-3.0428,-3.0537,-2.9737,-2.8869,-2.8,-2.7189,-2.7177,-2.7995,0.0,0.0,0.0,0.0,0.0,0.0,0.0,0.0,0.0,0.0,0.0,0.0,0.0,0.0,0.0,0.0,0.0,0.0,0.0,0.0,0.0,-2.4858,-2.5552,-2.5522,-2.6742,-2.7941,-2.8689,-2.9537,-3.0475,-3.14,-3.1887,-3.2319,-3.2716,-3.294,-3.3321,-3.3918,-3.4154,-3.4643,-3.5457,-3.552,-3.5628,-3.582,-3.5921,-3.5951,-3.5859,-3.5994,-3.6164,-3.638,-3.6578,-3.6739,-3.6902,-3.6505,-3.6744,-3.7317,-3.6307,-3.6258,-3.6881,-3.6967,-3.7077,-3.7194,-3.7191,-3.7237,-3.73,-3.7315,-3.7315,-3.7315,-3.7315,-3.7469,-3.7642,-3.7642,-3.7815,-3.8007,-3.8007,-3.7834,-3.7642,-3.7642,-3.7488,-3.7315,-3.7315,-3.7315,-3.7315,-3.7315,-3.7315,-3.7373,-3.7603,-3.7497,-3.7453,-3.7603,-3.7642,-3.7642,-3.7642,-3.769,-3.7415,-3.6548,-3.6427,-3.619,-3.5566,-3.5489,-3.5316,-3.4835,-3.366,-3.2786,-3.2301,-3.1135,-3.0751,-3.1428,-3.1207,-3.0695,-2.9863,-2.9022,-2.8393,0.0,0.0,0.0,0.0,0.0,0.0,0.0,0.0,0.0,0.0,0.0,0.0,0.0,0.0,0.0,0.0,0.0,0.0,0.0,0.0,0.0,0.0,-2.6091,-2.7207,-2.7565,-2.847,-2.9341,-3.0058,-3.1048,-3.1961,-3.2711,-3.3075,-3.3405,-3.3716,-3.3726,-3.4073,-3.4907,-3.4944,-3.5475,-3.6648,-3.6736,-3.6864,-3.7173,-3.7329,-3.7339,-3.7282,-3.7442,-3.7561,-3.7683,-3.7916,-3.8085,-3.8188,-3.7583,-3.7604,-3.7985,-3.6814,-3.6648,-3.7067,0.0,0.0,0.0,0.0,-3.7127,-3.7469,-3.7469,-3.77,-3.8007,-3.8007,-3.8257,-3.8546,-3.8546,-3.8777,-3.9046,-3.9046,-3.8796,-3.8546,-3.8546,-3.8277,-3.8007,-3.8036,-3.8036,-3.8036,-3.8031,-3.8045,-3.8161,-3.8527,-3.8618,0.0,-3.9047,-3.8816,-3.8604,-3.8604,-3.8618,-3.8323,-3.7456,-3.7334,-3.7019,-3.6145,-3.6029,-3.5759,-3.5065,-3.4101,0.0,0.0,0.0,-3.1651,-3.1796,-3.1806,0.0,0.0,0.0,0.0,0.0,-3.0636,0.0,0.0,-3.0752,-3.1062,0.0,0.0,0.0,0.0,0.0,0.0,0.0,0.0,0.0,0.0,0.0,0.0,0.0,0.0,0.0,0.0,-2.7271,-2.9036,-3.0,-3.0208,-3.05,-3.1149,-3.2389,-3.3187,-3.3175,-3.3817,-3.4221,-3.4197,-3.4271,-3.4705,-3.551,-3.5615,0.0,0.0,0.0,-3.8398,-3.9107,-3.9231,-3.9301,-3.9205,-3.9414,-3.9439,-3.9377,-3.9743,-3.9914,-3.9899,-3.9166,-3.8916,-3.8916,-3.7936,-3.7565,-3.7482,-3.6136,-3.5633,-3.5701,-3.5762,-3.6238,-3.6853,-3.6853,0.0,0.0,-3.8007,-3.8527,-3.9142,-3.9142,-3.9719,-4.0354,-4.0354,-3.9912,-3.9431,-3.9446,-3.8869,-3.831,-3.8367,-3.8367,-3.8381,-3.8389,-3.8369,-3.8601,-3.9392,-3.954,-3.9772,-4.0486,-4.0023,-3.9527,-3.9527,-3.954,-3.9232,-3.8363,-3.8247,-3.7919,-3.7051,-3.6954,0.0,-3.4735,-3.4504,-3.4091,-3.3293,-3.3255,-3.2898,-3.2126,-3.2184,-3.2203,-3.2106,-3.2087,-3.2435,-3.3102,-3.3198,-3.3237,-3.3218,-3.2358,-3.2474,0.0,0.0,0.0,0.0,0.0,0.0,0.0,0.0,0.0,0.0,0.0,0.0,0.0,0.0,0.0,-2.7861,-2.8423,-2.9225,-3.0758,-3.1535,-3.2237,-3.3053,-3.2807,-3.3015,-3.4164,-3.4423,-3.4431,-3.4221,-3.4816,-3.5547,-3.6398,-3.7054,-3.7899,-3.891,-3.8992,-3.9066,-3.9178,-3.9389,-3.9414,-3.9282,-3.9414,0.0,-3.9807,-3.9851,-4.0017,-4.0139,-3.8611,-3.8379,-3.8912,-3.6703,-3.5863,-3.6075,-3.7074,-3.7493,-3.7493,-3.7507,-3.7603,-3.7757,-3.7757,-3.7853,-3.8007,-3.8007,-3.8104,-3.8257,-3.8257,-3.8854,0.0,-3.9527,-3.9892,-4.0273,-4.0342,-4.0207,-4.0106,-4.0111,-4.0125,-4.0125,-4.0125,-4.0105,-4.0163,-4.0337,-4.0403,-4.0494,-4.0648,-4.0519,-4.0356,-4.0356,-4.0403,-4.0127,-3.9258,-3.9187,-3.889,-3.8015,-3.7925,-3.7501,-3.6477,-3.5755,-3.5013,-3.4195,-3.4156,-3.4079,-3.3905,-3.4563,-3.4621,-3.3905,-3.3905,-3.3634,-3.3102,-3.3808,-3.4156,-3.4137,-3.3247,-3.3692,0.0,0.0,0.0,0.0,0.0,0.0,0.0,0.0,0.0,0.0,0.0,-2.5404,-2.6187,0.0,-2.7818,-2.8658,-2.9068,-2.9888,-3.1572,-3.1421,-3.1781,-3.3505,-3.3676,-3.3942,-3.4695,-3.4751,-3.4691,-3.4567,-3.5315,-3.6186,-3.7039,-3.7901,-3.8752,-3.9637,-3.9717,-3.9721,-3.9702,-3.9829,-3.987,-3.981,-3.987,-3.9975,-4.0078,-3.9641,-3.9548,-3.9602,-3.7861,-3.7379,-3.7718,-3.6025,-3.5412,-3.5584,-3.643,-3.6757,-3.6757,-3.6757,-3.7007,-3.7353,-3.7353,-3.7642,-3.8007,-3.8007,-3.8003,-3.7998,-3.7998,-3.8339,-3.87,-3.87,-3.8989,-3.9413,-3.987,-4.0,-4.0097,-4.0544,-4.0654,-4.0654,-4.0681,-4.07,-4.07,-4.07,-4.0733,-4.0746,-4.0746,-4.0713,-4.07,-4.07,-4.0733,-4.0591,-4.0166,-4.0133,-3.9823,-3.8941,-3.8851,-3.8504,-3.7614,-3.6745,-3.6079,-3.5684,-3.5259,-3.5046,-3.5046,-3.5472,-3.5684,-3.5646,-3.5646,-3.5646,-3.5654,-3.6091,-3.6303,-3.6284,-3.5858,-3.5897,0.0,0.0,0.0,0.0,0.0,0.0,0.0,0.0,-2.4651,-2.5509,-2.6204,-2.6886,-2.77,-2.8384,-2.8869,-2.9015,-2.9539,-3.0454,-3.1951,-3.1004,-3.0985,-3.3183,-3.4017,-3.4472,-3.4643,-3.4813,-3.4908,-3.4908,-3.5723,-3.652,-3.7243,-3.8098,-3.8973,-3.9851,-3.9929,-4.0101,-4.0444,-4.0521,-4.0616,-4.0788,-4.0788,-4.0788,-4.0769,-4.0043,-3.9602,-3.9235,-3.7357,-3.6469,-3.6328,-3.5667,-3.546,-3.5493,-3.5493,-3.5493,-3.5493,-3.5493,-3.5911,-3.6469,-3.6469,-3.693,-3.7522,-3.7522,-3.7516,-3.7525,-3.7525,-3.7687,-3.7855,-3.7855,-3.797,-3.826,-3.8987,-3.916,-3.9386,-4.0256,-4.0482,-4.052,-4.0752,-4.079,-4.079,-4.079,-4.079,-4.079,-4.079,-4.079,-4.079,-4.079,-4.079,-4.079,-4.079,-4.079,-4.052,-3.9835,-3.9758,-3.9398,-3.8528,-3.7657,-3.7154,-3.7154,-3.6535,-3.6187,-3.6187,-3.6187,-3.6497,-3.7135,-3.7154,-3.7502,-3.8199,-3.8199,-3.8199,-3.8199,-3.8373,-3.8083,-2.2939,-2.2852,-2.2981,-2.3752,-2.3946,-2.4351,0.0,0.0,-2.6435,-2.7247,-2.7497,-2.7797,-2.8605,-2.8826,-2.9122,-2.9855,-2.9981,-3.0314,-3.1212,-3.1174,-3.144,-3.2425,-3.2634,-3.2975,-3.3752,-3.4472,-3.4908,-3.4908,-3.5761,-3.6331,-3.6425,-3.7262,-3.8156,-3.9088,-3.9071,-3.9776,-4.1342,-4.1361,-4.1743,-4.2526,-4.2526,-4.2526,-4.2526,-4.2432,-4.157,-4.0039,-3.769,-3.6243,-3.5532,-3.5498,-3.5493,-3.5493,-3.5493,-3.5493,-3.5493,-3.5493,-3.5565,-3.5641,-3.5641,-3.5694,-3.5772,-3.5772,-3.5817,-3.5861,-3.5861,-3.6382,-3.6948,-3.6948,-3.7488,-3.8138,-3.8292,-3.8344,-3.8537,-3.9424,-3.963,-3.9843,-4.0616,-4.079,-4.079,-4.079,-4.079,-4.079,-4.079,-4.079,-4.079,-4.079,-4.079,-4.079,-4.079,-4.079,-4.0752,-4.0655,-4.0636,-4.0288,-3.9417,-3.8566,-3.8063,-3.8063,-3.7967,-3.7928,-3.7928,-3.7928,-3.7967,-3.8063,-3.8063,-3.8102,-3.8199,-3.8199,-3.8199,-3.8218,-3.8992,-3.9301,-2.431,-2.4362,-2.44,-2.4771,-2.4831,-2.5111,-2.632,-2.6568,-2.691,-2.8185,-2.8466,-2.8702,-2.9516,-2.9627,-2.9717,-3.0045,-3.0022,-3.0243,-3.108,-3.0758,-3.0776,-3.161,-3.2122,-3.2747,-3.3619,-3.4036,-3.4452,-3.4908,-3.5799,-3.6311,-3.6366,-3.7185,-3.8079,-3.8973,-3.947,-4.0291,-4.1495,-4.1991,-4.2183,-4.2049,-4.2565,-4.2546,-4.2087,-4.1589,-4.0457,-3.886,-3.7886,-3.7247,-3.6921,-3.6935,-3.6949,-3.6949,-3.6949,-3.6949,-3.6834,-3.5872,-3.5493,-3.5507,-3.5495,-3.5489,-3.5515,-3.5547,-3.5584,-3.5608,-3.5608,-3.5859,-3.6161,-3.6161,-3.6412,-3.6829,-3.7305,-3.7827,-3.8419,-3.9282,-3.9894,-4.0346,-4.0713,-4.079,-4.079,-4.079,-4.079,-4.079,-4.079,-4.079,-4.079,-4.079,-4.079,-4.079,-4.079,-4.079,-4.079,-4.079,-4.079,-4.0636,-4.0288,-3.9456,-3.8953,-3.8953,-3.8489,-3.8199,-3.8199,-3.8199,-3.845,-3.8953,-3.8988,-3.9243,-3.9708,-3.976,-3.977,-3.977,-4.0149,-4.0305,-2.537,-2.5483,-2.5426,-2.5406,-2.5361,-2.5543,-2.6408,-2.6589,-2.6971,-2.8389,-2.8855,-2.9174,-2.9726,-2.9975,-3.0102,-3.0102,-3.0007,-3.0132,-3.0758,-3.0286,-3.021,-3.1099,-3.1724,-3.2501,-3.3581,-3.394,-3.4338,-3.4944,-3.5589,-3.6005,-3.6077,-3.6668,-3.741,-3.8285,-3.9374,-4.0444,-4.1495,-4.2584,-4.2813,-4.2202,-4.2852,-4.2718,-4.1914,-4.084,-3.9723,-3.8593,-3.8185,-3.8007,-3.8007,-3.8007,-3.8007,-3.8007,-3.8007,-3.8007,-3.7853,-3.6656,-3.6045,-3.5834,-3.5855,-3.5708,-3.5547,-3.5584,-3.5608,-3.5631,-3.5631,-3.5654,-3.5704,-3.5704,-3.5704,-3.582,-3.6419,-3.7038,-3.7735,-3.8586,-3.9262,-3.9862,-4.0326,-4.0442,-4.05,-4.0752,-4.079,-4.079,-4.079,-4.079,-4.079,-4.079,-4.079,-4.079,-4.079,-4.079,-4.079,-4.079,-4.079,-4.079,-4.079,-4.021,-3.9874,-3.9874,-3.9262,-3.8926,-3.8918,-3.8918,-3.922,-3.9863,-3.9926,-4.0257,-4.0828,-4.0888,-4.0907,-4.0907,-4.0907,-4.1024,-2.5593,-2.5538,-2.548,-2.5423,-2.5397,-2.562,-2.6409,-2.6551,-2.6768,-2.7647,-2.8466,-2.8983,-2.8962,-2.957,-3.0094,-3.0102,-3.0038,-2.9991,-2.9943,-2.9907,-3.021,-3.1099,-3.1231,-3.1895,-3.3543,-3.4415,-3.4889,-3.5001,-3.5094,-3.5167,-3.5238,-3.5253,-3.5687,-3.6566,-3.819,-3.9833,-4.1476,-4.3138,-4.3959,-4.394,-4.4019,-4.3618,-4.2699,-4.118,-4.046,-4.0315,-3.87,-3.8007,-3.8007,-3.8007,-3.8007,-3.8007,-3.8007,-3.8007,-3.7988,-3.8026,-3.7453,-3.6661,-3.6741,-3.626,-3.5604,-3.5589,-3.5643,-3.5704,-3.5704,-3.5704,-3.5704,-3.5704,-3.5704,-3.5704,-3.5723,-3.5762,-3.5974,-3.6787,-3.7,-3.7483,-3.9166,-3.9545,-3.9797,-4.0636,-4.079,-4.079,-4.079,-4.079,-4.079,-4.079,-4.079,-4.079,-4.079,-4.079,-4.079,-4.079,-4.079,-4.079,-4.079,-4.0771,-4.0752,-4.0752,-4.0732,-4.073,-4.0729,-4.0729,-4.0751,-4.0859,-4.0869,-4.0869,-4.0907,-4.0907,-4.0907,-4.0907,-4.0907,-4.1354,-2.5603,-2.5556,-2.5492,-2.5476,-2.5423,-2.5601,-2.641,-2.6582,-2.6801,-2.7639,-2.844,-2.8977,-2.8916,-2.956,-3.0083,-3.0038,-2.9972,-2.994,-2.9888,-3.04,-3.0871,-3.1174,-3.2179,-3.3089,-3.3657,-3.3997,-3.4432,-3.5019,-3.5129,-3.5181,-3.5196,-3.5193,-3.5611,-3.6453,-3.8132,-3.9546,-4.0692,-4.2374,-4.2908,-4.2335,-4.2451,-4.2353,-4.2044,-4.1594,-4.105,-4.0469,-3.9892,-3.9662,-3.9662,-3.9662,-3.9662,-3.9662,-3.9662,-3.9677,-3.9726,-3.976,-3.9215,-3.842,-3.7906,-3.7546,-3.723,-3.6648,-3.6485,-3.64,-3.5858,-3.5704,-3.5704,-3.5704,-3.5704,-3.5704,-3.5704,-3.6535,-3.729,-3.698,-3.7773,-3.8624,-3.8644,-3.9088,-3.9603,-3.9894,-4.0404,-4.079,-4.079,-4.079,-4.079,-4.079,-4.079,-4.079,-4.079,-4.079,-4.079,-4.079,-4.079,-4.0796,-4.0792,-4.0792,-4.0815,-4.0848,-4.0877,-4.0868,-4.0859,-4.0859,-4.0869,-4.0907,-4.0935,-4.0971,-4.0971,-4.1003,-4.103,-4.105,-4.1575,-4.1984,-2.5597,-2.5573,-2.5531,-2.555,-2.5483,-2.5556,-2.6063,-2.6381,-2.6755,-2.7259,-2.8011,-2.8626,-2.8853,-2.9313,-2.9825,-3.0383,-3.0148,-3.0097,-3.0703,-3.1042,-3.1421,-3.2027,-3.3032,-3.3809,-3.4093,-3.4205,-3.4469,-3.5054,-3.5147,-3.5162,-3.5209,-3.5209,-3.5611,-3.6453,-3.8132,-3.9431,-4.0291,-4.1953,-4.2393,-4.1571,-4.1356,-4.1272,-4.1267,-4.1319,-4.1027,-4.0489,-4.0489,-4.0489,-4.0489,-4.0489,-4.0504,-4.0539,-4.0539,-4.0554,-4.0598,-4.0617,-4.0318,-3.9747,-3.891,-3.844,-3.8124,-3.7549,-3.7367,-3.727,-3.6748,-3.6593,-3.6535,-3.6226,-3.6342,-3.6516,-3.6207,-3.7386,-3.845,-3.758,-3.845,-3.934,-3.8798,-3.9088,-3.9507,-3.9507,-4.0191,-4.079,-4.079,-4.1067,-4.1369,-4.1679,-4.149,-4.118,-4.0842,-4.079,-4.0803,-4.0808,-4.0808,-4.0812,-4.0828,-4.0839,-4.0849,-4.0907,-4.0907,-4.0917,-4.0935,-4.0935,-4.0943,-4.098,-4.1003,-4.1038,-4.1038,-4.137,-4.1539,-4.1559,-4.2377,-4.2942,-2.5585,-2.5579,-2.5542,-2.5595,-2.554,-2.5493,-2.5484,-2.6034,-2.6554,-2.661,-2.7212,-2.7953,-2.8645,-2.8831,-2.9387,-3.0956,-3.0547,-3.057,-3.2179,-3.1781,-3.1933,0.0,0.0,0.0,0.0,-3.4945,-3.502,-3.5092,-3.5092,-3.5147,-3.525,-3.5267,-3.5668,-3.6547,-3.8151,-3.9412,-4.0234,-4.1858,-4.2317,-4.1623,-4.0869,-4.0515,-4.0489,-4.0489,-4.0489,-4.0489,-4.0489,-4.0504,-4.0523,-4.0523,-4.0539,-4.0607,-4.0607,-4.0598,-4.0621,-4.0687,-4.07,-4.0584,-3.9754,-3.8962,-3.8337,-3.8284,-3.8276,-3.8257,-3.8218,-3.8199,-3.8044,-3.7251,-3.7638,-3.8102,-3.7309,-3.8353,-3.9398,-3.8547,-3.8992,-3.9623,-3.9584,-3.9603,-3.9623,-3.9584,-4.0261,-4.088,-4.0919,-4.1625,-4.2455,-4.328,-4.2761,-4.1927,-4.1001,-4.0861,-4.0866,-4.0865,-4.0876,-4.0897,-4.0966,-4.0966,-4.0956,-4.0917,-4.0917,-4.0935,-4.0996,-4.1015,-4.1038,-4.111,-4.111,-4.113,-4.1169,-4.1929,-4.2318,-4.2396,-4.3254,-4.4111,-2.5414,-2.5156,-2.4846,-2.546,-2.5593,-2.5722,-2.6314,-2.611,-2.5944,-2.6552,-2.6845,-2.6997,-2.7033,-2.8562,-2.9928,-3.0203,-3.1099,0.0,-3.2349,-3.2785,0.0,-3.3657,0.0,-3.4661,-3.4889,-3.4927,-3.4964,-3.5092,-3.5147,-3.5467,-3.6129,-3.6184,-3.6547,-3.7368,-3.8438,-3.9107,-3.9336,-4.0405,-4.0898,-4.0792,-4.0598,-4.0515,-4.0489,-4.0489,-4.0489,-4.0489,-4.0489,-4.0523,-4.0573,-4.0573,-4.0583,-4.0593,-4.0593,-4.064,-4.0687,-4.07,-4.0733,-4.0739,-4.0526,-4.0314,-4.0024,-3.9379,-3.9166,-3.905,-3.8411,-3.8199,-3.8295,-3.8721,-3.8992,-3.9262,-3.9688,-4.0578,-4.1158,-4.0326,-4.0752,-4.1197,-4.0597,-4.0974,-4.1261,-4.0591,-4.1216,-4.2052,-4.2703,-4.3004,-4.3228,-4.3442,-4.3297,-4.285,-4.1965,-4.1839,-4.1849,-4.184,-4.184,-4.1859,-4.1952,-4.1933,-4.1696,-4.1096,-4.1045,-4.1064,-4.1078,-4.1078,-4.1078,-4.111,-4.111,-4.1403,-4.1987,-4.2202,-4.263,-4.3286,-4.4169,-4.4695,-2.5408,-2.5048,-2.4609,-2.5439,-2.59,-2.6197,-2.6252,-2.6462,-2.6657,-2.6687,-2.6711,-2.6771,-2.6973,-2.8176,-2.9442,0.0,0.0,0.0,-3.3354,-3.3619,-3.3828,0.0,-3.4624,0.0,-3.4908,-3.4945,-3.502,-3.5092,-3.5129,-3.5543,-3.6453,-3.6491,-3.7043,-3.8228,-3.8744,-3.9164,-3.9582,-4.0112,-4.0432,-4.0502,-4.0499,-4.0511,-4.0489,-4.0489,-4.0489,-4.0489,-4.0489,-4.0523,-4.0558,-4.0588,-4.0598,-4.0588,-4.0621,-4.0668,-4.0746,-4.0746,-4.0778,-4.079,-4.079,-4.079,-4.0713,-4.023,-4.0055,-3.9978,-3.9495,-3.934,-3.9437,-3.992,-4.0055,-4.0249,-4.11,-4.1951,-4.2454,-4.199,-4.2531,-4.2918,-4.2086,-4.2279,-4.2478,-4.2028,-4.2082,-4.2578,-4.3821,-4.3724,-4.3762,-4.4521,-4.4344,-4.3934,-4.3447,-4.3043,-4.2762,-4.2771,-4.2771,-4.2808,-4.2868,-4.2868,-4.2688,-4.2234,-4.2202,-4.2202,-4.2202,-4.1831,-4.1637,-4.1637,-4.1637,-4.1851,-4.2299,-4.3078,-4.3682,-4.4189,-4.5066,-4.5475,-2.5148,-2.4798,-2.4445,-2.5312,-2.6133,-2.6577,-2.594,-2.6822,-2.7587,-2.6868,-2.6626,-2.6741,-2.7372,-2.7657,-2.8528,-3.0776,0.0,-3.2349,-3.4604,-3.432,-3.4112,-3.4832,-3.4908,-3.4908,-3.4908,-3.5001,-3.5075,-3.5092,-3.5092,-3.5547,-3.6587,-3.6661,-3.7445,-3.9126,-3.9164,-3.9526,-4.0307,-4.0432,-4.0502,-4.0499,-4.0492,-4.0489,-4.0489,-4.0489,-4.0489,-4.0489,-4.0504,-4.0504,-4.0519,-4.0588,-4.0631,-4.0635,-4.07,-4.0746,-4.079,-4.079,-4.079,-4.079,-4.079,-4.079,-4.079,-4.079,-4.079,-4.079,-4.079,-4.079,-4.081,-4.0926,-4.0965,-4.1139,-4.1951,-4.2821,-4.3492,-4.3479,-4.4136,-4.4576,-4.3802,-4.3486,-4.3349,-4.3408,-4.2762,-4.2752,-4.4443,-4.415,-4.4253,-4.5869,-4.5511,-4.5066,-4.5066,-4.4273,-4.3694,-4.3689,-4.3689,-4.3705,-4.3773,-4.378,-4.3721,-4.3598,-4.3598,-4.3598,-4.3598,-4.2864,-4.2474,-4.2474,-4.2474,-4.2533,-4.265,-4.415,-4.4949,-4.5085,-4.5845,-4.6196,-2.3505,-2.3434,-2.3535,-2.4414,-2.527,-2.606,-2.6627,-2.6425,0.0,0.0,-2.6281,-2.5801,-2.5815,-2.694,-2.8418,-3.0047,-3.147,-3.3013,-3.4823,-3.485,-3.4775,0.0,-3.4963,-3.4908,-3.4908,-3.4927,-3.4983,-3.5092,-3.5092,-3.5794,-3.7406,-3.7483,-3.8285,-4.0024,-4.0081,-4.0175,-4.0379,-4.0415,-4.0447,-4.0508,-4.0489,-4.0489,-4.0489,-4.0489,-4.0489,-4.0504,-4.0558,-4.0583,-4.0593,-4.066,-4.072,-4.0778,-4.0778,-4.079,-4.079,-4.079,-4.079,-4.079,-4.079,-4.079,-4.079,-4.079,-4.079,-4.079,-4.079,-4.079,-4.0945,-4.1603,-4.1796,-4.199,-4.286,-4.375,-4.4434,-4.4401,-4.5028,-4.5641,-4.5486,-4.4392,-4.3499,-4.3541,-4.2875,-4.2824,-4.4557,-4.474,-4.5,-4.6033,-4.6059,-4.5962,-4.5962,-4.5195,-4.4662,-4.4669,-4.4669,-4.465,-4.4676,-4.4676,-4.4364,-4.3663,-4.3598,-4.3598,-4.3598,-4.3442,-4.3364,-4.3364,-4.3364,-4.3741,-4.4442,-4.4754,-4.526,-4.5981,-4.6137,-4.6196,-2.3651,-2.3453,-2.3315,-2.4189,-2.5396,-2.6366,-2.6286,0.0,0.0,0.0,-2.5837,-2.5517,-2.5426,-2.6436,0.0,-2.9188,-3.0509,-3.2019,-3.3977,-3.4263,-3.4434,-3.4944,-3.4926,-3.4908,-3.4908,-3.4927,-3.5001,-3.5092,-3.5129,-3.5715,-3.7024,-3.7464,-3.8495,-4.0253,-3.9888,-3.9904,-4.0398,-4.0427,-4.0476,-4.0489,-4.0489,-4.0489,-4.0489,-4.0489,-4.0489,-4.0504,-4.0573,-4.0603,-4.0598,-4.0673,-4.0733,-4.0746,-4.079,-4.079,-4.079,-4.079,-4.079,-4.079,-4.079,-4.079,-4.079,-4.079,-4.079,-4.079,-4.079,-4.079,-4.0965,-4.1777,-4.1699,-4.1673,-4.3015,-4.3361,-4.3463,-4.3916,-4.4358,-4.4536,-4.4059,-4.3404,-4.2883,-4.2926,-4.1877,-4.1695,-4.3858,-4.3858,-4.415,-4.5923,-4.6196,-4.6196,-4.6196,-4.5845,-4.5572,-4.5572,-4.5572,-4.5572,-4.5572,-4.5572,-4.5397,-4.4988,-4.4949,-4.4949,-4.4949,-4.452,-4.4286,-4.4286,-4.4286,-4.4481,-4.489,-4.5358,-4.5787,-4.6196,-4.6196,-4.6196,-2.3979,-2.3764,-2.353,-2.4222,-2.5576,-2.6515,-2.5761,-2.6131,0.0,-2.5653,-2.5493,-2.5485,-2.5418,-2.5953,-2.694,0.0,-2.9417,-3.0757,-3.3241,-3.3601,-3.398,0.0,-3.4927,0.0,-3.4908,-3.4945,-3.502,-3.511,-3.5179,-3.5594,-3.6434,-3.746,-3.8644,-4.0004,-3.9459,-3.9468,-4.0159,-4.0046,-4.0087,-4.0284,-4.0284,-4.0386,-4.0549,-4.0549,-4.0534,-4.0523,-4.0588,-4.0603,-4.0636,-4.0687,-4.0713,-4.0733,-4.0778,-4.079,-4.079,-4.079,-4.079,-4.079,-4.079,-4.079,-4.079,-4.079,-4.081,-4.081,-4.079,-4.0667,-4.0699,-4.1531,-4.1156,-4.0897,-4.2455,-4.2516,-4.2363,-4.3277,-4.3219,-4.2772,-4.2092,-4.1846,-4.1704,-4.1529,-4.0558,-4.0545,-4.2922,-4.2922,-4.341,-4.5825,-4.6196,-4.6196,-4.6196,-4.6196,-4.6196,-4.6196,-4.6196,-4.6196,-4.6196,-4.6196,-4.6196,-4.6196,-4.6196,-4.6196,-4.6196,-4.5533,-4.5183,-4.5183,-4.5183,-4.5183,-4.5183,-4.5864,-4.6196,-4.6196,-4.6196,-4.6196,-2.3396,-2.3735,-2.4303,-2.4375,-2.5122,-2.5782,-2.5636,0.0,-2.5688,-2.5538,-2.5498,-2.5468,-2.541,-2.5462,-2.6246,-2.845,-2.8865,-3.0079,-3.3391,-3.3601,-3.3865,-3.5133,0.0,0.0,-3.4908,-3.4908,-3.4982,-3.5176,-3.5254,-3.5637,-3.647,-3.8131,-3.9103,-3.9197,-3.9265,-3.9331,-3.9405,-3.8672,-3.874,-3.9588,-3.9588,-3.9973,-4.0681,-4.0681,-4.0648,-4.0588,-4.0612,-4.0621,-4.0687,-4.0759,-4.079,-4.079,-4.079,-4.079,-4.079,-4.079,-4.079,-4.079,-4.079,-4.079,-4.079,-4.079,-4.0829,-4.0868,-4.081,-4.0277,-3.9887,-4.069,-4.0334,-3.9937,-4.0878,-4.1693,-4.2477,-4.3314,-4.2341,-4.1213,-4.1135,-4.0551,-3.9799,-3.9,-3.9351,-4.037,-4.2124,-4.3013,-4.4111,-4.5923,-4.6196,-4.6196,-4.6196,-4.6196,-4.6196,-4.6196,-4.6196,-4.6196,-4.6196,-4.6196,-4.6196,-4.6196,-4.6196,-4.6196,-4.6196,-4.6118,-4.6079,-4.6079,-4.6079,-4.6079,-4.6079,-4.6157,-4.6196,-4.6196,-4.6196,-4.6196,-2.3913,-2.4088,-2.433,-2.4345,-2.5001,-2.5624,-2.5562,0.0,-2.5517,-2.5449,-2.5445,-2.5429,-2.5395,-2.5303,-2.5811,-2.7604,-2.7468,0.0,-3.1506,-3.19,-3.2597,-3.4642,-3.4769,-3.4896,-3.549,-3.5113,-3.4927,-3.5108,-3.5251,-3.546,-3.5825,-3.6512,-3.7409,-3.8458,-3.8041,-3.8073,-3.862,-3.8284,-3.833,-3.8781,-3.8781,-3.9189,-3.9927,-3.9927,-4.0165,-4.0607,-4.0593,-4.0654,-4.07,-4.0778,-4.079,-4.079,-4.079,-4.079,-4.079,-4.079,-4.079,-4.079,-4.079,-4.079,-4.0706,-4.02,-4.0056,-4.0106,-4.0037,-3.9458,-3.8878,-3.9219,-3.9063,-3.8907,-3.9291,-3.9692,-3.9961,-3.976,-3.9604,-3.9351,-3.8825,-3.8468,-3.8285,-3.8461,-3.7935,-3.8324,-4.111,-4.1442,-4.2065,-4.4306,-4.5085,-4.5416,-4.5416,-4.5416,-4.5611,-4.6137,-4.6196,-4.6196,-4.6196,-4.6196,-4.6196,-4.6196,-4.6196,-4.6196,-4.6196,-4.6196,-4.6196,-4.6196,-4.6196,-4.6196,-4.6196,-4.6196,-4.6196,-4.6196,-4.6196,-4.6196,-2.4633,-2.4632,-2.4649,-2.4644,-2.5127,-2.5554,-2.5517,-2.5444,-2.5403,-2.535,-2.5293,-2.5245,-2.5253,-2.5118,-2.5412,-2.666,-2.6543,-2.7339,-3.0275,-3.0912,-3.1946,-3.4323,0.0,-3.4827,-3.5579,-3.5189,-3.4946,-3.5092,-3.5219,-3.535,-3.5457,-3.5456,-3.6161,-3.7691,-3.7198,-3.7201,-3.7868,-3.7589,-3.7637,-3.7999,-3.7999,-3.8399,-3.909,-3.9069,-3.9514,-4.0274,-4.0254,-4.0436,-4.0733,-4.0778,-4.079,-4.079,-4.079,-4.079,-4.0771,-4.05,-4.0423,-4.0384,-4.0113,-4.0036,-3.9932,-3.9329,-3.8993,-3.882,-3.8811,-3.8404,-3.8033,-3.8255,-3.835,-3.8366,-3.8415,-3.8267,-3.8032,-3.7662,-3.7662,-3.7623,-3.7272,-3.6999,-3.6999,-3.7603,-3.6941,-3.7233,-4.0195,-4.0429,-4.0955,-4.3247,-4.413,-4.452,-4.452,-4.452,-4.4754,-4.5377,-4.5436,-4.5533,-4.5787,-4.604,-4.6079,-4.5825,-4.6059,-4.6196,-4.6196,-4.6196,-4.6196,-4.6196,-4.6196,-4.6196,-4.6196,-4.6196,-4.6196,-4.6196,-4.6196,-4.6196,-2.5398,-2.5441,-2.549,-2.5493,-2.548,-2.5493,-2.551,-2.5346,-2.5187,-2.5203,-2.503,-2.4917,-2.4917,-2.4845,-2.503,-2.571,-2.6484,-2.7849,-3.0354,-3.1269,-3.2404,0.0,-3.448,-3.4517,-3.4787,-3.4982,-3.5107,-3.5092,-3.5212,-3.5393,-3.5596,-3.559,-3.6008,-3.6881,-3.702,-3.7099,-3.7105,-3.6312,-3.6382,-3.7301,-3.7301,-3.7706,-3.841,-3.8342,-3.8762,-3.9506,-3.9444,-3.9953,-4.079,-4.079,-4.079,-4.079,-4.079,-4.079,-4.0694,-3.9835,-3.9507,-3.9379,-3.8528,-3.8237,-3.8237,-3.8218,-3.7672,-3.7027,-3.7102,-3.7163,-3.7389,-3.8162,-3.8449,-3.85,-3.85,-3.7857,-3.7428,-3.8285,-3.7175,-3.6162,-3.7019,-3.6512,-3.5928,-3.5928,-3.661,-3.7759,-3.9513,-4.0526,-4.1656,-4.3344,-4.3598,-4.3598,-4.3598,-4.3598,-4.3617,-4.3617,-4.3617,-4.3975,-4.4832,-4.5689,-4.5825,-4.4968,-4.5709,-4.6196,-4.6196,-4.6196,-4.6196,-4.6196,-4.6196,-4.6196,-4.6196,-4.6196,-4.6196,-4.6196,-4.6196,-4.6196,-2.5322,-2.534,-2.5378,-2.5412,-2.5421,-2.5404,-2.5255,-2.5215,-2.5163,-2.5012,-2.4943,-2.4904,-2.4831,-2.4737,-2.507,-2.6356,-2.6692,-2.765,0.0,0.0,0.0,-3.3283,-3.4095,-3.4355,-3.3895,-3.451,-3.4982,-3.502,-3.5209,-3.5326,-3.538,-3.5523,-3.5805,-3.6281,-3.6236,-3.6259,-3.6345,-3.6041,-3.607,-3.6404,-3.6404,-3.6793,-3.752,-3.7481,-3.7886,-3.8614,-3.8588,-3.8749,-3.9069,-3.9669,-3.9553,-3.9088,-3.9669,-3.9553,-3.8992,-3.8702,-3.8605,-3.8566,-3.8295,-3.8199,-3.8102,-3.7566,-3.7219,-3.6901,-3.6425,-3.6287,-3.6372,-3.6612,-3.6721,-3.6727,-3.6727,-3.6512,-3.6376,-3.6668,-3.6298,-3.5986,-3.6259,-3.6084,-3.6084,-3.6668,-3.6532,-3.6863,-3.8617,-3.9143,-3.9708,-4.0838,-4.1987,-4.2708,-4.2708,-4.2708,-4.2942,-4.3539,-4.3072,-4.3059,-4.3936,-4.4812,-4.5183,-4.491,-4.5709,-4.6196,-4.6196,-4.6196,-4.6196,-4.6196,-4.6196,-4.6196,-4.6196,-4.6196,-4.6196,-4.6196,-4.6196,-4.6196,-2.506,-2.5283,-2.5322,-2.5361,-2.5361,-2.5332,-2.5203,-2.5096,-2.5,-2.4888,-2.4771,-2.4663,-2.4617,-2.4524,-2.4871,-2.6172,-2.6536,-2.7521,0.0,0.0,0.0,-3.2381,-3.315,-3.3414,-3.2949,-3.3808,-3.4415,-3.4546,-3.4969,-3.5251,-3.5297,-3.5438,-3.5611,-3.5833,-3.582,-3.5855,-3.5991,-3.5951,-3.5951,-3.5991,-3.5991,-3.6235,-3.6674,-3.6657,-3.7086,-3.7824,-3.7771,-3.7943,0.0,-3.8798,-3.8682,-3.8257,-3.8798,-3.8682,-3.816,-3.7831,-3.7715,-3.7677,-3.7367,-3.727,-3.7174,-3.6676,-3.6532,-3.6463,-3.6039,-3.5892,-3.5905,-3.5903,-3.5908,-3.5908,-3.5908,-3.5908,-3.5908,-3.5908,-3.5908,-3.5908,-3.5908,-3.5908,-3.6064,-3.659,-3.6532,-3.6746,-3.7818,-3.8285,-3.8792,-3.9669,-4.0701,-4.1481,-4.1812,-4.1851,-4.2065,-4.2611,-4.2182,-4.2065,-4.2611,-4.3721,-4.4403,-4.4403,-4.5222,-4.5864,-4.6196,-4.6196,-4.6196,-4.6196,-4.6196,-4.6196,-4.6196,-4.6196,-4.6196,-4.6196,-4.6196,-4.6196,0.0,-2.5086,-2.5165,-2.5165,-2.5203,-2.5261,-2.525,-2.4994,0.0,-2.4775,-2.4528,-2.4284,-2.4284,-2.4229,-2.4487,-2.5352,-2.6176,-2.7515,0.0,-3.0319,0.0,-3.1615,-3.184,-3.1927,-3.1991,-3.2882,-3.3488,-3.3692,-3.4466,-3.5005,-3.5172,-3.5268,-3.538,-3.56,-3.5713,-3.5858,-3.5988,-3.5991,-3.5991,-3.5991,-3.5991,-3.5991,-3.5991,-3.5938,-3.6345,-3.7099,-3.6985,-3.7373,-3.8114,-3.8102,-3.8083,-3.8025,-3.8102,-3.8083,-3.7928,-3.7116,-3.6806,-3.6709,-3.5955,-3.5704,-3.5704,-3.5695,-3.5747,-3.5826,-3.5872,-3.5905,-3.5908,-3.5908,-3.5908,-3.5908,-3.5908,-3.5908,-3.5908,-3.5908,-3.5908,-3.5908,-3.5908,-3.5908,-3.5908,-3.5908,-3.6551,-3.7116,-3.7116,-3.7837,-3.8675,-3.9493,-3.9669,-4.0,-4.0818,-4.0974,-4.1013,-4.1013,-4.1052,-4.111,-4.111,-4.2591,-4.35,-4.35,-4.4384,-4.526,-4.6059,-4.6176,-4.6196,-4.6196,-4.6196,-4.6196,-4.6196,-4.6196,-4.6196,-4.6196,-4.6196,-4.6196,-2.2752,0.0,-2.3915,-2.3922,-2.4382,-2.4814,0.0,-2.4632,-2.454,0.0,0.0,-2.4284,-2.4229,-2.421,-2.4468,-2.5294,-2.6597,-2.7956,-2.9218,-3.0009,0.0,-3.0787,-3.1024,-3.1127,-3.1107,-3.2053,-3.2692,-3.2727,-3.3006,-3.347,-3.4129,-3.4267,-3.4688,-3.5512,-3.5546,-3.565,-3.5855,-3.5958,-3.5991,-3.5991,-3.5991,-3.5991,-3.5994,-3.5979,-3.6066,-3.6192,-3.6163,-3.6209,-3.6361,-3.7011,-3.6895,-3.6342,-3.698,-3.6826,-3.6265,-3.6052,-3.5974,-3.5955,-3.5762,-3.5704,-3.5695,-3.5698,-3.5773,-3.5891,-3.5898,-3.5905,-3.5908,-3.5908,-3.5908,-3.5908,-3.5908,-3.5908,-3.5908,-3.5908,-3.5908,-3.5908,-3.5908,-3.5908,-3.5908,-3.5908,-3.6064,-3.6201,-3.6201,-3.6921,-3.7584,-3.7779,-3.8383,-3.8889,-3.9084,-3.9688,-4.0117,-4.0117,-4.0701,-4.111,-4.111,-4.2026,-4.2611,-4.2611,-4.4052,-4.4988,-4.5202,-4.5845,-4.6196,-4.6196,-4.6196,-4.6196,-4.6196,-4.6196,-4.6196,-4.6196,-4.6196,-4.6196,-2.0856,-2.2158,-2.3512,-2.3507,-2.4095,-2.467,-2.4607,0.0,0.0,0.0,0.0,0.0,-2.4209,-2.421,-2.4578,-2.577,-2.6709,0.0,0.0,0.0,-3.0335,-2.9987,-3.0081,-3.0203,-3.0302,-3.1148,-3.1749,-3.1839,-3.2321,-3.279,-3.3227,-3.3347,-3.3838,-3.4773,-3.4867,-3.5183,-3.5748,-3.5833,-3.5855,-3.5855,-3.5919,-3.5958,-3.5955,-3.5982,-3.5979,-3.5932,-3.591,-3.5869,-3.5827,-3.6261,-3.616,-3.5742,-3.6187,-3.6071,-3.5704,-3.5704,-3.5704,-3.5704,-3.5704,-3.5704,-3.5695,-3.5708,-3.5782,-3.5857,-3.5898,-3.5905,-3.5908,-3.5908,-3.5908,-3.5908,-3.5908,-3.5908,-3.5908,-3.5908,-3.5908,-3.5908,-3.5908,-3.5908,-3.5908,-3.5908,-3.622,-3.6376,-3.5967,-3.6629,-3.7194,-3.7194,-3.7603,-3.8052,-3.8441,-3.926,-3.9805,-3.9805,-4.0584,-4.111,-4.111,-4.15,-4.1909,-4.2279,-4.3195,-4.4072,-4.4871,-4.5338,-4.5787,-4.6196,-4.6196,-4.6196,-4.6196,-4.6196,-4.6196,-4.6196,-4.6196,-4.6196,-1.9447,-2.1316,-2.3236,-2.3236,-2.3933,-2.4613,-2.4629,0.0,0.0,0.0,0.0,0.0,0.0,-2.4301,0.0,0.0,0.0,0.0,-2.8812,-2.9739,-2.9965,-2.9191,-2.923,-2.9409,-2.9626,-3.0302,-3.0791,-3.097,-3.1735,-3.2257,-3.239,-3.247,-3.2917,-3.3792,-3.3922,-3.4461,-3.5456,-3.5627,-3.5702,-3.5737,-3.5814,-3.589,-3.5913,-3.5952,-3.5986,-3.5995,-3.5947,-3.5912,-3.5891,-3.5833,-3.5757,-3.5697,-3.5695,-3.5704,-3.5704,-3.5704,-3.5704,-3.5704,-3.5704,-3.5695,-3.5706,-3.5699,-3.5754,-3.5834,-3.5878,-3.5911,-3.5908,-3.5908,-3.5908,-3.5908,-3.5908,-3.5908,-3.5908,-3.5908,-3.5908,-3.5908,-3.5908,-3.5908,-3.5908,-3.5908,-3.6493,-3.6766,-3.6025,-3.6512,-3.6999,-3.6999,-3.6999,-3.7272,-3.8013,-3.887,-3.9454,-3.9591,-4.039,-4.0955,-4.1091,-4.111,-4.1383,-4.2065,-4.2241,-4.302,-4.4637,-4.4832,-4.5241,-4.5981,-4.6137,-4.6196,-4.6196,-4.6196,-4.6196,-4.6196,-4.6196,-4.6196,-2.0057,-2.1092,-2.1967,-2.1967,-2.3088,-2.4209,-2.4247,0.0,0.0,0.0,0.0,0.0,0.0,-2.476,-2.5293,0.0,0.0,-2.7888,-2.8151,-2.8973,-2.9235,-2.8301,-2.8944,-2.9453,-2.9453,-2.9758,-2.9979,-3.0014,-3.0246,-3.0722,-3.1458,-3.1562,-3.2023,-3.2958,-3.3001,-3.344,-3.434,-3.5263,-3.5753,-3.5872,-3.5787,-3.5827,-3.5971,-3.5932,-3.5955,-3.5999,-3.5991,-3.5955,-3.5908,-3.5896,-3.581,-3.569,-3.5698,-3.5704,-3.5704,-3.5704,-3.5704,-3.5704,-3.5704,-3.5697,-3.5699,-3.5773,-3.5834,-3.5898,-3.5891,-3.5908,-3.5908,-3.5908,-3.5908,-3.5908,-3.5908,-3.5908,-3.5908,-3.5908,-3.5908,-3.5908,-3.5908,-3.5908,-3.5908,-3.5908,-3.6006,-3.6064,-3.5928,-3.6006,-3.6103,-3.6103,-3.6103,-3.6142,-3.6279,-3.7058,-3.7876,-3.8617,-3.9474,-4.0292,-4.1033,-4.111,-4.1149,-4.1286,-4.1929,-4.2747,-4.376,-4.4501,-4.4949,-4.5105,-4.5825,-4.6196,-4.6196,-4.6196,-4.6196,-4.6196,-4.6196,-4.6196,-1.9605,-2.0607,-2.1589,-2.1589,-2.2886,-2.417,-2.419,0.0,0.0,0.0,0.0,0.0,0.0,0.0,-2.5755,-2.6659,-2.7414,-2.7896,-2.7938,-2.7943,-2.7779,-2.7354,-2.812,-2.8722,-2.88,-2.9383,-2.9755,-2.9808,-2.9907,-3.0174,-3.0589,-3.067,-3.1111,-3.2015,-3.211,-3.2555,-3.3388,-3.4395,-3.5154,-3.5689,-3.566,-3.5687,-3.5787,-3.5788,-3.5836,-3.5884,-3.5887,-3.5869,-3.5839,-3.589,-3.5822,-3.5698,-3.5736,-3.5723,-3.5704,-3.5704,-3.5704,-3.5704,-3.5704,-3.5706,-3.5718,-3.5747,-3.5773,-3.5807,-3.5885,-3.5905,-3.5911,-3.5903,-3.5908,-3.5908,-3.5908,-3.5908,-3.5908,-3.5908,-3.5908,-3.5908,-3.5908,-3.5908,-3.5908,-3.5908,-3.5908,-3.5908,-3.5908,-3.5908,-3.5908,-3.5908,-3.5908,-3.5908,-3.5908,-3.6668,-3.735,-3.7759,-3.9006,-3.9961,-4.037,-4.0838,-4.111,-4.111,-4.187,-4.2474,-4.2883,-4.3741,-4.4423,-4.489,-4.528,-4.5728,-4.6196,-4.6196,-4.6196,-4.6196,-4.6196,-4.6196,-1.9335,-2.0427,-2.1551,-2.1733,-2.2957,-2.4151,-2.417,-2.417,0.0,0.0,0.0,0.0,0.0,-2.5055,0.0,-2.7474,-2.7761,-2.7721,-2.7377,-2.6974,-2.6645,-2.6445,-2.7207,-2.788,-2.8222,-2.8952,-2.9494,-2.9773,-2.9891,-2.9972,-3.0007,-3.0049,-3.0399,-3.1077,-3.1202,-3.1678,-3.2516,-3.3223,-3.4141,-3.522,-3.5449,-3.5596,-3.563,-3.566,-3.5718,-3.5794,-3.5794,-3.5807,-3.5794,-3.5861,-3.5819,-3.5704,-3.5762,-3.5742,-3.5704,-3.5704,-3.5704,-3.5704,-3.5704,-3.5704,-3.5695,-3.5708,-3.5708,-3.5727,-3.5842,-3.5891,-3.5905,-3.5891,-3.5903,-3.5908,-3.5908,-3.5908,-3.5908,-3.5908,-3.5908,-3.5908,-3.5908,-3.6064,-3.6142,-3.5947,-3.6064,-3.6142,-3.5947,-3.5908,-3.5908,-3.5908,-3.5908,-3.5908,-3.5908,-3.6473,-3.696,-3.7175,-3.8578,-3.9669,-4.0078,-4.0721,-4.111,-4.111,-4.1675,-4.2026,-4.2026,-4.2844,-4.3604,-4.4286,-4.4481,-4.5027,-4.5903,-4.5689,-4.5806,-4.6196,-4.5981,-4.6001,-2.001,-2.0844,-2.1679,-2.2424,-2.328,0.0,-2.4074,-2.4094,0.0,-2.419,0.0,0.0,0.0,-2.5474,-2.6578,-2.6751,-2.7414,-2.7359,-2.589,-2.6317,-2.6522,-2.5764,-2.6451,-2.7269,-2.8031,-2.8334,-2.8837,-2.9645,-2.9823,-2.994,-3.0007,-3.0053,-3.0136,-3.0204,-3.0266,-3.0743,-3.1673,-3.1744,-3.2653,-3.4397,-3.5149,-3.557,-3.5685,-3.5621,-3.5679,-3.5799,-3.5795,-3.5807,-3.5799,-3.5805,-3.5755,-3.5704,-3.5704,-3.5704,-3.5704,-3.5704,-3.5704,-3.5704,-3.5704,-3.5704,-3.5695,-3.5708,-3.5708,-3.5718,-3.5782,-3.585,-3.5905,-3.5905,-3.5905,-3.5908,-3.5908,-3.5908,-3.5908,-3.5908,-3.5908,-3.5908,-3.5908,-3.6532,-3.6863,-3.6064,-3.6551,-3.6844,-3.6045,-3.5908,-3.5908,-3.5908,-3.5908,-3.5908,-3.5908,-3.5947,-3.6298,-3.7116,-3.8032,-3.926,-4.0877,-4.1052,-4.111,-4.111,-4.1149,-4.1188,-4.1188,-4.1968,-4.2416,-4.2494,-4.3273,-4.413,-4.4988,-4.4189,-4.4618,-4.6176,-4.5358,-4.5436,-1.9466,-2.0517,-2.1569,-2.1896,-2.2912,0.0,0.0,-2.4074,-2.4094,-2.4074,-2.4151,0.0,0.0,0.0,-2.6046,-2.6562,-2.6471,-2.6121,-2.5516,-2.5336,-2.5134,-2.4838,-2.5597,-2.6284,-2.6581,-2.7698,-2.8555,-2.8875,-2.9521,-2.9905,-2.994,-3.0007,-3.0053,-3.0098,-3.0176,-3.0398,-3.0791,-3.1335,-3.1955,-3.2694,-3.3493,-3.3903,-3.3978,-3.4492,-3.4766,-3.4844,-3.5424,-3.5687,-3.5678,-3.5715,-3.5723,-3.5646,-3.5104,-3.522,-3.5626,-3.5085,-3.522,-3.5704,-3.5704,-3.5704,-3.5715,-3.5687,-3.5697,-3.5707,-3.5737,-3.5765,-3.5791,-3.5834,-3.5872,-3.5905,-3.5903,-3.5908,-3.5908,-3.5908,-3.5908,-3.5908,-3.5908,-3.6162,-3.6454,-3.6668,-3.6532,-3.6629,-3.7389,-3.7077,-3.6883,-3.7448,-3.7058,-3.6707,-3.6707,-3.624,-3.622,-3.7116,-3.8461,-3.9786,-4.0994,-4.111,-4.111,-4.111,-4.0584,-4.0292,-4.0292,-4.0058,-4.0448,-4.1539,-4.189,-4.2728,-4.4091,-4.376,-4.3936,-4.4598,-4.4793,-4.5085,-1.9517,-2.0481,-2.1569,-2.1822,0.0,0.0,-2.3862,-2.3996,-2.4016,-2.3996,-2.4074,-2.4316,-2.4905,0.0,-2.5474,-2.5786,-2.5585,-2.5311,-2.5072,-2.4597,-2.4284,-2.4284,-2.4893,-2.5429,-2.5689,-2.6839,-2.7806,-2.8367,-2.9089,-2.9607,-2.9888,-2.9956,-3.0022,-3.0102,-3.0142,-3.0199,-3.0266,-3.0861,-3.1175,-3.1263,-3.1821,-3.2359,-3.291,-3.3526,-3.3801,-3.3865,-3.4757,-3.516,-3.5214,-3.5546,-3.5519,-3.5201,-3.4331,-3.435,-3.4833,-3.4524,-3.4775,-3.5336,-3.5607,-3.5704,-3.5704,-3.5704,-3.5704,-3.5695,-3.5688,-3.5708,-3.5736,-3.5791,-3.5857,-3.5905,-3.5903,-3.5908,-3.5908,-3.5908,-3.5908,-3.5908,-3.5908,-3.6123,-3.6493,-3.7077,-3.6941,-3.7097,-3.8285,-3.8013,-3.7818,-3.8402,-3.7993,-3.7603,-3.7603,-3.6844,-3.6649,-3.7525,-3.8675,-3.9844,-4.0994,-4.111,-4.0974,-4.0721,-3.9864,-3.9513,-3.9786,-3.8967,-3.9065,-4.0253,-4.0545,-4.1383,-4.2806,-4.2533,-4.2669,-4.3195,-4.3799,-4.4228,-2.0403,-2.0934,-2.1698,0.0,0.0,0.0,-2.3632,-2.3837,-2.3917,-2.3996,-2.3996,-2.4036,-2.417,-2.4792,-2.5049,-2.4318,-2.4869,-2.5127,-2.43,-2.4247,-2.4284,-2.4284,-2.4411,-2.4816,-2.5615,-2.5759,-2.6536,-2.8237,-2.851,-2.8971,-2.9832,-2.9937,-3.0022,-3.0102,-3.0113,-3.0138,-3.0207,-3.0188,-3.0228,-3.0304,-3.0304,-3.1212,-3.2872,-3.2872,-3.2916,-3.3017,-3.3846,-3.4229,-3.4345,-3.5214,-3.5102,-3.4292,-3.3441,-3.3082,-3.3198,-3.406,-3.4369,-3.4505,-3.5375,-3.5684,-3.5684,-3.5684,-3.5684,-3.5684,-3.5684,-3.5718,-3.5771,-3.5779,-3.5813,-3.5889,-3.5889,-3.5889,-3.5889,-3.5908,-3.5908,-3.5908,-3.5908,-3.6571,-3.7194,-3.7214,-3.7896,-3.85,-3.8519,-3.8519,-3.8519,-3.8519,-3.8519,-3.8519,-3.85,-3.7759,-3.7564,-3.8422,-3.8519,-3.9221,-4.0935,-4.1091,-4.0721,-3.9844,-3.8967,-3.887,-3.9747,-3.8948,-3.848,-3.85,-3.9337,-4.0195,-4.1071,-4.0214,-4.0643,-4.226,-4.2279,-4.2747,-1.9565,-2.0532,0.0,-2.1807,0.0,0.0,0.0,-2.3837,0.0,0.0,-2.3996,-2.4016,-2.4113,-2.4334,-2.4446,-2.4245,-2.4392,-2.4465,-2.4226,-2.4228,-2.4247,-2.4284,-2.4375,-2.454,-2.4834,-2.5424,-2.6049,-2.666,-2.7323,-2.7837,-2.818,-2.8783,-2.9121,-2.9167,-2.9783,-3.0128,-3.0199,-3.0207,-3.0234,-3.0305,-3.0292,-3.0585,-3.116,-3.1775,-3.2064,-3.2134,-3.2986,-3.3376,-3.34,-3.3716,-3.371,-3.3402,-3.2532,-3.256,-3.3063,-3.2706,-3.2957,-3.3518,-3.3789,-3.3866,-3.3866,-3.3866,-3.3866,-3.3886,-3.3926,-3.3964,-3.3971,-3.3976,-3.4022,-3.4218,-3.4828,-3.4995,-3.5148,-3.5752,-3.5908,-3.5908,-3.5908,-3.6103,-3.6649,-3.7876,-3.7837,-3.8168,-4.0019,-3.9825,-3.963,-4.0234,-3.9805,-3.9182,-3.8578,-3.8811,-3.9123,-3.9396,-3.9415,-3.963,-4.0136,-3.963,-3.9415,-3.9786,-3.8402,-3.7701,-3.7954,-3.7136,-3.696,-3.7564,-3.7837,-3.8402,-3.9279,-3.9006,-3.9143,-3.9649,-4.0253,-4.1013,-2.0052,-2.0913,0.0,-2.2372,-2.2991,-2.3497,-2.3744,0.0,0.0,0.0,-2.3937,-2.3976,-2.4074,-2.4113,-2.4151,-2.419,-2.419,-2.419,-2.419,-2.4191,-2.421,-2.4266,-2.4339,-2.4412,-2.4465,-2.4962,-2.5458,-2.5895,-2.6465,-2.6978,-2.7396,-2.7938,-2.8404,-2.8791,-2.9315,-2.976,-3.0157,-3.0166,-3.0194,-3.0266,-3.0254,-3.0311,-3.0386,-3.0936,-3.1179,-3.1237,-3.2119,-3.2671,-3.2991,-3.2701,-3.2578,-3.2492,-3.1652,-3.1642,-3.2087,-3.1894,-3.2126,-3.2618,-3.2986,-3.3102,-3.3102,-3.3102,-3.3102,-3.3112,-3.3142,-3.3179,-3.3195,-3.32,-3.3271,-3.3465,-3.399,-3.4358,-3.4817,-3.5694,-3.5908,-3.5908,-3.5908,-3.5908,-3.6415,-3.8168,-3.8071,-3.8441,-4.0721,-4.0662,-4.0487,-4.1013,-4.0643,-4.0,-3.9123,-3.9474,-3.9805,-3.9805,-3.9805,-3.9805,-3.9805,-3.9318,-3.8948,-3.8772,-3.7779,-3.7038,-3.6707,-3.6181,-3.6142,-3.6668,-3.7019,-3.7467,-3.7974,-3.7974,-3.7974,-3.7993,-3.8889,-3.9747,-2.1183,-2.1696,0.0,-2.36,-2.3394,0.0,-2.3653,-2.3795,-2.3816,-2.3876,-2.3855,-2.3858,-2.4054,-2.4036,-2.4054,-2.417,-2.4208,-2.419,-2.419,-2.4209,-2.4192,-2.4192,-2.4303,-2.4394,-2.4394,-2.4465,-2.4832,-2.5624,-2.5801,-2.622,-2.7035,-2.7263,-2.774,-2.8544,-2.8639,-2.9087,-2.998,-2.998,-3.0061,-3.0188,-3.0207,-3.0228,-3.0292,-3.0367,-3.0379,-3.0448,-3.1241,-3.2035,-3.2721,-3.1967,-3.1679,-3.1612,-3.0878,-3.0598,-3.0694,-3.1429,-3.17,-3.1797,-3.2599,-3.287,-3.287,-3.287,-3.287,-3.287,-3.288,-3.2908,-3.2955,-3.2963,-3.3057,-3.3161,-3.3259,-3.3824,-3.4583,-3.546,-3.5791,-3.5908,-3.5908,-3.5908,-3.6415,-3.8168,-3.85,-3.9045,-4.0799,-4.111,-4.111,-4.111,-4.111,-4.0818,-4.0019,-3.9922,-3.9922,-3.9922,-3.9844,-3.9805,-3.9805,-3.9649,-3.8928,-3.7409,-3.7233,-3.6883,-3.6162,-3.5986,-3.5908,-3.5908,-3.6688,-3.7077,-3.7077,-3.7077,-3.7077,-3.7102,-3.7901,-3.8739,-2.017,-2.1204,0.0,0.0,-2.3394,-2.3678,-2.378,-2.3795,-2.3795,-2.3816,-2.3837,-2.3896,-2.3955,-2.4016,-2.4094,-2.4132,-2.417,-2.419,-2.419,-2.4209,-2.4209,-2.4192,-2.4266,-2.4339,-2.4394,-2.4465,-2.459,-2.4841,-2.4893,-2.5032,-2.5322,-2.6012,-2.6511,-2.6754,-2.7409,-2.8198,-2.9068,-2.9127,-2.9479,-3.0123,-3.0161,-3.0221,-3.0215,-3.0292,-3.0348,-3.0398,-3.0602,-3.0799,-3.0956,-3.0775,-3.073,-3.0771,-3.0578,-3.0559,-3.0617,-3.0791,-3.0868,-3.0888,-3.1062,-3.1139,-3.1139,-3.1139,-3.1139,-3.1149,-3.1137,-3.1144,-3.1177,-3.1223,-3.1267,-3.146,-3.2182,-3.2504,-3.2854,-3.3726,-3.4934,-3.5908,-3.5908,-3.5908,-3.6415,-3.8168,-3.85,-3.9045,-4.0799,-4.111,-4.111,-4.111,-4.111,-4.1033,-4.0838,-4.0818,-4.0818,-4.0818,-4.0214,-3.9805,-3.9805,-3.8558,-3.7896,-3.8207,-3.7584,-3.7428,-3.7915,-3.6629,-3.5908,-3.5908,-3.6084,-3.6187,-3.6177,-3.6177,-3.6202,-3.625,-3.6445,-3.6972,-1.9703,0.0,0.0,-2.316,0.0,-2.3917,-2.3858,-2.3816,-2.3795,-2.3795,-2.3544,-2.3331,-2.3333,-2.3393,-2.3451,-2.3508,-2.3895,-2.417,-2.4208,-2.419,-2.4062,-2.3676,-2.4026,-2.4173,-2.3857,-2.4242,-2.4517,-2.4549,-2.4582,-2.4629,-2.4707,-2.5197,-2.5672,-2.6132,-2.6607,-2.7295,-2.8164,-2.8208,-2.867,-2.9537,-2.956,-2.9811,-3.0247,-3.0279,-3.0336,-3.0398,-3.0398,-3.039,-3.0394,-3.0406,-3.0409,-3.046,-3.0481,-3.052,-3.0559,-3.0588,-3.0598,-3.0598,-3.0598,-3.0598,-3.0598,-3.0598,-3.0598,-3.0598,-3.0606,-3.0604,-3.0618,-3.0637,-3.0685,-3.0808,-3.1304,-3.1743,-3.2172,-3.2655,-3.4057,-3.5285,-3.5285,-3.5616,-3.6298,-3.7623,-3.8207,-3.8928,-4.0253,-4.0818,-4.111,-4.111,-4.111,-4.111,-4.111,-4.111,-4.111,-4.111,-4.0701,-4.0253,-3.9844,-3.8967,-3.8461,-3.85,-3.8071,-3.8032,-3.848,-3.7623,-3.6947,-3.6523,-3.6509,-3.6518,-3.6523,-3.6523,-3.6547,-3.6571,-3.6181,-3.6434,-1.9507,0.0,-2.2097,-2.3708,-2.4074,0.0,-2.3937,-2.3858,-2.3816,-2.3816,-2.3216,-2.2691,-2.2696,-2.2588,-2.2517,-2.2648,-2.3362,-2.3912,-2.3988,-2.4116,-2.3952,-2.329,-2.3731,-2.386,-2.3265,-2.3852,-2.4276,-2.4276,-2.4474,-2.4582,-2.4599,-2.4707,-2.5103,-2.585,-2.5924,-2.638,-2.7243,-2.7277,-2.7737,-2.8665,-2.8679,-2.9096,-2.9839,-2.9857,-3.0047,-3.0398,-3.0398,-3.0398,-3.041,-3.0394,-3.0386,-3.0398,-3.046,-3.0491,-3.052,-3.0559,-3.0598,-3.0598,-3.0598,-3.0598,-3.0598,-3.0598,-3.0598,-3.0598,-3.0598,-3.0606,-3.0593,-3.0602,-3.0661,-3.0704,-3.0697,-3.1234,-3.181,-3.1861,-3.3054,-3.4204,-3.436,-3.4969,-3.5773,-3.6787,-3.7815,-3.8784,-3.9641,-4.0396,-4.0935,-4.1091,-4.111,-4.111,-4.111,-4.111,-4.111,-4.111,-4.111,-4.0818,-4.0097,-3.9883,-3.9493,-3.8772,-3.8714,-3.8714,-3.8714,-3.8714,-3.8394,-3.7664,-3.7503,-3.741,-3.7414,-3.7414,-3.7355,-3.7203,-3.6536,-3.6497,0.0,0.0,-2.2788,0.0,-2.4094,-2.4074,0.0,0.0,-2.3976,-2.3896,-2.3236,-2.2709,-2.2691,-2.2132,-2.1698,-2.1753,-2.2502,-2.3088,-2.3143,-2.3768,-2.4154,-2.4044,-2.3584,-2.3232,-2.3191,-2.3316,-2.337,-2.337,-2.4072,-2.4551,-2.4599,-2.4631,-2.4701,-2.4892,-2.4949,-2.5408,-2.6291,-2.6413,-2.6868,-2.7685,-2.7755,-2.786,-2.8051,-2.8051,-2.8905,-3.0398,-3.0398,-3.0398,-3.0398,-3.041,-3.0414,-3.0398,-3.0409,-3.046,-3.0491,-3.052,-3.0559,-3.0598,-3.0598,-3.0598,-3.0598,-3.0598,-3.0598,-3.0598,-3.0598,-3.0598,-3.0597,-3.0593,-3.0661,-3.0704,-3.0697,-3.0837,-3.0959,-3.0977,-3.1724,-3.2638,-3.3399,-3.3649,-3.4205,-3.5845,-3.7432,-3.8783,-3.9642,-3.9906,-4.0234,-4.0994,-4.111,-4.111,-4.111,-4.111,-4.111,-4.111,-4.111,-4.1052,-4.0935,-4.0234,-3.9747,-3.963,-3.963,-3.963,-3.963,-3.9622,-3.9574,-3.9453,-3.8707,-3.8322,-3.8319,-3.8319,-3.7975,-3.7279,-3.7181,-3.6771,-1.9937,-2.1898,-2.346,0.0,-2.4132,-2.4094,-2.4074,-2.4016,-2.3996,-2.3958,-2.2953,-2.206,-2.2021,-2.1369,-2.088,-2.1016,-2.1729,-2.2315,-2.2421,-2.2782,-2.2836,-2.231,-2.2412,-2.2349,-2.1906,-2.2259,-2.272,-2.3165,-2.3572,-2.3998,-2.4513,-2.4582,-2.4596,-2.4629,-2.4707,-2.4938,-2.5359,-2.5437,-2.5925,-2.6825,-2.7355,-2.7631,-2.7707,-2.7707,-2.8145,-2.8945,-2.8945,-2.8956,-2.9025,-2.9486,-2.9671,-2.9721,-3.0213,-3.0439,-3.05,-3.0491,-3.053,-3.0598,-3.0598,-3.0598,-3.0598,-3.0598,-3.0598,-3.0598,-3.0598,-3.0598,-3.0598,-3.0606,-3.0621,-3.0649,-3.0685,-3.0716,-3.0755,-3.0785,-3.1094,-3.1474,-3.1851,-3.3081,-3.4622,-3.6341,-3.7272,-3.8046,-3.8928,-3.9481,-3.9931,-4.0312,-4.0799,-4.111,-4.111,-4.111,-4.111,-4.111,-4.111,-4.111,-4.111,-4.076,-4.0526,-4.0526,-4.0526,-4.0526,-4.0526,-4.0518,-4.0535,-4.053,-3.9672,-3.9232,-3.9227,-3.9227,-3.8801,-3.8024,-3.7536,-3.6833,0.0,0.0,-2.294,-2.3652,-2.3763,-2.3818,0.0,-2.4094,-2.4054,-2.4016,-2.2757,-2.1589,-2.1552,-2.0717,-2.0129,-2.0299,-2.101,-2.1578,-2.1708,-2.1942,-2.1845,-2.1191,-2.1525,-2.1568,-2.0918,-2.1388,-2.1987,-2.2553,-2.2776,-2.3165,-2.383,-2.3899,-2.4025,-2.423,-2.4329,-2.4501,-2.4753,-2.4779,-2.5187,-2.5983,-2.6618,-2.6975,-2.7038,-2.7038,-2.7086,-2.7163,-2.7616,-2.783,-2.7948,-2.8544,-2.8794,-2.8882,-2.974,-3.012,-3.0209,-3.0423,-3.052,-3.0588,-3.0598,-3.0443,-3.0308,-3.052,-3.0443,-3.0308,-3.052,-3.0598,-3.0598,-3.0597,-3.0613,-3.0634,-3.0691,-3.0709,-3.075,-3.078,-3.0795,-3.08,-3.0798,-3.2519,-3.4472,-3.5956,-3.6405,-3.6908,-3.801,-3.8902,-3.9533,-3.9765,-4.0549,-4.1109,-4.1109,-4.1097,-4.111,-4.111,-4.111,-4.111,-4.111,-4.111,-4.1097,-4.1081,-4.1081,-4.1061,-4.1067,-4.1076,-4.1081,-4.11,-4.0461,-4.0122,-4.0132,-4.0132,-3.9702,-3.8882,-3.8024,-3.7165,0.0,-1.9939,0.0,-2.231,-2.2788,-2.3027,0.0,-2.419,-2.417,-2.4113,-2.2813,-2.1661,-2.1607,-2.0415,-1.946,-1.9545,-2.0294,-2.0882,-2.0937,-2.1625,-2.214,-2.2209,-2.1531,-2.1035,-2.0982,-2.1039,-2.1022,-2.0934,-2.1625,-2.207,-2.2126,-2.2126,-2.2479,-2.324,-2.3409,-2.383,-2.4596,-2.4738,-2.4889,-2.5069,-2.5107,-2.5165,-2.5246,-2.5246,-2.5263,-2.5428,-2.7086,-2.783,-2.789,-2.7948,-2.7948,-2.8044,-2.8863,-2.9201,-2.9357,-3.0209,-3.05,-3.0501,-3.0588,-3.0056,-2.9495,-3.0327,-3.0037,-2.9515,-3.0346,-3.0598,-3.0607,-3.0593,-3.0653,-3.0711,-3.0701,-3.0755,-3.0801,-3.0801,-3.08,-3.0798,-3.0806,-3.1565,-3.2504,-3.342,-3.4251,-3.537,-3.707,-3.8025,-3.886,-3.9678,-4.0542,-4.109,-4.109,-4.11,-4.111,-4.111,-4.111,-4.111,-4.111,-4.111,-4.1061,-4.1016,-4.1019,-4.1001,-4.1008,-4.1008,-4.1041,-4.1094,-4.1055,-4.1019,-4.103,-4.103,-4.0581,-3.9722,-3.8902,-3.8063,0.0,0.0,0.0,-2.1616,-2.2238,-2.2788,-2.3156,-2.3728,-2.419,-2.417,-2.329,-2.2538,-2.2624,-2.0852,-1.9456,-1.9591,-1.9964,-2.0238,-2.0243,-2.0577,-2.0797,-2.0709,-2.0497,-2.0331,-2.0299,-2.0227,-2.0388,-2.0896,-2.1127,-2.1458,-2.1977,-2.1996,-2.2126,-2.2423,-2.2473,-2.2943,-2.3889,-2.3978,-2.4355,-2.4993,-2.4993,-2.5051,-2.5101,-2.5101,-2.5149,-2.5236,-2.5864,-2.6165,-2.6273,-2.6822,-2.7063,-2.7159,-2.8005,-2.87,-2.9165,-2.8916,-2.9216,-2.9651,-2.912,-2.8732,-2.8606,-2.9476,-2.9553,-2.9457,-3.0346,-3.0598,-3.0607,-3.0593,-3.0644,-3.0709,-3.07,-3.0758,-3.0795,-3.08,-3.0796,-3.0808,-3.0801,-3.1485,-3.2363,-3.3222,-3.4105,-3.4894,-3.5526,-3.7226,-3.8612,-3.892,-4.0184,-4.1099,-4.1099,-4.1091,-4.1104,-4.1104,-4.1104,-4.1104,-4.1104,-4.1055,-4.1025,-4.0994,-4.0996,-4.0996,-4.0996,-4.0994,-4.1014,-4.1035,-4.1035,-4.1054,-4.1108,-4.1108,-4.0659,-3.978,-3.8961,-3.8121,-1.9517,0.0,0.0,0.0,-2.1466,-2.1962,-2.2856,-2.3393,-2.3802,-2.4135,-2.3566,-2.3033,-2.3137,-2.1581,-2.0359,-2.0571,-2.0724,-2.0804,-2.0807,-2.0641,-2.0498,-2.0353,-2.0181,-2.003,-1.9939,-1.9873,-2.0042,-2.0565,-2.0484,-2.0658,-2.1202,-2.1209,-2.1309,-2.1588,-2.1866,-2.2334,-2.3026,-2.338,-2.3879,-2.4523,-2.4853,-2.5025,-2.5088,-2.5088,-2.5137,-2.5195,-2.5209,-2.5241,-2.5349,-2.5918,-2.6159,-2.6255,-2.7121,-2.7824,-2.8287,-2.8009,-2.829,-2.8753,-2.8193,-2.7815,-2.7755,-2.8915,-2.9089,-2.907,-3.025,-3.0598,-3.0607,-3.0593,-3.0651,-3.0709,-3.0735,-3.0762,-3.08,-3.0797,-3.0808,-3.0801,-3.0801,-3.125,-3.1914,-3.2792,-3.3437,-3.4007,-3.4603,-3.6596,-3.82,-3.8496,-4.0,-4.1092,-4.1092,-4.111,-4.1107,-4.1107,-4.1071,-4.1072,-4.1072,-4.1035,-4.0994,-4.1008,-4.0999,-4.0994,-4.0991,-4.1003,-4.1007,-4.0999,-4.0994,-4.1027,-4.1072,-4.1072,-4.0776,-4.0223,-3.9385,-3.8385,0.0,0.0,0.0,0.0,-2.0362,-2.0481,-2.3082,-2.3146,-2.2954,-2.3949,-2.3547,-2.2997,-2.3033,-2.2511,-2.2174,-2.242,-2.254,-2.2588,-2.2552,-2.1913,-2.1417,-2.1369,-2.0709,-2.0184,-2.0021,-2.006,-2.002,-1.9813,-1.975,-1.9701,-1.9695,-1.9633,-1.9954,-2.0734,-2.1513,-2.1968,-2.2054,-2.297,-2.3474,-2.3601,-2.4534,-2.5018,-2.5101,-2.5101,-2.5139,-2.5191,-2.5195,-2.5239,-2.5311,-2.5293,-2.5303,-2.538,-2.6236,-2.6582,-2.6697,-2.7527,-2.7836,-2.7865,-2.7903,-2.7361,-2.6934,-2.8664,-2.8664,-2.8315,-3.0037,-3.0578,-3.0607,-3.0593,-3.0642,-3.073,-3.0788,-3.0801,-3.0801,-3.0801,-3.0801,-3.0801,-3.0801,-3.0801,-3.1055,-3.1895,-3.207,-3.2636,-3.4334,-3.6111,-3.7594,-3.8436,-4.0012,-4.1091,-4.1091,-4.1093,-4.1108,-4.1108,-4.1034,-4.0996,-4.0996,-4.0994,-4.0996,-4.1003,-4.0998,-4.1006,-4.1007,-4.1007,-4.0998,-4.1007,-4.1007,-4.1007,-4.1007,-4.0991,-4.1025,-4.1074,-4.0215,-3.8904,-1.8385,0.0,0.0,0.0,0.0,0.0,-2.0868,-2.1474,-2.2097,-2.2995,-2.3014,-2.3088,-2.3877,-2.3854,-2.3822,-2.4024,-2.3164,-2.2235,-2.1601,-2.1986,-2.1895,-2.0689,-2.0889,-2.0888,-2.0199,-2.0116,-2.0069,-2.0011,-1.9918,-1.9797,-1.972,-1.9582,-1.9629,-1.9851,-2.0074,-2.0526,-2.1241,-2.1531,-2.2327,-2.3601,-2.3909,-2.4397,-2.5025,-2.507,-2.5107,-2.5125,-2.5184,-2.5198,-2.5239,-2.5282,-2.5293,-2.5322,-2.5572,-2.6043,-2.6544,-2.6169,-2.642,-2.6882,-2.6313,-2.5964,-2.5931,-2.7052,-2.7688,-2.8208,-2.9321,-3.0095,-3.0607,-3.0593,-3.0644,-3.0721,-3.084,-3.0835,-3.0795,-3.0804,-3.0801,-3.0801,-3.0801,-3.0801,-3.088,-3.1114,-3.166,-3.2246,-3.2734,-3.531,-3.7379,-3.7614,-3.961,-4.1097,-4.1097,-4.1101,-4.1105,-4.1105,-4.1084,-4.1062,-4.1062,-4.1065,-4.1042,-4.1,-4.0993,-4.0984,-4.0932,-4.0924,-4.0941,-4.0926,-4.0926,-4.0926,-4.0926,-4.0983,-4.1016,-4.1004,-4.0174,-3.9219,-1.7755,-1.7677,-1.77,-1.87,0.0,0.0,-2.0307,-2.0655,-2.124,-2.2574,-2.2849,-2.3143,-2.4172,-2.4374,-2.4409,-2.4512,-2.3851,-2.3145,-2.2677,-2.2855,-2.2704,-2.1816,-2.1786,-2.1653,-2.1197,-2.0765,-2.0513,-2.0522,-2.0074,-1.9781,-1.9662,-1.9609,-1.9555,-1.9499,-1.9499,-1.9754,-2.0313,-2.0768,-2.1505,-2.2523,-2.2987,-2.3657,-2.4499,-2.4544,-2.4759,-2.5113,-2.513,-2.5164,-2.5198,-2.5241,-2.5273,-2.5293,-2.5303,-2.561,-2.6005,-2.5495,-2.563,-2.6025,-2.5562,-2.5395,-2.5537,-2.6414,-2.705,-2.7619,-2.8489,-2.936,-3.0065,-3.0092,-3.0406,-3.0762,-3.0839,-3.0834,-3.0792,-3.0804,-3.0801,-3.0801,-3.0801,-3.0801,-3.0801,-3.0801,-3.1211,-3.166,-3.2031,-3.4393,-3.6345,-3.6696,-3.8921,-4.0561,-4.0561,-4.0873,-4.1108,-4.1108,-4.1101,-4.1097,-4.1097,-4.1061,-4.1033,-4.0993,-4.0968,-4.0935,-4.0907,-4.0907,-4.0907,-4.0907,-4.0907,-4.0907,-4.0907,-4.0935,-4.0964,-4.0988,-4.0513,-3.9839,-1.707,-1.7211,-1.766,-1.8955,-1.8991,0.0,-2.0477,-2.0394,-2.0494,-2.2227,-2.2593,-2.2868,-2.3824,-2.4063,-2.4118,-2.4137,-2.4372,-2.4543,-2.4554,-2.4038,-2.3639,-2.3638,-2.2931,-2.247,-2.249,-2.1737,-2.1192,-2.1111,-2.0227,-1.9669,-1.9611,-1.9655,-1.9623,-1.9485,-1.9504,-1.9504,-1.9504,-2.0391,-2.0883,-2.1009,-2.1922,-2.281,-2.3632,-2.3644,-2.4138,-2.4967,-2.4948,-2.5072,-2.5206,-2.5201,-2.5241,-2.5292,-2.5293,-2.5303,-2.5303,-2.5303,-2.5341,-2.5398,-2.5397,-2.5395,-2.5537,-2.6307,-2.6625,-2.6837,-2.7619,-2.8528,-2.934,-2.9515,-3.0152,-3.0804,-3.08,-3.0814,-3.0801,-3.0801,-3.0801,-3.0801,-3.0801,-3.0801,-3.0801,-3.0801,-3.0801,-3.1055,-3.1816,-3.3398,-3.4822,-3.5584,-3.7887,-3.9566,-3.9644,-4.0424,-4.0991,-4.1088,-4.1094,-4.1096,-4.1096,-4.1046,-4.0964,-4.0859,-4.0799,-4.0722,-4.0635,-4.0616,-4.0616,-4.0616,-4.0616,-4.0616,-4.0616,-4.081,-4.0932,-4.0981,-4.1003,-4.0574,-1.7487,-1.7329,-1.7216,-1.8132,-1.8871,0.0,-1.9074,-1.9511,-2.0131,-2.0552,-2.0643,-2.0934,-2.1862,-2.2572,-2.3048,-2.3162,-2.375,-2.4045,-2.363,-2.417,-2.4114,-2.2748,-2.3031,-2.3101,-2.247,-2.225,-2.1859,-2.1159,-2.0232,-1.9676,-1.9675,-1.9592,-1.9493,-1.942,-1.942,-1.9435,-1.9497,-1.9755,-2.0228,-2.0923,-2.1237,-2.1828,-2.2672,-2.2728,-2.3232,-2.4067,-2.411,-2.4545,-2.5203,-2.5206,-2.525,-2.5292,-2.5293,-2.5303,-2.5303,-2.5303,-2.5313,-2.5313,-2.5322,-2.536,-2.5434,-2.5597,-2.6135,-2.6721,-2.6895,-2.8083,-2.9534,-3.0308,-3.0658,-3.0804,-3.0876,-3.0882,-3.088,-3.0801,-3.0801,-3.0801,-3.0801,-3.0801,-3.0801,-3.0801,-3.0801,-3.086,-3.1016,-3.25,-3.371,-3.3886,-3.6111,-3.8043,-3.8746,-3.9546,-4.0327,-4.103,-4.1104,-4.1097,-4.1096,-4.1086,-4.0766,-4.0003,-3.9937,-3.9621,-3.8916,-3.8887,-3.8887,-3.8887,-3.8887,-3.8887,-3.8887,-4.0247,-4.0917,-4.0915,-4.0961,-4.0914,-1.6993,-1.6965,-1.7103,-1.8379,-1.8885,0.0,0.0,-1.9243,-1.9628,-2.0437,-2.037,-2.0572,-2.1953,-2.2172,-2.2337,-2.285,-2.3345,-2.3711,-2.3828,-2.4329,-2.4415,-2.3639,-2.386,-2.3973,-2.3628,-2.3103,-2.2449,-2.162,-2.0795,-2.03,-2.0206,-1.9792,-1.9504,-1.9405,-1.939,-1.9438,-1.9501,-1.9578,-1.9846,-2.0298,-2.0439,-2.0934,-2.1758,-2.182,-2.2322,-2.3175,-2.3648,-2.4121,-2.4595,-2.5023,-2.522,-2.5252,-2.5302,-2.5293,-2.5303,-2.5303,-2.5303,-2.5313,-2.5341,-2.537,-2.5397,-2.5395,-2.571,-2.6056,-2.6083,-2.7372,-2.8987,-2.9855,-3.0448,-3.087,-3.0895,-3.0903,-3.088,-3.0821,-3.0801,-3.0801,-3.0801,-3.0801,-3.0801,-3.0801,-3.0801,-3.0801,-3.0801,-3.1895,-3.2753,-3.2753,-3.4608,-3.615,-3.6599,-3.777,-3.8882,-3.9761,-3.9839,-4.0028,-4.0418,-4.0053,-3.9597,-3.9077,-3.9054,-3.8661,-3.778,-3.8169,-3.8402,-3.8402,-3.8402,-3.8402,-3.8402,-3.9237,-3.9878,-4.0305,-4.0738,-4.0743,-1.6984,-1.7115,-1.7552,-1.8847,-1.8979,-1.8909,0.0,0.0,0.0,-2.043,-2.0278,-2.0409,-2.1863,-2.168,-2.1571,-2.2355,-2.2829,-2.3339,-2.4022,-2.4315,-2.4545,-2.4746,-2.4692,-2.466,-2.476,-2.3846,-2.2959,-2.2274,-2.1596,-2.1129,-2.0964,-2.0238,-1.9824,-1.9865,-1.9556,-1.9494,-1.9723,-1.9625,-1.9601,-1.9673,-1.9801,-2.02,-2.0853,-2.0913,-2.1426,-2.2315,-2.3015,-2.3545,-2.395,-2.4667,-2.5045,-2.5212,-2.5282,-2.5302,-2.5303,-2.5303,-2.5303,-2.5313,-2.5361,-2.5389,-2.5407,-2.5404,-2.5401,-2.5468,-2.5704,-2.6909,-2.8359,-2.9203,-3.0146,-3.0897,-3.0895,-3.0907,-3.088,-3.0821,-3.0801,-3.0801,-3.0801,-3.0801,-3.0801,-3.0801,-3.0801,-3.0801,-3.0801,-3.1387,-3.1856,-3.1856,-3.3183,-3.4256,-3.4432,-3.5818,-3.7126,-3.8004,-3.8102,-3.8365,-3.8989,-3.855,-3.8066,-3.7669,-3.7805,-3.743,-3.6401,-3.7197,-3.7722,-3.7897,-3.7897,-3.7897,-3.7897,-3.8071,-3.8674,-3.9703,-4.0189,-4.0169,-1.9055,-1.9247,-1.9157,-1.871,-1.9252,-1.9621,-1.8521,0.0,-1.9449,-1.9199,0.0,-1.9111,-1.9326,0.0,0.0,-2.0642,-2.1863,-2.2849,-2.3125,-2.3823,-2.4428,-2.4692,-2.4707,-2.4692,-2.4723,-2.3899,-2.3281,-2.3073,-2.2327,-2.1882,-2.1853,-2.1044,-2.0868,-2.1504,-2.0092,-1.9703,-2.0569,-1.9849,-1.9559,-1.9597,-1.9692,-1.9807,-1.9951,-2.0024,-2.0558,-2.1441,-2.1532,-2.2479,-2.3912,-2.4003,-2.4495,-2.5198,-2.5271,-2.5302,-2.5303,-2.5303,-2.5303,-2.5303,-2.5313,-2.5351,-2.5398,-2.5406,-2.544,-2.5646,-2.6494,-2.7416,-2.8379,-2.9324,-3.0213,-3.0905,-3.0892,-3.0907,-3.088,-3.0821,-3.0801,-3.0801,-3.0801,-3.0801,-3.0801,-3.0801,-3.0801,-3.0801,-3.0801,-3.088,-3.0958,-3.0958,-3.1777,-3.2675,-3.3456,-3.4393,-3.533,-3.6208,-3.6293,-3.6317,-3.6348,-3.6917,-3.6591,-3.5038,-3.5663,-3.5391,-3.3798,-3.4517,-3.5313,-3.609,-3.611,-3.611,-3.611,-3.6867,-3.8091,-3.9684,-3.9004,-3.9043,-1.9402,-1.9601,-1.9571,-1.9454,-1.9411,-1.928,-1.8779,-1.8741,-1.8836,-1.8979,0.0,0.0,0.0,0.0,0.0,0.0,-2.0951,-2.1624,-2.217,-2.2658,-2.3384,-2.45,-2.4629,-2.466,-2.4692,-2.4329,-2.406,-2.4027,-2.318,-2.2685,-2.2706,-2.1911,-2.1345,-2.1099,-2.047,-2.008,-2.0,-1.9678,-1.9522,-1.9602,-1.9679,-1.9744,-1.9807,-1.988,-2.0138,-2.0565,-2.1083,-2.1725,-2.2459,-2.3476,-2.4121,-2.4498,-2.502,-2.5262,-2.5302,-2.5303,-2.5303,-2.5303,-2.5303,-2.5313,-2.5351,-2.5397,-2.5459,-2.5569,-2.5964,-2.6715,-2.7623,-2.853,-2.9447,-3.0255,-3.0769,-3.0903,-3.088,-3.0821,-3.0801,-3.0801,-3.0801,-3.0801,-3.0801,-3.0801,-3.0801,-3.0801,-3.0801,-3.0801,-3.0801,-3.0801,-3.1114,-3.1485,-3.1836,-3.2656,-3.3532,-3.4401,-3.4491,-3.4666,-3.5112,-3.4996,-3.4581,-3.3845,-3.3682,-3.3507,-3.3313,-3.3138,-3.3682,-3.5022,-3.5041,-3.5294,-3.5799,-3.6168,-3.6984,-3.8188,-3.8324,-3.8324,-1.9998,-2.0196,-2.0152,-1.9991,-1.9538,-1.9058,-1.8824,-1.8606,-1.859,-1.9097,-1.9181,0.0,0.0,0.0,-1.9687,-2.021,0.0,-2.0893,-2.1275,-2.1633,-2.2446,-2.4025,-2.4465,-2.4645,-2.4723,-2.4676,-2.4645,-2.4631,-2.3971,-2.357,-2.3572,-2.2778,-2.2117,-2.1648,-2.1237,-2.0754,-2.0163,-1.9933,-1.974,-1.9602,-1.9679,-1.9744,-1.9807,-1.988,-1.9938,-2.0031,-2.0665,-2.1067,-2.142,-2.2923,-2.3681,-2.399,-2.4856,-2.5222,-2.5262,-2.5293,-2.5303,-2.5303,-2.5303,-2.5313,-2.5341,-2.5378,-2.5459,-2.5511,-2.5511,-2.6133,-2.705,-2.7954,-2.8869,-2.9777,-3.0667,-3.0899,-3.086,-3.0801,-3.0801,-3.0801,-3.0801,-3.0801,-3.0801,-3.0801,-3.0801,-3.0801,-3.0801,-3.0801,-3.0801,-3.0801,-3.0801,-3.0801,-3.0801,-3.1348,-3.1987,-3.2615,-3.2686,-3.2922,-3.3478,-3.3168,-3.2934,-3.2943,-3.2128,-3.2031,-3.2905,-3.2341,-3.2691,-3.4128,-3.4167,-3.4478,-3.5119,-3.5119,-3.5546,-3.6401,-3.7275,-3.7469,-2.1427,-2.1715,-2.1383,-1.9975,-1.9648,-1.9378,-1.8212,-1.8546,-1.9155,-1.9439,-2.0052,-2.0648,-2.0986,-2.1031,-2.0863,-2.0373,-2.0952,0.0,0.0,-2.1025,-2.1954,-2.3108,-2.4089,-2.4723,-2.4779,-2.4794,-2.4783,-2.4707,-2.461,-2.4561,-2.4561,-2.3663,-2.3486,-2.4246,-2.2711,-2.1844,-2.1821,-2.1059,-2.0296,-1.9602,-1.9679,-1.9744,-1.9807,-1.988,-1.9938,-1.9993,-2.0038,-2.0515,-2.1363,-2.2274,-2.3135,-2.3995,-2.4864,-2.5192,-2.5222,-2.5293,-2.5303,-2.5303,-2.5303,-2.5341,-2.5406,-2.5406,-2.5459,-2.5511,-2.5511,-2.6113,-2.6991,-2.7944,-2.8827,-2.9726,-3.0653,-3.086,-3.0801,-3.0801,-3.0801,-3.0801,-3.0801,-3.0801,-3.0801,-3.0801,-3.0801,-3.0801,-3.0801,-3.0801,-3.0801,-3.0801,-3.0801,-3.0801,-3.0801,-3.0821,-3.0855,-3.0879,-3.0876,-3.0872,-3.082,-3.1566,-3.205,-3.205,-3.1215,-3.1137,-3.2011,-3.2004,-3.2419,-3.3313,-3.3332,-3.3351,-3.3371,-3.3371,-3.3798,-3.4595,-3.5488,-3.6323,-2.1238,-2.1648,-2.1578,-2.0644,-2.0057,-1.9477,-1.8687,-1.8701,-1.8958,-1.9081,-1.982,-2.0512,-2.0627,-2.074,-2.0827,-2.0827,-2.0616,-2.0423,0.0,-2.0517,-2.0878,-2.1369,-2.2768,-2.3515,-2.3004,-2.3989,-2.4436,-2.3892,-2.4342,-2.4645,-2.4615,-2.4304,-2.3717,-2.2854,-2.278,-2.2242,-2.1115,-2.1408,-2.1179,-2.0381,-2.041,-2.0214,-1.9807,-1.9832,-1.9892,-1.9993,-2.0,-2.0172,-2.0506,-2.1434,-2.262,-2.3938,-2.423,-2.5037,-2.5998,-2.5494,-2.5303,-2.5303,-2.5303,-2.5341,-2.5406,-2.5406,-2.5459,-2.5511,-2.5511,-2.5735,-2.6184,-2.7087,-2.7998,-2.8906,-2.981,-3.0448,-3.088,-3.088,-3.0841,-3.0801,-3.0801,-3.0801,-3.0801,-3.0801,-3.0801,-3.0801,-3.0801,-3.0801,-3.0801,-3.0801,-3.0801,-3.0801,-3.0801,-3.0801,-3.0791,-3.0798,-3.0808,-3.0764,-3.0717,-3.0969,-3.1137,-3.1137,-3.0865,-3.0826,-3.1137,-3.1137,-3.1545,-3.2419,-3.2438,-3.273,-3.3293,-3.3293,-3.3701,-3.4517,-3.4808,-3.541,-2.0726,-2.1163,-2.1313,-2.0877,-2.045,-1.997,-1.9295,-1.942,-1.9672,-1.9705,-2.0441,-2.1096,-2.1204,-2.1326,-2.1319,-2.1025,-2.0634,-2.0219,0.0,-1.9864,-1.9914,-2.001,-2.1607,-2.2532,-2.21,-2.3033,-2.364,-2.3516,-2.3956,-2.4357,-2.4657,-2.4631,-2.4081,-2.2973,-2.3405,-2.2998,-2.1594,-2.2163,-2.1885,-2.079,-2.0819,-2.0476,-1.9807,-1.9832,-1.9903,-1.9993,-2.0009,-1.9991,-2.0068,-2.0995,-2.218,-2.3498,-2.4124,-2.5045,-2.5979,-2.5484,-2.5303,-2.5303,-2.5303,-2.5341,-2.5406,-2.5406,-2.5459,-2.5511,-2.5511,-2.553,-2.5759,-2.6657,-2.734,-2.8083,-2.9293,-3.0029,-3.0513,-3.0821,-3.088,-3.0841,-3.0801,-3.0801,-3.0801,-3.0801,-3.0801,-3.0801,-3.0801,-3.0801,-3.0801,-3.0801,-3.0801,-3.0801,-3.0801,-3.0801,-3.0807,-3.0804,-3.0799,-3.0759,-3.0717,-3.069,-3.069,-3.069,-3.069,-3.069,-3.069,-3.069,-3.0962,-3.1525,-3.1545,-3.1817,-3.238,-3.238,-3.2807,-3.3604,-3.3604,-3.4225]}]]